<?xml version="1.0" encoding="UTF-8" standalone="no" ?>
<gpx xmlns="http://www.topografix.com/GPX/1/1" xmlns:xsi="http://www.w3.org/2001/XMLSchema-instance" xsi:schemaLocation="http://www.topografix.com/GPX/1/1 http://www.topografix.com/GPX/1/1/gpx.xsd" version="1.1" creator="VisuGPX - https://www.visugpx.com">
  <metadata>
    <name>Luxembourg (G.D.L) city trip  2017 (Août)</name>
    <desc><![CDATA[City trip en famille bien sympa à refaire trop bien]]></desc>
  </metadata>
  <trk>
    <name><![CDATA[Luxembourg (G.D.L) city trip  2017 (Août)_1]]></name>
    <trkseg>
      <trkpt lat="49.61213" lon="6.13785">
        <ele>225</ele>
        <time>2017-08-29T10:32:58Z</time>
      </trkpt>
      <trkpt lat="49.61217" lon="6.13798">
        <ele>227</ele>
        <time>2017-08-29T10:33:08Z</time>
      </trkpt>
      <trkpt lat="49.6122" lon="6.13809">
        <ele>227</ele>
        <time>2017-08-29T10:33:18Z</time>
      </trkpt>
      <trkpt lat="49.61223" lon="6.13819">
        <ele>227</ele>
        <time>2017-08-29T10:33:28Z</time>
      </trkpt>
      <trkpt lat="49.61226" lon="6.13828">
        <ele>228</ele>
        <time>2017-08-29T10:33:39Z</time>
      </trkpt>
      <trkpt lat="49.61225" lon="6.13835">
        <ele>228</ele>
        <time>2017-08-29T10:33:50Z</time>
      </trkpt>
      <trkpt lat="49.61225" lon="6.13839">
        <ele>228</ele>
        <time>2017-08-29T10:34:00Z</time>
      </trkpt>
      <trkpt lat="49.61223" lon="6.1384">
        <ele>228</ele>
        <time>2017-08-29T10:34:10Z</time>
      </trkpt>
      <trkpt lat="49.61222" lon="6.13842">
        <ele>227</ele>
        <time>2017-08-29T10:34:21Z</time>
      </trkpt>
      <trkpt lat="49.61222" lon="6.13843">
        <ele>228</ele>
        <time>2017-08-29T10:34:32Z</time>
      </trkpt>
      <trkpt lat="49.61219" lon="6.13833">
        <ele>228</ele>
        <time>2017-08-29T10:34:42Z</time>
      </trkpt>
      <trkpt lat="49.61218" lon="6.13821">
        <ele>227</ele>
        <time>2017-08-29T10:34:52Z</time>
      </trkpt>
      <trkpt lat="49.61216" lon="6.13806">
        <ele>226</ele>
        <time>2017-08-29T10:35:03Z</time>
      </trkpt>
      <trkpt lat="49.61215" lon="6.13801">
        <ele>226</ele>
        <time>2017-08-29T10:35:14Z</time>
      </trkpt>
      <trkpt lat="49.61216" lon="6.13803">
        <ele>226</ele>
        <time>2017-08-29T10:35:24Z</time>
      </trkpt>
      <trkpt lat="49.61217" lon="6.13809">
        <ele>227</ele>
        <time>2017-08-29T10:35:35Z</time>
      </trkpt>
      <trkpt lat="49.6122" lon="6.13816">
        <ele>227</ele>
        <time>2017-08-29T10:35:45Z</time>
      </trkpt>
      <trkpt lat="49.61222" lon="6.13829">
        <ele>228</ele>
        <time>2017-08-29T10:35:55Z</time>
      </trkpt>
      <trkpt lat="49.61233" lon="6.13828">
        <ele>228</ele>
        <time>2017-08-29T10:36:06Z</time>
      </trkpt>
      <trkpt lat="49.61244" lon="6.13824">
        <ele>228</ele>
        <time>2017-08-29T10:36:17Z</time>
      </trkpt>
      <trkpt lat="49.6125" lon="6.13829">
        <ele>229</ele>
        <time>2017-08-29T10:36:28Z</time>
      </trkpt>
      <trkpt lat="49.61248" lon="6.13829">
        <ele>228</ele>
        <time>2017-08-29T10:36:39Z</time>
      </trkpt>
      <trkpt lat="49.61253" lon="6.13829">
        <ele>228</ele>
        <time>2017-08-29T10:36:49Z</time>
      </trkpt>
      <trkpt lat="49.61251" lon="6.13842">
        <ele>228</ele>
        <time>2017-08-29T10:37:00Z</time>
      </trkpt>
      <trkpt lat="49.61249" lon="6.13859">
        <ele>230</ele>
        <time>2017-08-29T10:37:11Z</time>
      </trkpt>
      <trkpt lat="49.61248" lon="6.13872">
        <ele>230</ele>
        <time>2017-08-29T10:37:22Z</time>
      </trkpt>
      <trkpt lat="49.61246" lon="6.13881">
        <ele>231</ele>
        <time>2017-08-29T10:37:32Z</time>
      </trkpt>
      <trkpt lat="49.61249" lon="6.13893">
        <ele>231</ele>
        <time>2017-08-29T10:37:42Z</time>
      </trkpt>
      <trkpt lat="49.6125" lon="6.1391">
        <ele>232</ele>
        <time>2017-08-29T10:37:52Z</time>
      </trkpt>
      <trkpt lat="49.61247" lon="6.13912">
        <ele>233</ele>
        <time>2017-08-29T10:38:02Z</time>
      </trkpt>
      <trkpt lat="49.61243" lon="6.13908">
        <ele>234</ele>
        <time>2017-08-29T10:38:12Z</time>
      </trkpt>
      <trkpt lat="49.61237" lon="6.13897">
        <ele>235</ele>
        <time>2017-08-29T10:38:22Z</time>
      </trkpt>
      <trkpt lat="49.61232" lon="6.13884">
        <ele>236</ele>
        <time>2017-08-29T10:38:33Z</time>
      </trkpt>
      <trkpt lat="49.61227" lon="6.1387">
        <ele>237</ele>
        <time>2017-08-29T10:38:43Z</time>
      </trkpt>
      <trkpt lat="49.61222" lon="6.13858">
        <ele>238</ele>
        <time>2017-08-29T10:38:53Z</time>
      </trkpt>
      <trkpt lat="49.61216" lon="6.13843">
        <ele>239</ele>
        <time>2017-08-29T10:39:04Z</time>
      </trkpt>
      <trkpt lat="49.6121" lon="6.13829">
        <ele>240</ele>
        <time>2017-08-29T10:39:15Z</time>
      </trkpt>
      <trkpt lat="49.61206" lon="6.13817">
        <ele>241</ele>
        <time>2017-08-29T10:39:25Z</time>
      </trkpt>
      <trkpt lat="49.61201" lon="6.13801">
        <ele>242</ele>
        <time>2017-08-29T10:39:35Z</time>
      </trkpt>
      <trkpt lat="49.61197" lon="6.13789">
        <ele>242</ele>
        <time>2017-08-29T10:39:46Z</time>
      </trkpt>
      <trkpt lat="49.61197" lon="6.13785">
        <ele>242</ele>
        <time>2017-08-29T10:39:57Z</time>
      </trkpt>
      <trkpt lat="49.61198" lon="6.13784">
        <ele>243</ele>
        <time>2017-08-29T10:40:09Z</time>
      </trkpt>
      <trkpt lat="49.61199" lon="6.13783">
        <ele>243</ele>
        <time>2017-08-29T10:40:20Z</time>
      </trkpt>
      <trkpt lat="49.612" lon="6.13784">
        <ele>243</ele>
        <time>2017-08-29T10:40:30Z</time>
      </trkpt>
      <trkpt lat="49.61202" lon="6.13783">
        <ele>243</ele>
        <time>2017-08-29T10:40:42Z</time>
      </trkpt>
      <trkpt lat="49.61202" lon="6.13783">
        <ele>243</ele>
        <time>2017-08-29T10:40:53Z</time>
      </trkpt>
      <trkpt lat="49.612" lon="6.13782">
        <ele>243</ele>
        <time>2017-08-29T10:41:03Z</time>
      </trkpt>
      <trkpt lat="49.612" lon="6.13782">
        <ele>243</ele>
        <time>2017-08-29T10:41:15Z</time>
      </trkpt>
      <trkpt lat="49.61201" lon="6.13783">
        <ele>243</ele>
        <time>2017-08-29T10:41:26Z</time>
      </trkpt>
      <trkpt lat="49.61203" lon="6.13784">
        <ele>243</ele>
        <time>2017-08-29T10:41:37Z</time>
      </trkpt>
      <trkpt lat="49.61203" lon="6.13787">
        <ele>243</ele>
        <time>2017-08-29T10:41:48Z</time>
      </trkpt>
      <trkpt lat="49.61204" lon="6.13788">
        <ele>243</ele>
        <time>2017-08-29T10:41:58Z</time>
      </trkpt>
      <trkpt lat="49.61204" lon="6.13789">
        <ele>243</ele>
        <time>2017-08-29T10:42:09Z</time>
      </trkpt>
      <trkpt lat="49.61203" lon="6.13788">
        <ele>243</ele>
        <time>2017-08-29T10:42:20Z</time>
      </trkpt>
      <trkpt lat="49.61204" lon="6.13788">
        <ele>243</ele>
        <time>2017-08-29T10:42:30Z</time>
      </trkpt>
      <trkpt lat="49.61203" lon="6.13787">
        <ele>243</ele>
        <time>2017-08-29T10:42:40Z</time>
      </trkpt>
      <trkpt lat="49.61201" lon="6.13786">
        <ele>243</ele>
        <time>2017-08-29T10:42:50Z</time>
      </trkpt>
      <trkpt lat="49.612" lon="6.13785">
        <ele>243</ele>
        <time>2017-08-29T10:43:00Z</time>
      </trkpt>
      <trkpt lat="49.612" lon="6.13785">
        <ele>243</ele>
        <time>2017-08-29T10:43:11Z</time>
      </trkpt>
      <trkpt lat="49.612" lon="6.13784">
        <ele>243</ele>
        <time>2017-08-29T10:43:21Z</time>
      </trkpt>
      <trkpt lat="49.61201" lon="6.13783">
        <ele>243</ele>
        <time>2017-08-29T10:43:31Z</time>
      </trkpt>
      <trkpt lat="49.61202" lon="6.13782">
        <ele>243</ele>
        <time>2017-08-29T10:43:41Z</time>
      </trkpt>
      <trkpt lat="49.612" lon="6.13781">
        <ele>243</ele>
        <time>2017-08-29T10:43:52Z</time>
      </trkpt>
      <trkpt lat="49.61201" lon="6.13781">
        <ele>243</ele>
        <time>2017-08-29T10:44:03Z</time>
      </trkpt>
      <trkpt lat="49.61192" lon="6.13773">
        <ele>244</ele>
        <time>2017-08-29T10:44:14Z</time>
      </trkpt>
      <trkpt lat="49.6119" lon="6.13757">
        <ele>245</ele>
        <time>2017-08-29T10:44:24Z</time>
      </trkpt>
      <trkpt lat="49.61187" lon="6.13742">
        <ele>246</ele>
        <time>2017-08-29T10:44:34Z</time>
      </trkpt>
      <trkpt lat="49.61183" lon="6.13728">
        <ele>247</ele>
        <time>2017-08-29T10:44:45Z</time>
      </trkpt>
      <trkpt lat="49.61177" lon="6.13714">
        <ele>248</ele>
        <time>2017-08-29T10:44:55Z</time>
      </trkpt>
      <trkpt lat="49.61173" lon="6.13704">
        <ele>248</ele>
        <time>2017-08-29T10:45:06Z</time>
      </trkpt>
      <trkpt lat="49.61172" lon="6.13699">
        <ele>249</ele>
        <time>2017-08-29T10:45:16Z</time>
      </trkpt>
      <trkpt lat="49.61171" lon="6.13695">
        <ele>248</ele>
        <time>2017-08-29T10:45:27Z</time>
      </trkpt>
      <trkpt lat="49.61171" lon="6.13693">
        <ele>249</ele>
        <time>2017-08-29T10:45:38Z</time>
      </trkpt>
      <trkpt lat="49.61172" lon="6.13692">
        <ele>249</ele>
        <time>2017-08-29T10:45:49Z</time>
      </trkpt>
      <trkpt lat="49.61171" lon="6.13691">
        <ele>249</ele>
        <time>2017-08-29T10:45:59Z</time>
      </trkpt>
      <trkpt lat="49.61171" lon="6.13691">
        <ele>249</ele>
        <time>2017-08-29T10:46:10Z</time>
      </trkpt>
      <trkpt lat="49.61171" lon="6.13691">
        <ele>249</ele>
        <time>2017-08-29T10:46:20Z</time>
      </trkpt>
      <trkpt lat="49.61171" lon="6.13689">
        <ele>249</ele>
        <time>2017-08-29T10:46:31Z</time>
      </trkpt>
      <trkpt lat="49.61173" lon="6.13688">
        <ele>249</ele>
        <time>2017-08-29T10:46:43Z</time>
      </trkpt>
      <trkpt lat="49.61173" lon="6.13687">
        <ele>250</ele>
        <time>2017-08-29T10:46:53Z</time>
      </trkpt>
      <trkpt lat="49.61174" lon="6.13688">
        <ele>249</ele>
        <time>2017-08-29T10:47:04Z</time>
      </trkpt>
      <trkpt lat="49.61174" lon="6.13691">
        <ele>250</ele>
        <time>2017-08-29T10:47:16Z</time>
      </trkpt>
      <trkpt lat="49.61174" lon="6.13692">
        <ele>249</ele>
        <time>2017-08-29T10:47:27Z</time>
      </trkpt>
      <trkpt lat="49.61173" lon="6.13693">
        <ele>250</ele>
        <time>2017-08-29T10:47:37Z</time>
      </trkpt>
      <trkpt lat="49.61172" lon="6.13693">
        <ele>250</ele>
        <time>2017-08-29T10:47:48Z</time>
      </trkpt>
      <trkpt lat="49.61173" lon="6.13695">
        <ele>250</ele>
        <time>2017-08-29T10:47:58Z</time>
      </trkpt>
      <trkpt lat="49.61174" lon="6.13695">
        <ele>249</ele>
        <time>2017-08-29T10:48:10Z</time>
      </trkpt>
      <trkpt lat="49.61175" lon="6.13696">
        <ele>250</ele>
        <time>2017-08-29T10:48:21Z</time>
      </trkpt>
      <trkpt lat="49.61174" lon="6.13695">
        <ele>250</ele>
        <time>2017-08-29T10:48:32Z</time>
      </trkpt>
      <trkpt lat="49.61174" lon="6.13693">
        <ele>249</ele>
        <time>2017-08-29T10:48:43Z</time>
      </trkpt>
      <trkpt lat="49.61174" lon="6.13694">
        <ele>249</ele>
        <time>2017-08-29T10:48:53Z</time>
      </trkpt>
      <trkpt lat="49.61175" lon="6.13695">
        <ele>249</ele>
        <time>2017-08-29T10:49:03Z</time>
      </trkpt>
      <trkpt lat="49.61176" lon="6.13696">
        <ele>250</ele>
        <time>2017-08-29T10:49:14Z</time>
      </trkpt>
      <trkpt lat="49.61176" lon="6.13697">
        <ele>250</ele>
        <time>2017-08-29T10:49:25Z</time>
      </trkpt>
      <trkpt lat="49.61175" lon="6.13697">
        <ele>249</ele>
        <time>2017-08-29T10:49:35Z</time>
      </trkpt>
      <trkpt lat="49.61174" lon="6.13696">
        <ele>249</ele>
        <time>2017-08-29T10:49:46Z</time>
      </trkpt>
      <trkpt lat="49.61174" lon="6.13695">
        <ele>249</ele>
        <time>2017-08-29T10:50:03Z</time>
      </trkpt>
      <trkpt lat="49.61174" lon="6.13695">
        <ele>249</ele>
        <time>2017-08-29T10:50:14Z</time>
      </trkpt>
      <trkpt lat="49.61174" lon="6.13695">
        <ele>249</ele>
        <time>2017-08-29T10:50:29Z</time>
      </trkpt>
      <trkpt lat="49.61174" lon="6.13694">
        <ele>249</ele>
        <time>2017-08-29T10:50:39Z</time>
      </trkpt>
      <trkpt lat="49.61174" lon="6.13694">
        <ele>249</ele>
        <time>2017-08-29T10:50:49Z</time>
      </trkpt>
      <trkpt lat="49.61175" lon="6.13695">
        <ele>249</ele>
        <time>2017-08-29T10:51:00Z</time>
      </trkpt>
      <trkpt lat="49.61175" lon="6.13695">
        <ele>250</ele>
        <time>2017-08-29T10:51:11Z</time>
      </trkpt>
      <trkpt lat="49.61174" lon="6.13695">
        <ele>250</ele>
        <time>2017-08-29T10:51:23Z</time>
      </trkpt>
      <trkpt lat="49.61174" lon="6.13695">
        <ele>249</ele>
        <time>2017-08-29T10:51:38Z</time>
      </trkpt>
      <trkpt lat="49.61175" lon="6.13694">
        <ele>249</ele>
        <time>2017-08-29T10:51:48Z</time>
      </trkpt>
      <trkpt lat="49.61175" lon="6.13693">
        <ele>249</ele>
        <time>2017-08-29T10:51:58Z</time>
      </trkpt>
      <trkpt lat="49.61174" lon="6.13692">
        <ele>249</ele>
        <time>2017-08-29T10:52:09Z</time>
      </trkpt>
      <trkpt lat="49.61173" lon="6.13692">
        <ele>249</ele>
        <time>2017-08-29T10:52:20Z</time>
      </trkpt>
      <trkpt lat="49.61172" lon="6.13692">
        <ele>249</ele>
        <time>2017-08-29T10:52:32Z</time>
      </trkpt>
      <trkpt lat="49.61172" lon="6.13691">
        <ele>249</ele>
        <time>2017-08-29T10:52:44Z</time>
      </trkpt>
      <trkpt lat="49.61171" lon="6.13691">
        <ele>249</ele>
        <time>2017-08-29T10:52:54Z</time>
      </trkpt>
      <trkpt lat="49.61171" lon="6.13692">
        <ele>249</ele>
        <time>2017-08-29T10:53:06Z</time>
      </trkpt>
      <trkpt lat="49.61171" lon="6.13695">
        <ele>249</ele>
        <time>2017-08-29T10:53:17Z</time>
      </trkpt>
      <trkpt lat="49.61171" lon="6.13696">
        <ele>249</ele>
        <time>2017-08-29T10:53:27Z</time>
      </trkpt>
      <trkpt lat="49.61172" lon="6.13695">
        <ele>249</ele>
        <time>2017-08-29T10:53:38Z</time>
      </trkpt>
      <trkpt lat="49.61173" lon="6.13694">
        <ele>249</ele>
        <time>2017-08-29T10:53:49Z</time>
      </trkpt>
      <trkpt lat="49.61172" lon="6.13694">
        <ele>249</ele>
        <time>2017-08-29T10:54:00Z</time>
      </trkpt>
      <trkpt lat="49.61173" lon="6.13695">
        <ele>249</ele>
        <time>2017-08-29T10:54:11Z</time>
      </trkpt>
      <trkpt lat="49.61174" lon="6.13696">
        <ele>249</ele>
        <time>2017-08-29T10:54:21Z</time>
      </trkpt>
      <trkpt lat="49.61174" lon="6.13695">
        <ele>249</ele>
        <time>2017-08-29T10:54:32Z</time>
      </trkpt>
      <trkpt lat="49.61174" lon="6.13695">
        <ele>249</ele>
        <time>2017-08-29T10:54:42Z</time>
      </trkpt>
      <trkpt lat="49.61174" lon="6.13696">
        <ele>249</ele>
        <time>2017-08-29T10:54:53Z</time>
      </trkpt>
      <trkpt lat="49.61174" lon="6.13696">
        <ele>249</ele>
        <time>2017-08-29T10:55:04Z</time>
      </trkpt>
      <trkpt lat="49.61175" lon="6.13696">
        <ele>249</ele>
        <time>2017-08-29T10:55:17Z</time>
      </trkpt>
      <trkpt lat="49.61174" lon="6.13696">
        <ele>249</ele>
        <time>2017-08-29T10:55:31Z</time>
      </trkpt>
      <trkpt lat="49.61174" lon="6.13695">
        <ele>249</ele>
        <time>2017-08-29T10:55:43Z</time>
      </trkpt>
      <trkpt lat="49.61175" lon="6.13695">
        <ele>249</ele>
        <time>2017-08-29T10:55:54Z</time>
      </trkpt>
      <trkpt lat="49.61175" lon="6.13694">
        <ele>249</ele>
        <time>2017-08-29T10:56:04Z</time>
      </trkpt>
      <trkpt lat="49.61174" lon="6.13693">
        <ele>249</ele>
        <time>2017-08-29T10:56:15Z</time>
      </trkpt>
      <trkpt lat="49.61175" lon="6.13693">
        <ele>249</ele>
        <time>2017-08-29T10:56:25Z</time>
      </trkpt>
      <trkpt lat="49.61175" lon="6.13694">
        <ele>249</ele>
        <time>2017-08-29T10:56:36Z</time>
      </trkpt>
      <trkpt lat="49.61175" lon="6.13695">
        <ele>250</ele>
        <time>2017-08-29T10:56:48Z</time>
      </trkpt>
      <trkpt lat="49.61175" lon="6.13695">
        <ele>249</ele>
        <time>2017-08-29T10:56:58Z</time>
      </trkpt>
      <trkpt lat="49.61175" lon="6.13695">
        <ele>250</ele>
        <time>2017-08-29T10:57:10Z</time>
      </trkpt>
      <trkpt lat="49.61175" lon="6.13696">
        <ele>250</ele>
        <time>2017-08-29T10:57:23Z</time>
      </trkpt>
      <trkpt lat="49.61175" lon="6.13696">
        <ele>249</ele>
        <time>2017-08-29T10:57:33Z</time>
      </trkpt>
      <trkpt lat="49.61175" lon="6.13695">
        <ele>250</ele>
        <time>2017-08-29T10:57:45Z</time>
      </trkpt>
      <trkpt lat="49.61174" lon="6.13696">
        <ele>250</ele>
        <time>2017-08-29T10:57:56Z</time>
      </trkpt>
      <trkpt lat="49.61174" lon="6.13697">
        <ele>250</ele>
        <time>2017-08-29T10:58:07Z</time>
      </trkpt>
      <trkpt lat="49.61175" lon="6.13698">
        <ele>250</ele>
        <time>2017-08-29T10:58:17Z</time>
      </trkpt>
      <trkpt lat="49.61175" lon="6.13698">
        <ele>250</ele>
        <time>2017-08-29T10:58:28Z</time>
      </trkpt>
      <trkpt lat="49.61175" lon="6.13697">
        <ele>250</ele>
        <time>2017-08-29T10:58:39Z</time>
      </trkpt>
      <trkpt lat="49.61175" lon="6.13696">
        <ele>250</ele>
        <time>2017-08-29T10:58:51Z</time>
      </trkpt>
      <trkpt lat="49.61174" lon="6.13696">
        <ele>250</ele>
        <time>2017-08-29T10:59:01Z</time>
      </trkpt>
      <trkpt lat="49.61173" lon="6.13696">
        <ele>250</ele>
        <time>2017-08-29T10:59:12Z</time>
      </trkpt>
      <trkpt lat="49.61173" lon="6.13696">
        <ele>250</ele>
        <time>2017-08-29T10:59:22Z</time>
      </trkpt>
      <trkpt lat="49.61174" lon="6.13694">
        <ele>250</ele>
        <time>2017-08-29T10:59:33Z</time>
      </trkpt>
      <trkpt lat="49.61174" lon="6.13693">
        <ele>250</ele>
        <time>2017-08-29T10:59:45Z</time>
      </trkpt>
      <trkpt lat="49.61174" lon="6.13694">
        <ele>250</ele>
        <time>2017-08-29T10:59:55Z</time>
      </trkpt>
      <trkpt lat="49.61174" lon="6.13694">
        <ele>250</ele>
        <time>2017-08-29T11:00:06Z</time>
      </trkpt>
      <trkpt lat="49.61175" lon="6.13694">
        <ele>250</ele>
        <time>2017-08-29T11:00:18Z</time>
      </trkpt>
      <trkpt lat="49.61175" lon="6.13694">
        <ele>250</ele>
        <time>2017-08-29T11:00:31Z</time>
      </trkpt>
      <trkpt lat="49.61175" lon="6.13692">
        <ele>250</ele>
        <time>2017-08-29T11:00:42Z</time>
      </trkpt>
      <trkpt lat="49.61175" lon="6.13693">
        <ele>251</ele>
        <time>2017-08-29T11:00:52Z</time>
      </trkpt>
      <trkpt lat="49.61175" lon="6.13698">
        <ele>250</ele>
        <time>2017-08-29T11:01:02Z</time>
      </trkpt>
      <trkpt lat="49.61172" lon="6.13698">
        <ele>250</ele>
        <time>2017-08-29T11:01:12Z</time>
      </trkpt>
      <trkpt lat="49.61171" lon="6.137">
        <ele>250</ele>
        <time>2017-08-29T11:01:23Z</time>
      </trkpt>
      <trkpt lat="49.61169" lon="6.13702">
        <ele>250</ele>
        <time>2017-08-29T11:01:34Z</time>
      </trkpt>
      <trkpt lat="49.6117" lon="6.137">
        <ele>250</ele>
        <time>2017-08-29T11:01:44Z</time>
      </trkpt>
      <trkpt lat="49.61172" lon="6.13696">
        <ele>250</ele>
        <time>2017-08-29T11:01:55Z</time>
      </trkpt>
      <trkpt lat="49.61171" lon="6.13703">
        <ele>250</ele>
        <time>2017-08-29T11:02:06Z</time>
      </trkpt>
      <trkpt lat="49.61171" lon="6.13702">
        <ele>250</ele>
        <time>2017-08-29T11:02:16Z</time>
      </trkpt>
      <trkpt lat="49.61171" lon="6.13698">
        <ele>250</ele>
        <time>2017-08-29T11:02:26Z</time>
      </trkpt>
      <trkpt lat="49.61172" lon="6.13691">
        <ele>250</ele>
        <time>2017-08-29T11:02:38Z</time>
      </trkpt>
      <trkpt lat="49.61171" lon="6.13691">
        <ele>250</ele>
        <time>2017-08-29T11:02:48Z</time>
      </trkpt>
      <trkpt lat="49.61172" lon="6.13697">
        <ele>250</ele>
        <time>2017-08-29T11:02:58Z</time>
      </trkpt>
      <trkpt lat="49.61179" lon="6.13721">
        <ele>249</ele>
        <time>2017-08-29T11:03:09Z</time>
      </trkpt>
      <trkpt lat="49.61188" lon="6.13748">
        <ele>248</ele>
        <time>2017-08-29T11:03:20Z</time>
      </trkpt>
      <trkpt lat="49.61193" lon="6.13774">
        <ele>246</ele>
        <time>2017-08-29T11:03:30Z</time>
      </trkpt>
      <trkpt lat="49.612" lon="6.13805">
        <ele>244</ele>
        <time>2017-08-29T11:03:41Z</time>
      </trkpt>
      <trkpt lat="49.6121" lon="6.13837">
        <ele>241</ele>
        <time>2017-08-29T11:03:54Z</time>
      </trkpt>
      <trkpt lat="49.6122" lon="6.13867">
        <ele>240</ele>
        <time>2017-08-29T11:04:05Z</time>
      </trkpt>
      <trkpt lat="49.6123" lon="6.13895">
        <ele>238</ele>
        <time>2017-08-29T11:04:16Z</time>
      </trkpt>
      <trkpt lat="49.61238" lon="6.13921">
        <ele>236</ele>
        <time>2017-08-29T11:04:27Z</time>
      </trkpt>
      <trkpt lat="49.61248" lon="6.13948">
        <ele>234</ele>
        <time>2017-08-29T11:04:38Z</time>
      </trkpt>
      <trkpt lat="49.61258" lon="6.13965">
        <ele>233</ele>
        <time>2017-08-29T11:04:48Z</time>
      </trkpt>
      <trkpt lat="49.61274" lon="6.13986">
        <ele>232</ele>
        <time>2017-08-29T11:04:58Z</time>
      </trkpt>
      <trkpt lat="49.61285" lon="6.14005">
        <ele>231</ele>
        <time>2017-08-29T11:05:09Z</time>
      </trkpt>
      <trkpt lat="49.61288" lon="6.14028">
        <ele>230</ele>
        <time>2017-08-29T11:05:19Z</time>
      </trkpt>
      <trkpt lat="49.61297" lon="6.14047">
        <ele>229</ele>
        <time>2017-08-29T11:05:30Z</time>
      </trkpt>
      <trkpt lat="49.6131" lon="6.14074">
        <ele>227</ele>
        <time>2017-08-29T11:05:40Z</time>
      </trkpt>
      <trkpt lat="49.61319" lon="6.14089">
        <ele>225</ele>
        <time>2017-08-29T11:05:50Z</time>
      </trkpt>
      <trkpt lat="49.6134" lon="6.14109">
        <ele>224</ele>
        <time>2017-08-29T11:06:02Z</time>
      </trkpt>
      <trkpt lat="49.61369" lon="6.14137">
        <ele>222</ele>
        <time>2017-08-29T11:06:13Z</time>
      </trkpt>
      <trkpt lat="49.61388" lon="6.14174">
        <ele>220</ele>
        <time>2017-08-29T11:06:24Z</time>
      </trkpt>
      <trkpt lat="49.61393" lon="6.14204">
        <ele>219</ele>
        <time>2017-08-29T11:06:34Z</time>
      </trkpt>
      <trkpt lat="49.61383" lon="6.14234">
        <ele>217</ele>
        <time>2017-08-29T11:06:44Z</time>
      </trkpt>
      <trkpt lat="49.61358" lon="6.14284">
        <ele>215</ele>
        <time>2017-08-29T11:06:58Z</time>
      </trkpt>
      <trkpt lat="49.61355" lon="6.14314">
        <ele>212</ele>
        <time>2017-08-29T11:07:09Z</time>
      </trkpt>
      <trkpt lat="49.61341" lon="6.14342">
        <ele>212</ele>
        <time>2017-08-29T11:07:20Z</time>
      </trkpt>
      <trkpt lat="49.61327" lon="6.14362">
        <ele>211</ele>
        <time>2017-08-29T11:07:30Z</time>
      </trkpt>
      <trkpt lat="49.61311" lon="6.14384">
        <ele>211</ele>
        <time>2017-08-29T11:07:41Z</time>
      </trkpt>
      <trkpt lat="49.61295" lon="6.14412">
        <ele>211</ele>
        <time>2017-08-29T11:07:52Z</time>
      </trkpt>
      <trkpt lat="49.61277" lon="6.14392">
        <ele>211</ele>
        <time>2017-08-29T11:08:02Z</time>
      </trkpt>
      <trkpt lat="49.61258" lon="6.14371">
        <ele>212</ele>
        <time>2017-08-29T11:08:13Z</time>
      </trkpt>
      <trkpt lat="49.61249" lon="6.14362">
        <ele>212</ele>
        <time>2017-08-29T11:08:24Z</time>
      </trkpt>
      <trkpt lat="49.61235" lon="6.14342">
        <ele>212</ele>
        <time>2017-08-29T11:08:34Z</time>
      </trkpt>
      <trkpt lat="49.61219" lon="6.14313">
        <ele>213</ele>
        <time>2017-08-29T11:08:44Z</time>
      </trkpt>
      <trkpt lat="49.61204" lon="6.1429">
        <ele>213</ele>
        <time>2017-08-29T11:08:55Z</time>
      </trkpt>
      <trkpt lat="49.61193" lon="6.14268">
        <ele>213</ele>
        <time>2017-08-29T11:09:05Z</time>
      </trkpt>
      <trkpt lat="49.61176" lon="6.14237">
        <ele>213</ele>
        <time>2017-08-29T11:09:15Z</time>
      </trkpt>
      <trkpt lat="49.61164" lon="6.14205">
        <ele>214</ele>
        <time>2017-08-29T11:09:25Z</time>
      </trkpt>
      <trkpt lat="49.61156" lon="6.14171">
        <ele>215</ele>
        <time>2017-08-29T11:09:35Z</time>
      </trkpt>
      <trkpt lat="49.61144" lon="6.14135">
        <ele>217</ele>
        <time>2017-08-29T11:09:45Z</time>
      </trkpt>
      <trkpt lat="49.61134" lon="6.14105">
        <ele>218</ele>
        <time>2017-08-29T11:09:56Z</time>
      </trkpt>
      <trkpt lat="49.61128" lon="6.14066">
        <ele>220</ele>
        <time>2017-08-29T11:10:07Z</time>
      </trkpt>
      <trkpt lat="49.61121" lon="6.14029">
        <ele>222</ele>
        <time>2017-08-29T11:10:18Z</time>
      </trkpt>
      <trkpt lat="49.61112" lon="6.1401">
        <ele>224</ele>
        <time>2017-08-29T11:10:28Z</time>
      </trkpt>
      <trkpt lat="49.61099" lon="6.13988">
        <ele>226</ele>
        <time>2017-08-29T11:10:38Z</time>
      </trkpt>
      <trkpt lat="49.61082" lon="6.13947">
        <ele>228</ele>
        <time>2017-08-29T11:10:49Z</time>
      </trkpt>
      <trkpt lat="49.61075" lon="6.13921">
        <ele>230</ele>
        <time>2017-08-29T11:10:59Z</time>
      </trkpt>
      <trkpt lat="49.61074" lon="6.13888">
        <ele>231</ele>
        <time>2017-08-29T11:11:09Z</time>
      </trkpt>
      <trkpt lat="49.61073" lon="6.13847">
        <ele>232</ele>
        <time>2017-08-29T11:11:20Z</time>
      </trkpt>
      <trkpt lat="49.61058" lon="6.13858">
        <ele>232</ele>
        <time>2017-08-29T11:11:31Z</time>
      </trkpt>
      <trkpt lat="49.61054" lon="6.13875">
        <ele>234</ele>
        <time>2017-08-29T11:11:41Z</time>
      </trkpt>
      <trkpt lat="49.61063" lon="6.1391">
        <ele>237</ele>
        <time>2017-08-29T11:11:51Z</time>
      </trkpt>
      <trkpt lat="49.61064" lon="6.13952">
        <ele>239</ele>
        <time>2017-08-29T11:12:02Z</time>
      </trkpt>
      <trkpt lat="49.61062" lon="6.13977">
        <ele>241</ele>
        <time>2017-08-29T11:12:14Z</time>
      </trkpt>
      <trkpt lat="49.61053" lon="6.13978">
        <ele>242</ele>
        <time>2017-08-29T11:12:24Z</time>
      </trkpt>
      <trkpt lat="49.61051" lon="6.13952">
        <ele>242</ele>
        <time>2017-08-29T11:12:34Z</time>
      </trkpt>
      <trkpt lat="49.61042" lon="6.13927">
        <ele>243</ele>
        <time>2017-08-29T11:12:45Z</time>
      </trkpt>
      <trkpt lat="49.6104" lon="6.13904">
        <ele>244</ele>
        <time>2017-08-29T11:12:55Z</time>
      </trkpt>
      <trkpt lat="49.61024" lon="6.13866">
        <ele>244</ele>
        <time>2017-08-29T11:13:06Z</time>
      </trkpt>
      <trkpt lat="49.61017" lon="6.13874">
        <ele>245</ele>
        <time>2017-08-29T11:13:17Z</time>
      </trkpt>
      <trkpt lat="49.61021" lon="6.13871">
        <ele>245</ele>
        <time>2017-08-29T11:13:27Z</time>
      </trkpt>
      <trkpt lat="49.60998" lon="6.13884">
        <ele>247</ele>
        <time>2017-08-29T11:13:37Z</time>
      </trkpt>
      <trkpt lat="49.60987" lon="6.1387">
        <ele>247</ele>
        <time>2017-08-29T11:13:48Z</time>
      </trkpt>
      <trkpt lat="49.60979" lon="6.13832">
        <ele>246</ele>
        <time>2017-08-29T11:13:58Z</time>
      </trkpt>
      <trkpt lat="49.60969" lon="6.138">
        <ele>247</ele>
        <time>2017-08-29T11:14:08Z</time>
      </trkpt>
      <trkpt lat="49.60956" lon="6.13777">
        <ele>246</ele>
        <time>2017-08-29T11:14:19Z</time>
      </trkpt>
      <trkpt lat="49.60941" lon="6.1376">
        <ele>246</ele>
        <time>2017-08-29T11:14:30Z</time>
      </trkpt>
      <trkpt lat="49.60926" lon="6.13773">
        <ele>246</ele>
        <time>2017-08-29T11:14:40Z</time>
      </trkpt>
      <trkpt lat="49.60922" lon="6.13788">
        <ele>246</ele>
        <time>2017-08-29T11:14:50Z</time>
      </trkpt>
      <trkpt lat="49.60899" lon="6.13773">
        <ele>247</ele>
        <time>2017-08-29T11:15:03Z</time>
      </trkpt>
      <trkpt lat="49.60894" lon="6.13746">
        <ele>246</ele>
        <time>2017-08-29T11:15:14Z</time>
      </trkpt>
      <trkpt lat="49.60913" lon="6.13758">
        <ele>245</ele>
        <time>2017-08-29T11:15:29Z</time>
      </trkpt>
      <trkpt lat="49.60927" lon="6.13745">
        <ele>243</ele>
        <time>2017-08-29T11:15:39Z</time>
      </trkpt>
      <trkpt lat="49.60953" lon="6.13734">
        <ele>242</ele>
        <time>2017-08-29T11:15:50Z</time>
      </trkpt>
      <trkpt lat="49.60964" lon="6.13743">
        <ele>243</ele>
        <time>2017-08-29T11:16:00Z</time>
      </trkpt>
      <trkpt lat="49.6097" lon="6.1376">
        <ele>244</ele>
        <time>2017-08-29T11:16:10Z</time>
      </trkpt>
      <trkpt lat="49.60972" lon="6.13773">
        <ele>245</ele>
        <time>2017-08-29T11:16:20Z</time>
      </trkpt>
      <trkpt lat="49.6098" lon="6.13805">
        <ele>246</ele>
        <time>2017-08-29T11:16:31Z</time>
      </trkpt>
      <trkpt lat="49.60986" lon="6.13842">
        <ele>247</ele>
        <time>2017-08-29T11:16:41Z</time>
      </trkpt>
      <trkpt lat="49.60994" lon="6.13865">
        <ele>247</ele>
        <time>2017-08-29T11:16:52Z</time>
      </trkpt>
      <trkpt lat="49.61" lon="6.13854">
        <ele>247</ele>
        <time>2017-08-29T11:17:02Z</time>
      </trkpt>
      <trkpt lat="49.61005" lon="6.13861">
        <ele>246</ele>
        <time>2017-08-29T11:17:12Z</time>
      </trkpt>
      <trkpt lat="49.6102" lon="6.13879">
        <ele>245</ele>
        <time>2017-08-29T11:17:22Z</time>
      </trkpt>
      <trkpt lat="49.61036" lon="6.13908">
        <ele>245</ele>
        <time>2017-08-29T11:17:33Z</time>
      </trkpt>
      <trkpt lat="49.61048" lon="6.13925">
        <ele>244</ele>
        <time>2017-08-29T11:17:45Z</time>
      </trkpt>
      <trkpt lat="49.61054" lon="6.13957">
        <ele>244</ele>
        <time>2017-08-29T11:17:55Z</time>
      </trkpt>
      <trkpt lat="49.61057" lon="6.13979">
        <ele>243</ele>
        <time>2017-08-29T11:18:06Z</time>
      </trkpt>
      <trkpt lat="49.61073" lon="6.13987">
        <ele>243</ele>
        <time>2017-08-29T11:18:17Z</time>
      </trkpt>
      <trkpt lat="49.6106" lon="6.13981">
        <ele>243</ele>
        <time>2017-08-29T11:18:28Z</time>
      </trkpt>
      <trkpt lat="49.61063" lon="6.13952">
        <ele>242</ele>
        <time>2017-08-29T11:18:39Z</time>
      </trkpt>
      <trkpt lat="49.61077" lon="6.13909">
        <ele>238</ele>
        <time>2017-08-29T11:18:49Z</time>
      </trkpt>
      <trkpt lat="49.61086" lon="6.13872">
        <ele>235</ele>
        <time>2017-08-29T11:18:59Z</time>
      </trkpt>
      <trkpt lat="49.61082" lon="6.13847">
        <ele>234</ele>
        <time>2017-08-29T11:19:10Z</time>
      </trkpt>
      <trkpt lat="49.6107" lon="6.13837">
        <ele>233</ele>
        <time>2017-08-29T11:19:20Z</time>
      </trkpt>
      <trkpt lat="49.6107" lon="6.13824">
        <ele>232</ele>
        <time>2017-08-29T11:19:30Z</time>
      </trkpt>
      <trkpt lat="49.61066" lon="6.13801">
        <ele>231</ele>
        <time>2017-08-29T11:19:40Z</time>
      </trkpt>
      <trkpt lat="49.61047" lon="6.13758">
        <ele>230</ele>
        <time>2017-08-29T11:19:51Z</time>
      </trkpt>
      <trkpt lat="49.61028" lon="6.13728">
        <ele>228</ele>
        <time>2017-08-29T11:20:01Z</time>
      </trkpt>
      <trkpt lat="49.61025" lon="6.13704">
        <ele>226</ele>
        <time>2017-08-29T11:20:14Z</time>
      </trkpt>
      <trkpt lat="49.61005" lon="6.13684">
        <ele>224</ele>
        <time>2017-08-29T11:20:24Z</time>
      </trkpt>
      <trkpt lat="49.60981" lon="6.13656">
        <ele>222</ele>
        <time>2017-08-29T11:20:34Z</time>
      </trkpt>
      <trkpt lat="49.60987" lon="6.13638">
        <ele>221</ele>
        <time>2017-08-29T11:20:44Z</time>
      </trkpt>
      <trkpt lat="49.60987" lon="6.13642">
        <ele>220</ele>
        <time>2017-08-29T11:20:55Z</time>
      </trkpt>
      <trkpt lat="49.60989" lon="6.13645">
        <ele>220</ele>
        <time>2017-08-29T11:21:05Z</time>
      </trkpt>
      <trkpt lat="49.60995" lon="6.13647">
        <ele>220</ele>
        <time>2017-08-29T11:21:15Z</time>
      </trkpt>
      <trkpt lat="49.60993" lon="6.13641">
        <ele>220</ele>
        <time>2017-08-29T11:21:28Z</time>
      </trkpt>
      <trkpt lat="49.60982" lon="6.13627">
        <ele>220</ele>
        <time>2017-08-29T11:21:39Z</time>
      </trkpt>
      <trkpt lat="49.6098" lon="6.13625">
        <ele>220</ele>
        <time>2017-08-29T11:21:49Z</time>
      </trkpt>
      <trkpt lat="49.60983" lon="6.13631">
        <ele>220</ele>
        <time>2017-08-29T11:21:59Z</time>
      </trkpt>
      <trkpt lat="49.609" lon="6.13579">
        <ele>215</ele>
        <time>2017-08-29T11:22:32Z</time>
      </trkpt>
      <trkpt lat="49.60884" lon="6.13603">
        <ele>215</ele>
        <time>2017-08-29T11:22:43Z</time>
      </trkpt>
      <trkpt lat="49.60879" lon="6.13608">
        <ele>215</ele>
        <time>2017-08-29T11:22:54Z</time>
      </trkpt>
      <trkpt lat="49.60859" lon="6.13595">
        <ele>216</ele>
        <time>2017-08-29T11:23:04Z</time>
      </trkpt>
      <trkpt lat="49.60857" lon="6.13601">
        <ele>216</ele>
        <time>2017-08-29T11:23:14Z</time>
      </trkpt>
      <trkpt lat="49.60848" lon="6.13567">
        <ele>216</ele>
        <time>2017-08-29T11:23:25Z</time>
      </trkpt>
      <trkpt lat="49.60849" lon="6.13545">
        <ele>216</ele>
        <time>2017-08-29T11:23:36Z</time>
      </trkpt>
      <trkpt lat="49.6085" lon="6.13527">
        <ele>217</ele>
        <time>2017-08-29T11:23:46Z</time>
      </trkpt>
      <trkpt lat="49.60833" lon="6.13553">
        <ele>217</ele>
        <time>2017-08-29T11:23:57Z</time>
      </trkpt>
      <trkpt lat="49.60766" lon="6.13625">
        <ele>217</ele>
        <time>2017-08-29T11:24:23Z</time>
      </trkpt>
      <trkpt lat="49.60738" lon="6.1365">
        <ele>217</ele>
        <time>2017-08-29T11:24:34Z</time>
      </trkpt>
      <trkpt lat="49.60722" lon="6.13667">
        <ele>217</ele>
        <time>2017-08-29T11:24:44Z</time>
      </trkpt>
      <trkpt lat="49.60707" lon="6.13691">
        <ele>218</ele>
        <time>2017-08-29T11:24:55Z</time>
      </trkpt>
      <trkpt lat="49.60685" lon="6.13705">
        <ele>219</ele>
        <time>2017-08-29T11:25:05Z</time>
      </trkpt>
      <trkpt lat="49.60661" lon="6.1369">
        <ele>221</ele>
        <time>2017-08-29T11:25:15Z</time>
      </trkpt>
      <trkpt lat="49.6064" lon="6.13664">
        <ele>224</ele>
        <time>2017-08-29T11:25:26Z</time>
      </trkpt>
      <trkpt lat="49.60616" lon="6.13637">
        <ele>226</ele>
        <time>2017-08-29T11:25:36Z</time>
      </trkpt>
      <trkpt lat="49.60596" lon="6.13599">
        <ele>228</ele>
        <time>2017-08-29T11:25:46Z</time>
      </trkpt>
      <trkpt lat="49.60582" lon="6.13561">
        <ele>231</ele>
        <time>2017-08-29T11:25:57Z</time>
      </trkpt>
      <trkpt lat="49.60562" lon="6.13511">
        <ele>233</ele>
        <time>2017-08-29T11:26:08Z</time>
      </trkpt>
      <trkpt lat="49.60538" lon="6.13469">
        <ele>235</ele>
        <time>2017-08-29T11:26:18Z</time>
      </trkpt>
      <trkpt lat="49.60542" lon="6.13425">
        <ele>237</ele>
        <time>2017-08-29T11:26:29Z</time>
      </trkpt>
      <trkpt lat="49.60534" lon="6.13387">
        <ele>239</ele>
        <time>2017-08-29T11:26:39Z</time>
      </trkpt>
      <trkpt lat="49.60524" lon="6.13337">
        <ele>241</ele>
        <time>2017-08-29T11:26:49Z</time>
      </trkpt>
      <trkpt lat="49.60526" lon="6.13303">
        <ele>243</ele>
        <time>2017-08-29T11:26:59Z</time>
      </trkpt>
      <trkpt lat="49.60537" lon="6.13247">
        <ele>245</ele>
        <time>2017-08-29T11:27:09Z</time>
      </trkpt>
      <trkpt lat="49.60552" lon="6.13211">
        <ele>247</ele>
        <time>2017-08-29T11:27:20Z</time>
      </trkpt>
      <trkpt lat="49.6056" lon="6.1317">
        <ele>248</ele>
        <time>2017-08-29T11:27:31Z</time>
      </trkpt>
      <trkpt lat="49.60535" lon="6.13173">
        <ele>249</ele>
        <time>2017-08-29T11:27:41Z</time>
      </trkpt>
      <trkpt lat="49.60523" lon="6.1319">
        <ele>252</ele>
        <time>2017-08-29T11:27:52Z</time>
      </trkpt>
      <trkpt lat="49.60508" lon="6.1324">
        <ele>254</ele>
        <time>2017-08-29T11:28:02Z</time>
      </trkpt>
      <trkpt lat="49.60503" lon="6.13266">
        <ele>257</ele>
        <time>2017-08-29T11:28:13Z</time>
      </trkpt>
      <trkpt lat="49.60504" lon="6.13273">
        <ele>256</ele>
        <time>2017-08-29T11:28:23Z</time>
      </trkpt>
      <trkpt lat="49.605" lon="6.13269">
        <ele>256</ele>
        <time>2017-08-29T11:28:34Z</time>
      </trkpt>
      <trkpt lat="49.60486" lon="6.1327">
        <ele>257</ele>
        <time>2017-08-29T11:28:45Z</time>
      </trkpt>
      <trkpt lat="49.60472" lon="6.13287">
        <ele>256</ele>
        <time>2017-08-29T11:28:55Z</time>
      </trkpt>
      <trkpt lat="49.60461" lon="6.13331">
        <ele>256</ele>
        <time>2017-08-29T11:29:05Z</time>
      </trkpt>
      <trkpt lat="49.60492" lon="6.1335">
        <ele>255</ele>
        <time>2017-08-29T11:29:16Z</time>
      </trkpt>
      <trkpt lat="49.60532" lon="6.13363">
        <ele>256</ele>
        <time>2017-08-29T11:29:26Z</time>
      </trkpt>
      <trkpt lat="49.60563" lon="6.13364">
        <ele>256</ele>
        <time>2017-08-29T11:29:37Z</time>
      </trkpt>
      <trkpt lat="49.60598" lon="6.13365">
        <ele>257</ele>
        <time>2017-08-29T11:29:47Z</time>
      </trkpt>
      <trkpt lat="49.60632" lon="6.13366">
        <ele>257</ele>
        <time>2017-08-29T11:29:57Z</time>
      </trkpt>
      <trkpt lat="49.60662" lon="6.13365">
        <ele>258</ele>
        <time>2017-08-29T11:30:08Z</time>
      </trkpt>
      <trkpt lat="49.60696" lon="6.13351">
        <ele>258</ele>
        <time>2017-08-29T11:30:18Z</time>
      </trkpt>
      <trkpt lat="49.60725" lon="6.13337">
        <ele>259</ele>
        <time>2017-08-29T11:30:28Z</time>
      </trkpt>
      <trkpt lat="49.60747" lon="6.1332">
        <ele>260</ele>
        <time>2017-08-29T11:30:39Z</time>
      </trkpt>
      <trkpt lat="49.60751" lon="6.133">
        <ele>261</ele>
        <time>2017-08-29T11:30:49Z</time>
      </trkpt>
      <trkpt lat="49.60775" lon="6.13281">
        <ele>261</ele>
        <time>2017-08-29T11:31:00Z</time>
      </trkpt>
      <trkpt lat="49.608" lon="6.13264">
        <ele>263</ele>
        <time>2017-08-29T11:31:10Z</time>
      </trkpt>
      <trkpt lat="49.60828" lon="6.13231">
        <ele>263</ele>
        <time>2017-08-29T11:31:20Z</time>
      </trkpt>
      <trkpt lat="49.60853" lon="6.13185">
        <ele>264</ele>
        <time>2017-08-29T11:31:30Z</time>
      </trkpt>
      <trkpt lat="49.60876" lon="6.13143">
        <ele>264</ele>
        <time>2017-08-29T11:31:40Z</time>
      </trkpt>
      <trkpt lat="49.609" lon="6.13113">
        <ele>265</ele>
        <time>2017-08-29T11:31:51Z</time>
      </trkpt>
      <trkpt lat="49.6092" lon="6.13082">
        <ele>266</ele>
        <time>2017-08-29T11:32:01Z</time>
      </trkpt>
      <trkpt lat="49.60935" lon="6.13049">
        <ele>266</ele>
        <time>2017-08-29T11:32:11Z</time>
      </trkpt>
      <trkpt lat="49.60949" lon="6.13006">
        <ele>266</ele>
        <time>2017-08-29T11:32:21Z</time>
      </trkpt>
      <trkpt lat="49.60963" lon="6.12978">
        <ele>267</ele>
        <time>2017-08-29T11:32:32Z</time>
      </trkpt>
      <trkpt lat="49.60965" lon="6.12939">
        <ele>267</ele>
        <time>2017-08-29T11:32:42Z</time>
      </trkpt>
      <trkpt lat="49.60961" lon="6.12906">
        <ele>266</ele>
        <time>2017-08-29T11:32:53Z</time>
      </trkpt>
      <trkpt lat="49.60963" lon="6.12867">
        <ele>266</ele>
        <time>2017-08-29T11:33:03Z</time>
      </trkpt>
      <trkpt lat="49.6096" lon="6.12866">
        <ele>266</ele>
        <time>2017-08-29T11:33:14Z</time>
      </trkpt>
      <trkpt lat="49.60957" lon="6.12845">
        <ele>266</ele>
        <time>2017-08-29T11:33:24Z</time>
      </trkpt>
      <trkpt lat="49.60971" lon="6.12818">
        <ele>266</ele>
        <time>2017-08-29T11:33:35Z</time>
      </trkpt>
      <trkpt lat="49.60974" lon="6.12792">
        <ele>266</ele>
        <time>2017-08-29T11:33:45Z</time>
      </trkpt>
      <trkpt lat="49.60984" lon="6.12812">
        <ele>266</ele>
        <time>2017-08-29T11:33:55Z</time>
      </trkpt>
      <trkpt lat="49.60993" lon="6.12864">
        <ele>266</ele>
        <time>2017-08-29T11:34:06Z</time>
      </trkpt>
      <trkpt lat="49.60999" lon="6.12914">
        <ele>266</ele>
        <time>2017-08-29T11:34:16Z</time>
      </trkpt>
      <trkpt lat="49.61004" lon="6.12965">
        <ele>267</ele>
        <time>2017-08-29T11:34:27Z</time>
      </trkpt>
      <trkpt lat="49.61012" lon="6.13013">
        <ele>266</ele>
        <time>2017-08-29T11:34:37Z</time>
      </trkpt>
      <trkpt lat="49.61008" lon="6.13064">
        <ele>267</ele>
        <time>2017-08-29T11:34:47Z</time>
      </trkpt>
      <trkpt lat="49.61013" lon="6.13123">
        <ele>268</ele>
        <time>2017-08-29T11:34:58Z</time>
      </trkpt>
      <trkpt lat="49.61036" lon="6.13193">
        <ele>268</ele>
        <time>2017-08-29T11:35:09Z</time>
      </trkpt>
      <trkpt lat="49.61032" lon="6.13227">
        <ele>269</ele>
        <time>2017-08-29T11:35:20Z</time>
      </trkpt>
      <trkpt lat="49.61034" lon="6.13237">
        <ele>269</ele>
        <time>2017-08-29T11:35:31Z</time>
      </trkpt>
      <trkpt lat="49.61042" lon="6.13203">
        <ele>271</ele>
        <time>2017-08-29T11:35:41Z</time>
      </trkpt>
      <trkpt lat="49.61055" lon="6.13182">
        <ele>271</ele>
        <time>2017-08-29T11:35:51Z</time>
      </trkpt>
      <trkpt lat="49.61074" lon="6.13178">
        <ele>272</ele>
        <time>2017-08-29T11:36:02Z</time>
      </trkpt>
      <trkpt lat="49.61095" lon="6.13178">
        <ele>273</ele>
        <time>2017-08-29T11:36:12Z</time>
      </trkpt>
      <trkpt lat="49.61102" lon="6.13184">
        <ele>273</ele>
        <time>2017-08-29T11:36:23Z</time>
      </trkpt>
      <trkpt lat="49.61124" lon="6.13154">
        <ele>274</ele>
        <time>2017-08-29T11:36:40Z</time>
      </trkpt>
      <trkpt lat="49.61135" lon="6.1319">
        <ele>274</ele>
        <time>2017-08-29T11:36:51Z</time>
      </trkpt>
      <trkpt lat="49.61156" lon="6.13333">
        <ele>275</ele>
        <time>2017-08-29T11:37:08Z</time>
      </trkpt>
      <trkpt lat="49.61197" lon="6.1325">
        <ele>275</ele>
        <time>2017-08-29T11:37:19Z</time>
      </trkpt>
      <trkpt lat="49.61218" lon="6.1318">
        <ele>276</ele>
        <time>2017-08-29T11:37:29Z</time>
      </trkpt>
      <trkpt lat="49.61243" lon="6.13129">
        <ele>275</ele>
        <time>2017-08-29T11:37:39Z</time>
      </trkpt>
      <trkpt lat="49.61284" lon="6.13126">
        <ele>275</ele>
        <time>2017-08-29T11:37:49Z</time>
      </trkpt>
      <trkpt lat="49.61322" lon="6.13121">
        <ele>274</ele>
        <time>2017-08-29T11:38:00Z</time>
      </trkpt>
      <trkpt lat="49.61362" lon="6.13094">
        <ele>273</ele>
        <time>2017-08-29T11:38:11Z</time>
      </trkpt>
      <trkpt lat="49.61382" lon="6.13095">
        <ele>271</ele>
        <time>2017-08-29T11:38:22Z</time>
      </trkpt>
      <trkpt lat="49.61372" lon="6.13141">
        <ele>269</ele>
        <time>2017-08-29T11:38:33Z</time>
      </trkpt>
      <trkpt lat="49.61349" lon="6.1318">
        <ele>267</ele>
        <time>2017-08-29T11:38:43Z</time>
      </trkpt>
      <trkpt lat="49.61335" lon="6.13212">
        <ele>264</ele>
        <time>2017-08-29T11:38:54Z</time>
      </trkpt>
      <trkpt lat="49.61304" lon="6.13242">
        <ele>261</ele>
        <time>2017-08-29T11:39:04Z</time>
      </trkpt>
      <trkpt lat="49.61288" lon="6.13268">
        <ele>257</ele>
        <time>2017-08-29T11:39:14Z</time>
      </trkpt>
      <trkpt lat="49.61271" lon="6.133">
        <ele>254</ele>
        <time>2017-08-29T11:39:24Z</time>
      </trkpt>
      <trkpt lat="49.61266" lon="6.13333">
        <ele>253</ele>
        <time>2017-08-29T11:39:34Z</time>
      </trkpt>
      <trkpt lat="49.61249" lon="6.13351">
        <ele>254</ele>
        <time>2017-08-29T11:39:45Z</time>
      </trkpt>
      <trkpt lat="49.61234" lon="6.13366">
        <ele>254</ele>
        <time>2017-08-29T11:39:55Z</time>
      </trkpt>
      <trkpt lat="49.61216" lon="6.13388">
        <ele>255</ele>
        <time>2017-08-29T11:40:06Z</time>
      </trkpt>
      <trkpt lat="49.61208" lon="6.13413">
        <ele>256</ele>
        <time>2017-08-29T11:40:16Z</time>
      </trkpt>
      <trkpt lat="49.61196" lon="6.13447">
        <ele>257</ele>
        <time>2017-08-29T11:40:27Z</time>
      </trkpt>
      <trkpt lat="49.61179" lon="6.13485">
        <ele>258</ele>
        <time>2017-08-29T11:40:37Z</time>
      </trkpt>
      <trkpt lat="49.61168" lon="6.13513">
        <ele>259</ele>
        <time>2017-08-29T11:40:48Z</time>
      </trkpt>
      <trkpt lat="49.6115" lon="6.13552">
        <ele>260</ele>
        <time>2017-08-29T11:40:59Z</time>
      </trkpt>
      <trkpt lat="49.61157" lon="6.13586">
        <ele>258</ele>
        <time>2017-08-29T11:41:09Z</time>
      </trkpt>
      <trkpt lat="49.61165" lon="6.13625">
        <ele>258</ele>
        <time>2017-08-29T11:41:19Z</time>
      </trkpt>
      <trkpt lat="49.61169" lon="6.13668">
        <ele>256</ele>
        <time>2017-08-29T11:41:30Z</time>
      </trkpt>
      <trkpt lat="49.61171" lon="6.13696">
        <ele>255</ele>
        <time>2017-08-29T11:41:41Z</time>
      </trkpt>
      <trkpt lat="49.61172" lon="6.13709">
        <ele>255</ele>
        <time>2017-08-29T11:41:52Z</time>
      </trkpt>
      <trkpt lat="49.61171" lon="6.1372">
        <ele>254</ele>
        <time>2017-08-29T11:42:02Z</time>
      </trkpt>
      <trkpt lat="49.61173" lon="6.13709">
        <ele>255</ele>
        <time>2017-08-29T11:42:13Z</time>
      </trkpt>
      <trkpt lat="49.61174" lon="6.13704">
        <ele>255</ele>
        <time>2017-08-29T11:42:23Z</time>
      </trkpt>
      <trkpt lat="49.61176" lon="6.13706">
        <ele>255</ele>
        <time>2017-08-29T11:42:33Z</time>
      </trkpt>
      <trkpt lat="49.61171" lon="6.13707">
        <ele>254</ele>
        <time>2017-08-29T11:42:43Z</time>
      </trkpt>
      <trkpt lat="49.6117" lon="6.13706">
        <ele>254</ele>
        <time>2017-08-29T11:42:54Z</time>
      </trkpt>
      <trkpt lat="49.61169" lon="6.13704">
        <ele>255</ele>
        <time>2017-08-29T11:43:04Z</time>
      </trkpt>
      <trkpt lat="49.61168" lon="6.13706">
        <ele>255</ele>
        <time>2017-08-29T11:43:14Z</time>
      </trkpt>
      <trkpt lat="49.61168" lon="6.13705">
        <ele>254</ele>
        <time>2017-08-29T11:43:24Z</time>
      </trkpt>
      <trkpt lat="49.61169" lon="6.137">
        <ele>255</ele>
        <time>2017-08-29T11:43:34Z</time>
      </trkpt>
      <trkpt lat="49.61169" lon="6.13693">
        <ele>253</ele>
        <time>2017-08-29T11:43:45Z</time>
      </trkpt>
      <trkpt lat="49.61168" lon="6.13685">
        <ele>252</ele>
        <time>2017-08-29T11:43:55Z</time>
      </trkpt>
      <trkpt lat="49.61195" lon="6.13595">
        <ele>252</ele>
        <time>2017-08-29T11:44:56Z</time>
      </trkpt>
      <trkpt lat="49.61165" lon="6.13677">
        <ele>253</ele>
        <time>2017-08-29T11:45:07Z</time>
      </trkpt>
      <trkpt lat="49.61166" lon="6.13694">
        <ele>253</ele>
        <time>2017-08-29T11:45:17Z</time>
      </trkpt>
      <trkpt lat="49.61169" lon="6.13679">
        <ele>252</ele>
        <time>2017-08-29T11:45:28Z</time>
      </trkpt>
      <trkpt lat="49.61171" lon="6.13671">
        <ele>253</ele>
        <time>2017-08-29T11:45:51Z</time>
      </trkpt>
      <trkpt lat="49.6117" lon="6.13685">
        <ele>253</ele>
        <time>2017-08-29T11:46:01Z</time>
      </trkpt>
      <trkpt lat="49.61169" lon="6.13688">
        <ele>253</ele>
        <time>2017-08-29T11:46:12Z</time>
      </trkpt>
      <trkpt lat="49.61167" lon="6.13685">
        <ele>253</ele>
        <time>2017-08-29T11:46:22Z</time>
      </trkpt>
      <trkpt lat="49.61171" lon="6.13695">
        <ele>254</ele>
        <time>2017-08-29T11:46:33Z</time>
      </trkpt>
      <trkpt lat="49.61174" lon="6.13709">
        <ele>255</ele>
        <time>2017-08-29T11:46:44Z</time>
      </trkpt>
      <trkpt lat="49.61173" lon="6.13718">
        <ele>255</ele>
        <time>2017-08-29T11:46:54Z</time>
      </trkpt>
      <trkpt lat="49.61173" lon="6.13725">
        <ele>256</ele>
        <time>2017-08-29T11:47:05Z</time>
      </trkpt>
      <trkpt lat="49.61174" lon="6.13731">
        <ele>257</ele>
        <time>2017-08-29T11:47:15Z</time>
      </trkpt>
      <trkpt lat="49.61172" lon="6.13729">
        <ele>257</ele>
        <time>2017-08-29T11:47:25Z</time>
      </trkpt>
      <trkpt lat="49.61171" lon="6.13732">
        <ele>257</ele>
        <time>2017-08-29T11:47:36Z</time>
      </trkpt>
      <trkpt lat="49.61171" lon="6.13734">
        <ele>257</ele>
        <time>2017-08-29T11:47:49Z</time>
      </trkpt>
      <trkpt lat="49.61172" lon="6.13734">
        <ele>257</ele>
        <time>2017-08-29T11:47:59Z</time>
      </trkpt>
      <trkpt lat="49.61172" lon="6.13736">
        <ele>257</ele>
        <time>2017-08-29T11:48:10Z</time>
      </trkpt>
      <trkpt lat="49.61171" lon="6.13736">
        <ele>257</ele>
        <time>2017-08-29T11:48:20Z</time>
      </trkpt>
      <trkpt lat="49.6117" lon="6.13734">
        <ele>257</ele>
        <time>2017-08-29T11:48:30Z</time>
      </trkpt>
      <trkpt lat="49.61171" lon="6.13731">
        <ele>257</ele>
        <time>2017-08-29T11:48:40Z</time>
      </trkpt>
      <trkpt lat="49.61173" lon="6.13729">
        <ele>257</ele>
        <time>2017-08-29T11:48:50Z</time>
      </trkpt>
      <trkpt lat="49.61173" lon="6.13727">
        <ele>257</ele>
        <time>2017-08-29T11:49:01Z</time>
      </trkpt>
      <trkpt lat="49.61171" lon="6.1372">
        <ele>256</ele>
        <time>2017-08-29T11:49:11Z</time>
      </trkpt>
      <trkpt lat="49.61168" lon="6.13712">
        <ele>257</ele>
        <time>2017-08-29T11:49:21Z</time>
      </trkpt>
      <trkpt lat="49.61166" lon="6.1371">
        <ele>256</ele>
        <time>2017-08-29T11:49:32Z</time>
      </trkpt>
      <trkpt lat="49.61165" lon="6.13706">
        <ele>256</ele>
        <time>2017-08-29T11:49:43Z</time>
      </trkpt>
      <trkpt lat="49.61162" lon="6.13696">
        <ele>257</ele>
        <time>2017-08-29T11:49:53Z</time>
      </trkpt>
      <trkpt lat="49.61161" lon="6.13685">
        <ele>257</ele>
        <time>2017-08-29T11:50:04Z</time>
      </trkpt>
      <trkpt lat="49.61159" lon="6.13679">
        <ele>256</ele>
        <time>2017-08-29T11:50:14Z</time>
      </trkpt>
      <trkpt lat="49.61158" lon="6.13672">
        <ele>257</ele>
        <time>2017-08-29T11:50:25Z</time>
      </trkpt>
      <trkpt lat="49.61153" lon="6.13658">
        <ele>258</ele>
        <time>2017-08-29T11:50:35Z</time>
      </trkpt>
      <trkpt lat="49.6115" lon="6.13646">
        <ele>259</ele>
        <time>2017-08-29T11:50:45Z</time>
      </trkpt>
      <trkpt lat="49.61146" lon="6.13634">
        <ele>259</ele>
        <time>2017-08-29T11:50:56Z</time>
      </trkpt>
      <trkpt lat="49.61141" lon="6.13626">
        <ele>259</ele>
        <time>2017-08-29T11:51:07Z</time>
      </trkpt>
      <trkpt lat="49.6114" lon="6.13623">
        <ele>259</ele>
        <time>2017-08-29T11:51:18Z</time>
      </trkpt>
      <trkpt lat="49.61143" lon="6.13628">
        <ele>259</ele>
        <time>2017-08-29T11:51:28Z</time>
      </trkpt>
      <trkpt lat="49.61125" lon="6.13557">
        <ele>260</ele>
        <time>2017-08-29T11:51:40Z</time>
      </trkpt>
      <trkpt lat="49.61131" lon="6.13583">
        <ele>259</ele>
        <time>2017-08-29T11:51:50Z</time>
      </trkpt>
      <trkpt lat="49.61136" lon="6.13599">
        <ele>260</ele>
        <time>2017-08-29T11:52:01Z</time>
      </trkpt>
      <trkpt lat="49.61139" lon="6.13612">
        <ele>260</ele>
        <time>2017-08-29T11:52:11Z</time>
      </trkpt>
      <trkpt lat="49.61142" lon="6.13622">
        <ele>260</ele>
        <time>2017-08-29T11:52:21Z</time>
      </trkpt>
      <trkpt lat="49.61146" lon="6.13629">
        <ele>259</ele>
        <time>2017-08-29T11:52:31Z</time>
      </trkpt>
      <trkpt lat="49.61149" lon="6.13631">
        <ele>260</ele>
        <time>2017-08-29T11:52:41Z</time>
      </trkpt>
      <trkpt lat="49.61152" lon="6.13628">
        <ele>258</ele>
        <time>2017-08-29T11:52:52Z</time>
      </trkpt>
      <trkpt lat="49.61155" lon="6.13624">
        <ele>258</ele>
        <time>2017-08-29T11:53:03Z</time>
      </trkpt>
      <trkpt lat="49.61157" lon="6.13627">
        <ele>258</ele>
        <time>2017-08-29T11:53:14Z</time>
      </trkpt>
      <trkpt lat="49.61157" lon="6.13636">
        <ele>257</ele>
        <time>2017-08-29T11:53:25Z</time>
      </trkpt>
      <trkpt lat="49.61163" lon="6.13645">
        <ele>257</ele>
        <time>2017-08-29T11:53:35Z</time>
      </trkpt>
      <trkpt lat="49.61166" lon="6.13652">
        <ele>259</ele>
        <time>2017-08-29T11:53:45Z</time>
      </trkpt>
      <trkpt lat="49.61166" lon="6.13655">
        <ele>258</ele>
        <time>2017-08-29T11:53:55Z</time>
      </trkpt>
      <trkpt lat="49.61171" lon="6.13656">
        <ele>259</ele>
        <time>2017-08-29T11:54:06Z</time>
      </trkpt>
      <trkpt lat="49.61174" lon="6.13658">
        <ele>259</ele>
        <time>2017-08-29T11:54:17Z</time>
      </trkpt>
      <trkpt lat="49.61177" lon="6.13668">
        <ele>258</ele>
        <time>2017-08-29T11:54:27Z</time>
      </trkpt>
      <trkpt lat="49.61201" lon="6.13678">
        <ele>260</ele>
        <time>2017-08-29T11:54:38Z</time>
      </trkpt>
      <trkpt lat="49.61198" lon="6.13671">
        <ele>262</ele>
        <time>2017-08-29T11:54:49Z</time>
      </trkpt>
      <trkpt lat="49.61191" lon="6.13664">
        <ele>262</ele>
        <time>2017-08-29T11:55:00Z</time>
      </trkpt>
      <trkpt lat="49.61186" lon="6.1366">
        <ele>262</ele>
        <time>2017-08-29T11:55:10Z</time>
      </trkpt>
      <trkpt lat="49.61185" lon="6.13657">
        <ele>262</ele>
        <time>2017-08-29T11:55:20Z</time>
      </trkpt>
      <trkpt lat="49.61182" lon="6.13655">
        <ele>262</ele>
        <time>2017-08-29T11:55:31Z</time>
      </trkpt>
      <trkpt lat="49.6118" lon="6.13656">
        <ele>262</ele>
        <time>2017-08-29T11:55:42Z</time>
      </trkpt>
      <trkpt lat="49.6118" lon="6.13656">
        <ele>262</ele>
        <time>2017-08-29T11:55:52Z</time>
      </trkpt>
      <trkpt lat="49.61183" lon="6.13657">
        <ele>262</ele>
        <time>2017-08-29T11:56:04Z</time>
      </trkpt>
      <trkpt lat="49.61184" lon="6.1366">
        <ele>262</ele>
        <time>2017-08-29T11:56:15Z</time>
      </trkpt>
      <trkpt lat="49.61184" lon="6.13663">
        <ele>263</ele>
        <time>2017-08-29T11:56:25Z</time>
      </trkpt>
      <trkpt lat="49.61185" lon="6.13663">
        <ele>262</ele>
        <time>2017-08-29T11:56:35Z</time>
      </trkpt>
      <trkpt lat="49.61185" lon="6.13665">
        <ele>262</ele>
        <time>2017-08-29T11:56:46Z</time>
      </trkpt>
      <trkpt lat="49.61181" lon="6.13666">
        <ele>260</ele>
        <time>2017-08-29T11:56:57Z</time>
      </trkpt>
      <trkpt lat="49.61199" lon="6.13653">
        <ele>258</ele>
        <time>2017-08-29T11:57:08Z</time>
      </trkpt>
      <trkpt lat="49.61203" lon="6.13617">
        <ele>258</ele>
        <time>2017-08-29T11:57:18Z</time>
      </trkpt>
      <trkpt lat="49.61145" lon="6.13707">
        <ele>255</ele>
        <time>2017-08-29T11:58:20Z</time>
      </trkpt>
      <trkpt lat="49.61166" lon="6.13703">
        <ele>255</ele>
        <time>2017-08-29T11:58:30Z</time>
      </trkpt>
      <trkpt lat="49.61174" lon="6.13709">
        <ele>256</ele>
        <time>2017-08-29T11:58:41Z</time>
      </trkpt>
      <trkpt lat="49.61179" lon="6.13721">
        <ele>256</ele>
        <time>2017-08-29T11:58:51Z</time>
      </trkpt>
      <trkpt lat="49.61179" lon="6.13732">
        <ele>255</ele>
        <time>2017-08-29T11:59:01Z</time>
      </trkpt>
      <trkpt lat="49.61183" lon="6.13732">
        <ele>255</ele>
        <time>2017-08-29T11:59:12Z</time>
      </trkpt>
      <trkpt lat="49.61185" lon="6.13737">
        <ele>254</ele>
        <time>2017-08-29T11:59:23Z</time>
      </trkpt>
      <trkpt lat="49.61184" lon="6.13738">
        <ele>254</ele>
        <time>2017-08-29T11:59:36Z</time>
      </trkpt>
      <trkpt lat="49.61184" lon="6.13738">
        <ele>255</ele>
        <time>2017-08-29T11:59:47Z</time>
      </trkpt>
      <trkpt lat="49.6119" lon="6.1375">
        <ele>255</ele>
        <time>2017-08-29T11:59:57Z</time>
      </trkpt>
      <trkpt lat="49.61192" lon="6.13764">
        <ele>253</ele>
        <time>2017-08-29T12:00:08Z</time>
      </trkpt>
      <trkpt lat="49.61198" lon="6.13776">
        <ele>252</ele>
        <time>2017-08-29T12:00:18Z</time>
      </trkpt>
      <trkpt lat="49.61199" lon="6.1378">
        <ele>252</ele>
        <time>2017-08-29T12:00:29Z</time>
      </trkpt>
      <trkpt lat="49.61202" lon="6.13793">
        <ele>253</ele>
        <time>2017-08-29T12:00:39Z</time>
      </trkpt>
      <trkpt lat="49.61207" lon="6.13812">
        <ele>250</ele>
        <time>2017-08-29T12:00:50Z</time>
      </trkpt>
      <trkpt lat="49.61214" lon="6.13824">
        <ele>249</ele>
        <time>2017-08-29T12:01:01Z</time>
      </trkpt>
      <trkpt lat="49.61219" lon="6.1384">
        <ele>249</ele>
        <time>2017-08-29T12:01:12Z</time>
      </trkpt>
      <trkpt lat="49.61226" lon="6.13856">
        <ele>247</ele>
        <time>2017-08-29T12:01:23Z</time>
      </trkpt>
      <trkpt lat="49.61231" lon="6.1387">
        <ele>246</ele>
        <time>2017-08-29T12:01:33Z</time>
      </trkpt>
      <trkpt lat="49.61236" lon="6.13886">
        <ele>245</ele>
        <time>2017-08-29T12:01:43Z</time>
      </trkpt>
      <trkpt lat="49.61241" lon="6.13903">
        <ele>244</ele>
        <time>2017-08-29T12:01:53Z</time>
      </trkpt>
      <trkpt lat="49.61248" lon="6.13917">
        <ele>243</ele>
        <time>2017-08-29T12:02:04Z</time>
      </trkpt>
      <trkpt lat="49.6125" lon="6.13929">
        <ele>241</ele>
        <time>2017-08-29T12:02:15Z</time>
      </trkpt>
      <trkpt lat="49.61252" lon="6.1392">
        <ele>241</ele>
        <time>2017-08-29T12:02:25Z</time>
      </trkpt>
      <trkpt lat="49.61251" lon="6.13909">
        <ele>240</ele>
        <time>2017-08-29T12:02:36Z</time>
      </trkpt>
      <trkpt lat="49.61249" lon="6.13892">
        <ele>239</ele>
        <time>2017-08-29T12:02:46Z</time>
      </trkpt>
      <trkpt lat="49.61247" lon="6.13877">
        <ele>239</ele>
        <time>2017-08-29T12:02:57Z</time>
      </trkpt>
      <trkpt lat="49.6124" lon="6.13862">
        <ele>237</ele>
        <time>2017-08-29T12:03:08Z</time>
      </trkpt>
      <trkpt lat="49.61237" lon="6.13846">
        <ele>237</ele>
        <time>2017-08-29T12:03:18Z</time>
      </trkpt>
      <trkpt lat="49.61231" lon="6.13827">
        <ele>237</ele>
        <time>2017-08-29T12:03:29Z</time>
      </trkpt>
      <trkpt lat="49.61231" lon="6.1381">
        <ele>235</ele>
        <time>2017-08-29T12:03:39Z</time>
      </trkpt>
      <trkpt lat="49.6123" lon="6.13794">
        <ele>236</ele>
        <time>2017-08-29T12:03:49Z</time>
      </trkpt>
      <trkpt lat="49.61232" lon="6.1379">
        <ele>236</ele>
        <time>2017-08-29T12:04:00Z</time>
      </trkpt>
      <trkpt lat="49.61231" lon="6.13788">
        <ele>236</ele>
        <time>2017-08-29T12:04:11Z</time>
      </trkpt>
      <trkpt lat="49.61233" lon="6.13786">
        <ele>236</ele>
        <time>2017-08-29T12:04:21Z</time>
      </trkpt>
      <trkpt lat="49.61232" lon="6.13783">
        <ele>236</ele>
        <time>2017-08-29T12:04:32Z</time>
      </trkpt>
      <trkpt lat="49.6123" lon="6.13782">
        <ele>235</ele>
        <time>2017-08-29T12:04:43Z</time>
      </trkpt>
      <trkpt lat="49.61229" lon="6.13778">
        <ele>236</ele>
        <time>2017-08-29T12:04:54Z</time>
      </trkpt>
      <trkpt lat="49.61229" lon="6.13777">
        <ele>236</ele>
        <time>2017-08-29T12:05:04Z</time>
      </trkpt>
      <trkpt lat="49.61226" lon="6.13779">
        <ele>236</ele>
        <time>2017-08-29T12:05:14Z</time>
      </trkpt>
      <trkpt lat="49.61221" lon="6.13781">
        <ele>236</ele>
        <time>2017-08-29T12:05:25Z</time>
      </trkpt>
      <trkpt lat="49.61219" lon="6.13781">
        <ele>236</ele>
        <time>2017-08-29T12:05:36Z</time>
      </trkpt>
      <trkpt lat="49.61222" lon="6.1378">
        <ele>235</ele>
        <time>2017-08-29T12:05:46Z</time>
      </trkpt>
      <trkpt lat="49.61223" lon="6.13781">
        <ele>235</ele>
        <time>2017-08-29T12:05:56Z</time>
      </trkpt>
      <trkpt lat="49.61225" lon="6.13784">
        <ele>236</ele>
        <time>2017-08-29T12:06:07Z</time>
      </trkpt>
      <trkpt lat="49.61227" lon="6.13785">
        <ele>235</ele>
        <time>2017-08-29T12:06:18Z</time>
      </trkpt>
      <trkpt lat="49.61232" lon="6.13786">
        <ele>236</ele>
        <time>2017-08-29T12:06:28Z</time>
      </trkpt>
      <trkpt lat="49.61232" lon="6.13786">
        <ele>235</ele>
        <time>2017-08-29T12:06:39Z</time>
      </trkpt>
      <trkpt lat="49.61233" lon="6.13785">
        <ele>235</ele>
        <time>2017-08-29T12:06:49Z</time>
      </trkpt>
      <trkpt lat="49.61235" lon="6.13786">
        <ele>235</ele>
        <time>2017-08-29T12:06:59Z</time>
      </trkpt>
      <trkpt lat="49.61236" lon="6.13786">
        <ele>235</ele>
        <time>2017-08-29T12:07:09Z</time>
      </trkpt>
      <trkpt lat="49.61235" lon="6.13786">
        <ele>235</ele>
        <time>2017-08-29T12:07:19Z</time>
      </trkpt>
      <trkpt lat="49.6123" lon="6.13785">
        <ele>235</ele>
        <time>2017-08-29T12:07:30Z</time>
      </trkpt>
      <trkpt lat="49.61227" lon="6.13785">
        <ele>236</ele>
        <time>2017-08-29T12:07:40Z</time>
      </trkpt>
      <trkpt lat="49.61227" lon="6.13787">
        <ele>236</ele>
        <time>2017-08-29T12:07:50Z</time>
      </trkpt>
      <trkpt lat="49.61227" lon="6.13786">
        <ele>236</ele>
        <time>2017-08-29T12:08:01Z</time>
      </trkpt>
      <trkpt lat="49.61229" lon="6.13787">
        <ele>236</ele>
        <time>2017-08-29T12:08:11Z</time>
      </trkpt>
      <trkpt lat="49.61231" lon="6.13788">
        <ele>235</ele>
        <time>2017-08-29T12:08:21Z</time>
      </trkpt>
      <trkpt lat="49.61227" lon="6.13789">
        <ele>235</ele>
        <time>2017-08-29T12:08:31Z</time>
      </trkpt>
      <trkpt lat="49.61223" lon="6.1379">
        <ele>235</ele>
        <time>2017-08-29T12:08:42Z</time>
      </trkpt>
      <trkpt lat="49.61224" lon="6.13789">
        <ele>236</ele>
        <time>2017-08-29T12:08:53Z</time>
      </trkpt>
      <trkpt lat="49.61232" lon="6.13788">
        <ele>236</ele>
        <time>2017-08-29T12:09:03Z</time>
      </trkpt>
      <trkpt lat="49.61234" lon="6.13784">
        <ele>236</ele>
        <time>2017-08-29T12:09:14Z</time>
      </trkpt>
      <trkpt lat="49.61237" lon="6.13781">
        <ele>236</ele>
        <time>2017-08-29T12:09:24Z</time>
      </trkpt>
      <trkpt lat="49.61241" lon="6.13777">
        <ele>236</ele>
        <time>2017-08-29T12:09:35Z</time>
      </trkpt>
      <trkpt lat="49.61247" lon="6.13777">
        <ele>236</ele>
        <time>2017-08-29T12:09:45Z</time>
      </trkpt>
      <trkpt lat="49.61249" lon="6.13778">
        <ele>236</ele>
        <time>2017-08-29T12:09:56Z</time>
      </trkpt>
      <trkpt lat="49.61255" lon="6.13788">
        <ele>236</ele>
        <time>2017-08-29T12:10:06Z</time>
      </trkpt>
      <trkpt lat="49.61248" lon="6.13792">
        <ele>236</ele>
        <time>2017-08-29T12:10:17Z</time>
      </trkpt>
      <trkpt lat="49.61237" lon="6.13792">
        <ele>236</ele>
        <time>2017-08-29T12:10:27Z</time>
      </trkpt>
      <trkpt lat="49.61227" lon="6.1379">
        <ele>236</ele>
        <time>2017-08-29T12:10:37Z</time>
      </trkpt>
      <trkpt lat="49.61219" lon="6.13786">
        <ele>236</ele>
        <time>2017-08-29T12:10:48Z</time>
      </trkpt>
      <trkpt lat="49.61221" lon="6.13785">
        <ele>236</ele>
        <time>2017-08-29T12:10:58Z</time>
      </trkpt>
      <trkpt lat="49.61227" lon="6.13784">
        <ele>236</ele>
        <time>2017-08-29T12:11:09Z</time>
      </trkpt>
      <trkpt lat="49.61225" lon="6.13783">
        <ele>236</ele>
        <time>2017-08-29T12:11:20Z</time>
      </trkpt>
      <trkpt lat="49.61222" lon="6.13786">
        <ele>236</ele>
        <time>2017-08-29T12:11:31Z</time>
      </trkpt>
      <trkpt lat="49.61223" lon="6.13789">
        <ele>236</ele>
        <time>2017-08-29T12:11:41Z</time>
      </trkpt>
      <trkpt lat="49.61221" lon="6.13789">
        <ele>236</ele>
        <time>2017-08-29T12:11:51Z</time>
      </trkpt>
      <trkpt lat="49.6122" lon="6.13793">
        <ele>236</ele>
        <time>2017-08-29T12:12:01Z</time>
      </trkpt>
      <trkpt lat="49.61219" lon="6.13793">
        <ele>236</ele>
        <time>2017-08-29T12:12:11Z</time>
      </trkpt>
      <trkpt lat="49.61217" lon="6.13792">
        <ele>236</ele>
        <time>2017-08-29T12:12:22Z</time>
      </trkpt>
      <trkpt lat="49.61216" lon="6.13791">
        <ele>237</ele>
        <time>2017-08-29T12:12:33Z</time>
      </trkpt>
      <trkpt lat="49.61221" lon="6.13792">
        <ele>236</ele>
        <time>2017-08-29T12:12:43Z</time>
      </trkpt>
      <trkpt lat="49.61226" lon="6.13791">
        <ele>236</ele>
        <time>2017-08-29T12:12:53Z</time>
      </trkpt>
      <trkpt lat="49.6123" lon="6.13791">
        <ele>236</ele>
        <time>2017-08-29T12:13:04Z</time>
      </trkpt>
      <trkpt lat="49.61233" lon="6.13789">
        <ele>236</ele>
        <time>2017-08-29T12:13:14Z</time>
      </trkpt>
      <trkpt lat="49.61232" lon="6.13787">
        <ele>236</ele>
        <time>2017-08-29T12:13:25Z</time>
      </trkpt>
      <trkpt lat="49.6123" lon="6.13785">
        <ele>237</ele>
        <time>2017-08-29T12:13:36Z</time>
      </trkpt>
      <trkpt lat="49.61228" lon="6.13785">
        <ele>237</ele>
        <time>2017-08-29T12:13:46Z</time>
      </trkpt>
      <trkpt lat="49.61222" lon="6.13782">
        <ele>237</ele>
        <time>2017-08-29T12:13:57Z</time>
      </trkpt>
      <trkpt lat="49.6122" lon="6.13781">
        <ele>236</ele>
        <time>2017-08-29T12:14:09Z</time>
      </trkpt>
      <trkpt lat="49.61221" lon="6.13779">
        <ele>236</ele>
        <time>2017-08-29T12:14:19Z</time>
      </trkpt>
      <trkpt lat="49.61228" lon="6.13779">
        <ele>236</ele>
        <time>2017-08-29T12:14:30Z</time>
      </trkpt>
      <trkpt lat="49.61222" lon="6.13779">
        <ele>237</ele>
        <time>2017-08-29T12:14:40Z</time>
      </trkpt>
      <trkpt lat="49.61224" lon="6.13783">
        <ele>236</ele>
        <time>2017-08-29T12:14:50Z</time>
      </trkpt>
      <trkpt lat="49.61229" lon="6.13785">
        <ele>236</ele>
        <time>2017-08-29T12:15:01Z</time>
      </trkpt>
      <trkpt lat="49.6123" lon="6.13785">
        <ele>236</ele>
        <time>2017-08-29T12:15:12Z</time>
      </trkpt>
      <trkpt lat="49.61227" lon="6.13781">
        <ele>236</ele>
        <time>2017-08-29T12:15:23Z</time>
      </trkpt>
      <trkpt lat="49.61224" lon="6.13779">
        <ele>236</ele>
        <time>2017-08-29T12:15:34Z</time>
      </trkpt>
      <trkpt lat="49.61221" lon="6.1378">
        <ele>236</ele>
        <time>2017-08-29T12:15:44Z</time>
      </trkpt>
      <trkpt lat="49.61226" lon="6.13781">
        <ele>236</ele>
        <time>2017-08-29T12:15:54Z</time>
      </trkpt>
      <trkpt lat="49.61228" lon="6.13783">
        <ele>236</ele>
        <time>2017-08-29T12:16:05Z</time>
      </trkpt>
      <trkpt lat="49.61235" lon="6.13788">
        <ele>236</ele>
        <time>2017-08-29T12:16:15Z</time>
      </trkpt>
      <trkpt lat="49.61238" lon="6.1379">
        <ele>236</ele>
        <time>2017-08-29T12:16:25Z</time>
      </trkpt>
      <trkpt lat="49.61225" lon="6.13784">
        <ele>236</ele>
        <time>2017-08-29T12:16:35Z</time>
      </trkpt>
      <trkpt lat="49.61222" lon="6.1378">
        <ele>236</ele>
        <time>2017-08-29T12:16:46Z</time>
      </trkpt>
      <trkpt lat="49.61226" lon="6.13776">
        <ele>236</ele>
        <time>2017-08-29T12:16:57Z</time>
      </trkpt>
      <trkpt lat="49.61227" lon="6.13774">
        <ele>236</ele>
        <time>2017-08-29T12:17:08Z</time>
      </trkpt>
      <trkpt lat="49.6122" lon="6.13774">
        <ele>236</ele>
        <time>2017-08-29T12:17:19Z</time>
      </trkpt>
      <trkpt lat="49.6121" lon="6.13779">
        <ele>236</ele>
        <time>2017-08-29T12:17:29Z</time>
      </trkpt>
      <trkpt lat="49.61209" lon="6.13784">
        <ele>236</ele>
        <time>2017-08-29T12:17:41Z</time>
      </trkpt>
      <trkpt lat="49.61211" lon="6.13785">
        <ele>236</ele>
        <time>2017-08-29T12:17:51Z</time>
      </trkpt>
      <trkpt lat="49.61205" lon="6.13773">
        <ele>236</ele>
        <time>2017-08-29T12:18:02Z</time>
      </trkpt>
      <trkpt lat="49.612" lon="6.13779">
        <ele>236</ele>
        <time>2017-08-29T12:18:12Z</time>
      </trkpt>
      <trkpt lat="49.61224" lon="6.13869">
        <ele>240</ele>
        <time>2017-08-29T12:18:23Z</time>
      </trkpt>
      <trkpt lat="49.61241" lon="6.13919">
        <ele>242</ele>
        <time>2017-08-29T12:18:34Z</time>
      </trkpt>
      <trkpt lat="49.61222" lon="6.13878">
        <ele>245</ele>
        <time>2017-08-29T12:18:44Z</time>
      </trkpt>
      <trkpt lat="49.61192" lon="6.13772">
        <ele>253</ele>
        <time>2017-08-29T12:18:54Z</time>
      </trkpt>
      <trkpt lat="49.61171" lon="6.13636">
        <ele>260</ele>
        <time>2017-08-29T12:19:05Z</time>
      </trkpt>
      <trkpt lat="49.61159" lon="6.13537">
        <ele>263</ele>
        <time>2017-08-29T12:19:16Z</time>
      </trkpt>
      <trkpt lat="49.61201" lon="6.13434">
        <ele>263</ele>
        <time>2017-08-29T12:19:26Z</time>
      </trkpt>
      <trkpt lat="49.61262" lon="6.13354">
        <ele>259</ele>
        <time>2017-08-29T12:19:37Z</time>
      </trkpt>
      <trkpt lat="49.61263" lon="6.13292">
        <ele>259</ele>
        <time>2017-08-29T12:19:47Z</time>
      </trkpt>
      <trkpt lat="49.61329" lon="6.13208">
        <ele>268</ele>
        <time>2017-08-29T12:19:57Z</time>
      </trkpt>
      <trkpt lat="49.61386" lon="6.13118">
        <ele>274</ele>
        <time>2017-08-29T12:20:07Z</time>
      </trkpt>
      <trkpt lat="49.61375" lon="6.13095">
        <ele>276</ele>
        <time>2017-08-29T12:20:18Z</time>
      </trkpt>
      <trkpt lat="49.61311" lon="6.13126">
        <ele>279</ele>
        <time>2017-08-29T12:20:28Z</time>
      </trkpt>
      <trkpt lat="49.61309" lon="6.13079">
        <ele>278</ele>
        <time>2017-08-29T12:20:38Z</time>
      </trkpt>
      <trkpt lat="49.61294" lon="6.13064">
        <ele>279</ele>
        <time>2017-08-29T12:20:49Z</time>
      </trkpt>
      <trkpt lat="49.6128" lon="6.13093">
        <ele>279</ele>
        <time>2017-08-29T12:20:59Z</time>
      </trkpt>
      <trkpt lat="49.6128" lon="6.13131">
        <ele>280</ele>
        <time>2017-08-29T12:21:10Z</time>
      </trkpt>
      <trkpt lat="49.61308" lon="6.1312">
        <ele>280</ele>
        <time>2017-08-29T12:21:20Z</time>
      </trkpt>
      <trkpt lat="49.61374" lon="6.13093">
        <ele>277</ele>
        <time>2017-08-29T12:21:31Z</time>
      </trkpt>
      <trkpt lat="49.61419" lon="6.13076">
        <ele>276</ele>
        <time>2017-08-29T12:21:41Z</time>
      </trkpt>
      <trkpt lat="49.61431" lon="6.13069">
        <ele>274</ele>
        <time>2017-08-29T12:21:52Z</time>
      </trkpt>
      <trkpt lat="49.61434" lon="6.13068">
        <ele>273</ele>
        <time>2017-08-29T12:22:02Z</time>
      </trkpt>
      <trkpt lat="49.61438" lon="6.13066">
        <ele>273</ele>
        <time>2017-08-29T12:22:13Z</time>
      </trkpt>
      <trkpt lat="49.61452" lon="6.13056">
        <ele>273</ele>
        <time>2017-08-29T12:22:24Z</time>
      </trkpt>
      <trkpt lat="49.61528" lon="6.13006">
        <ele>272</ele>
        <time>2017-08-29T12:22:34Z</time>
      </trkpt>
      <trkpt lat="49.61648" lon="6.12959">
        <ele>268</ele>
        <time>2017-08-29T12:22:45Z</time>
      </trkpt>
      <trkpt lat="49.61769" lon="6.12986">
        <ele>264</ele>
        <time>2017-08-29T12:22:55Z</time>
      </trkpt>
      <trkpt lat="49.61887" lon="6.13021">
        <ele>258</ele>
        <time>2017-08-29T12:23:05Z</time>
      </trkpt>
      <trkpt lat="49.61972" lon="6.1304">
        <ele>252</ele>
        <time>2017-08-29T12:23:16Z</time>
      </trkpt>
      <trkpt lat="49.62011" lon="6.13003">
        <ele>252</ele>
        <time>2017-08-29T12:23:27Z</time>
      </trkpt>
      <trkpt lat="49.62049" lon="6.12978">
        <ele>255</ele>
        <time>2017-08-29T12:23:37Z</time>
      </trkpt>
      <trkpt lat="49.62056" lon="6.12977">
        <ele>255</ele>
        <time>2017-08-29T12:23:48Z</time>
      </trkpt>
      <trkpt lat="49.62056" lon="6.12975">
        <ele>255</ele>
        <time>2017-08-29T12:23:58Z</time>
      </trkpt>
      <trkpt lat="49.62056" lon="6.12979">
        <ele>255</ele>
        <time>2017-08-29T12:24:08Z</time>
      </trkpt>
      <trkpt lat="49.62059" lon="6.12983">
        <ele>255</ele>
        <time>2017-08-29T12:24:19Z</time>
      </trkpt>
      <trkpt lat="49.62062" lon="6.12985">
        <ele>255</ele>
        <time>2017-08-29T12:24:30Z</time>
      </trkpt>
      <trkpt lat="49.62061" lon="6.12983">
        <ele>254</ele>
        <time>2017-08-29T12:24:41Z</time>
      </trkpt>
      <trkpt lat="49.62057" lon="6.12983">
        <ele>255</ele>
        <time>2017-08-29T12:24:51Z</time>
      </trkpt>
      <trkpt lat="49.62052" lon="6.12984">
        <ele>255</ele>
        <time>2017-08-29T12:25:01Z</time>
      </trkpt>
      <trkpt lat="49.62073" lon="6.12964">
        <ele>257</ele>
        <time>2017-08-29T12:25:12Z</time>
      </trkpt>
      <trkpt lat="49.6208" lon="6.12959">
        <ele>257</ele>
        <time>2017-08-29T12:25:22Z</time>
      </trkpt>
      <trkpt lat="49.62064" lon="6.12978">
        <ele>257</ele>
        <time>2017-08-29T12:25:33Z</time>
      </trkpt>
      <trkpt lat="49.62001" lon="6.13005">
        <ele>254</ele>
        <time>2017-08-29T12:25:44Z</time>
      </trkpt>
      <trkpt lat="49.61957" lon="6.13021">
        <ele>252</ele>
        <time>2017-08-29T12:25:54Z</time>
      </trkpt>
      <trkpt lat="49.61849" lon="6.12994">
        <ele>258</ele>
        <time>2017-08-29T12:26:05Z</time>
      </trkpt>
      <trkpt lat="49.61703" lon="6.12954">
        <ele>265</ele>
        <time>2017-08-29T12:26:16Z</time>
      </trkpt>
      <trkpt lat="49.61571" lon="6.12956">
        <ele>271</ele>
        <time>2017-08-29T12:26:27Z</time>
      </trkpt>
      <trkpt lat="49.61478" lon="6.13014">
        <ele>273</ele>
        <time>2017-08-29T12:26:37Z</time>
      </trkpt>
      <trkpt lat="49.61452" lon="6.12995">
        <ele>275</ele>
        <time>2017-08-29T12:26:47Z</time>
      </trkpt>
      <trkpt lat="49.6143" lon="6.12928">
        <ele>278</ele>
        <time>2017-08-29T12:26:57Z</time>
      </trkpt>
      <trkpt lat="49.61408" lon="6.12868">
        <ele>279</ele>
        <time>2017-08-29T12:27:07Z</time>
      </trkpt>
      <trkpt lat="49.61408" lon="6.12851">
        <ele>280</ele>
        <time>2017-08-29T12:27:18Z</time>
      </trkpt>
      <trkpt lat="49.61397" lon="6.12785">
        <ele>280</ele>
        <time>2017-08-29T12:27:28Z</time>
      </trkpt>
      <trkpt lat="49.61388" lon="6.12723">
        <ele>280</ele>
        <time>2017-08-29T12:27:38Z</time>
      </trkpt>
      <trkpt lat="49.61378" lon="6.12685">
        <ele>279</ele>
        <time>2017-08-29T12:27:49Z</time>
      </trkpt>
      <trkpt lat="49.6137" lon="6.12675">
        <ele>279</ele>
        <time>2017-08-29T12:27:59Z</time>
      </trkpt>
      <trkpt lat="49.61366" lon="6.12665">
        <ele>280</ele>
        <time>2017-08-29T12:28:10Z</time>
      </trkpt>
      <trkpt lat="49.61362" lon="6.12666">
        <ele>279</ele>
        <time>2017-08-29T12:28:20Z</time>
      </trkpt>
      <trkpt lat="49.61357" lon="6.12661">
        <ele>280</ele>
        <time>2017-08-29T12:28:31Z</time>
      </trkpt>
      <trkpt lat="49.61348" lon="6.12633">
        <ele>280</ele>
        <time>2017-08-29T12:28:41Z</time>
      </trkpt>
      <trkpt lat="49.61346" lon="6.12623">
        <ele>279</ele>
        <time>2017-08-29T12:28:51Z</time>
      </trkpt>
      <trkpt lat="49.61345" lon="6.12613">
        <ele>280</ele>
        <time>2017-08-29T12:29:02Z</time>
      </trkpt>
      <trkpt lat="49.61322" lon="6.12594">
        <ele>279</ele>
        <time>2017-08-29T12:29:12Z</time>
      </trkpt>
      <trkpt lat="49.61318" lon="6.1259">
        <ele>279</ele>
        <time>2017-08-29T12:29:23Z</time>
      </trkpt>
      <trkpt lat="49.61317" lon="6.12587">
        <ele>279</ele>
        <time>2017-08-29T12:29:33Z</time>
      </trkpt>
      <trkpt lat="49.61315" lon="6.1259">
        <ele>279</ele>
        <time>2017-08-29T12:29:44Z</time>
      </trkpt>
      <trkpt lat="49.61315" lon="6.12593">
        <ele>279</ele>
        <time>2017-08-29T12:29:54Z</time>
      </trkpt>
      <trkpt lat="49.61282" lon="6.12592">
        <ele>279</ele>
        <time>2017-08-29T12:30:05Z</time>
      </trkpt>
      <trkpt lat="49.61274" lon="6.12594">
        <ele>279</ele>
        <time>2017-08-29T12:30:16Z</time>
      </trkpt>
      <trkpt lat="49.61269" lon="6.12594">
        <ele>278</ele>
        <time>2017-08-29T12:30:27Z</time>
      </trkpt>
      <trkpt lat="49.61263" lon="6.12594">
        <ele>279</ele>
        <time>2017-08-29T12:30:37Z</time>
      </trkpt>
      <trkpt lat="49.61257" lon="6.12591">
        <ele>279</ele>
        <time>2017-08-29T12:30:48Z</time>
      </trkpt>
      <trkpt lat="49.61231" lon="6.12593">
        <ele>277</ele>
        <time>2017-08-29T12:30:59Z</time>
      </trkpt>
      <trkpt lat="49.61229" lon="6.12598">
        <ele>277</ele>
        <time>2017-08-29T12:31:09Z</time>
      </trkpt>
      <trkpt lat="49.61226" lon="6.126">
        <ele>278</ele>
        <time>2017-08-29T12:31:20Z</time>
      </trkpt>
      <trkpt lat="49.61221" lon="6.12599">
        <ele>277</ele>
        <time>2017-08-29T12:31:30Z</time>
      </trkpt>
      <trkpt lat="49.61187" lon="6.12598">
        <ele>278</ele>
        <time>2017-08-29T12:31:40Z</time>
      </trkpt>
      <trkpt lat="49.61172" lon="6.12597">
        <ele>277</ele>
        <time>2017-08-29T12:31:50Z</time>
      </trkpt>
      <trkpt lat="49.61137" lon="6.12599">
        <ele>275</ele>
        <time>2017-08-29T12:32:01Z</time>
      </trkpt>
      <trkpt lat="49.6109" lon="6.12605">
        <ele>275</ele>
        <time>2017-08-29T12:32:11Z</time>
      </trkpt>
      <trkpt lat="49.61078" lon="6.12617">
        <ele>273</ele>
        <time>2017-08-29T12:32:22Z</time>
      </trkpt>
      <trkpt lat="49.61079" lon="6.12603">
        <ele>273</ele>
        <time>2017-08-29T12:32:33Z</time>
      </trkpt>
      <trkpt lat="49.61074" lon="6.1261">
        <ele>273</ele>
        <time>2017-08-29T12:32:43Z</time>
      </trkpt>
      <trkpt lat="49.61043" lon="6.12616">
        <ele>273</ele>
        <time>2017-08-29T12:32:54Z</time>
      </trkpt>
      <trkpt lat="49.60978" lon="6.12631">
        <ele>273</ele>
        <time>2017-08-29T12:33:04Z</time>
      </trkpt>
      <trkpt lat="49.60941" lon="6.12656">
        <ele>271</ele>
        <time>2017-08-29T12:33:14Z</time>
      </trkpt>
      <trkpt lat="49.60951" lon="6.12776">
        <ele>273</ele>
        <time>2017-08-29T12:33:25Z</time>
      </trkpt>
      <trkpt lat="49.60957" lon="6.12904">
        <ele>273</ele>
        <time>2017-08-29T12:33:36Z</time>
      </trkpt>
      <trkpt lat="49.60948" lon="6.12924">
        <ele>272</ele>
        <time>2017-08-29T12:33:46Z</time>
      </trkpt>
      <trkpt lat="49.60933" lon="6.12921">
        <ele>272</ele>
        <time>2017-08-29T12:33:56Z</time>
      </trkpt>
      <trkpt lat="49.60926" lon="6.12923">
        <ele>272</ele>
        <time>2017-08-29T12:34:07Z</time>
      </trkpt>
      <trkpt lat="49.60916" lon="6.12929">
        <ele>272</ele>
        <time>2017-08-29T12:34:17Z</time>
      </trkpt>
      <trkpt lat="49.60915" lon="6.12926">
        <ele>272</ele>
        <time>2017-08-29T12:34:27Z</time>
      </trkpt>
      <trkpt lat="49.60915" lon="6.12921">
        <ele>272</ele>
        <time>2017-08-29T12:34:37Z</time>
      </trkpt>
      <trkpt lat="49.60912" lon="6.1292">
        <ele>272</ele>
        <time>2017-08-29T12:34:48Z</time>
      </trkpt>
      <trkpt lat="49.60908" lon="6.12922">
        <ele>272</ele>
        <time>2017-08-29T12:34:59Z</time>
      </trkpt>
      <trkpt lat="49.60905" lon="6.12924">
        <ele>272</ele>
        <time>2017-08-29T12:35:09Z</time>
      </trkpt>
      <trkpt lat="49.60903" lon="6.12927">
        <ele>272</ele>
        <time>2017-08-29T12:35:19Z</time>
      </trkpt>
      <trkpt lat="49.60906" lon="6.1293">
        <ele>272</ele>
        <time>2017-08-29T12:35:30Z</time>
      </trkpt>
      <trkpt lat="49.60907" lon="6.1293">
        <ele>272</ele>
        <time>2017-08-29T12:35:40Z</time>
      </trkpt>
      <trkpt lat="49.60906" lon="6.12932">
        <ele>272</ele>
        <time>2017-08-29T12:35:50Z</time>
      </trkpt>
      <trkpt lat="49.60906" lon="6.12932">
        <ele>272</ele>
        <time>2017-08-29T12:36:00Z</time>
      </trkpt>
      <trkpt lat="49.60907" lon="6.12932">
        <ele>272</ele>
        <time>2017-08-29T12:36:10Z</time>
      </trkpt>
      <trkpt lat="49.60909" lon="6.12932">
        <ele>272</ele>
        <time>2017-08-29T12:36:21Z</time>
      </trkpt>
      <trkpt lat="49.60913" lon="6.12933">
        <ele>272</ele>
        <time>2017-08-29T12:36:31Z</time>
      </trkpt>
      <trkpt lat="49.60914" lon="6.12932">
        <ele>272</ele>
        <time>2017-08-29T12:36:42Z</time>
      </trkpt>
      <trkpt lat="49.60913" lon="6.12931">
        <ele>272</ele>
        <time>2017-08-29T12:36:54Z</time>
      </trkpt>
      <trkpt lat="49.60913" lon="6.1293">
        <ele>272</ele>
        <time>2017-08-29T12:37:04Z</time>
      </trkpt>
      <trkpt lat="49.60912" lon="6.12928">
        <ele>272</ele>
        <time>2017-08-29T12:37:15Z</time>
      </trkpt>
      <trkpt lat="49.60913" lon="6.12927">
        <ele>272</ele>
        <time>2017-08-29T12:37:26Z</time>
      </trkpt>
      <trkpt lat="49.60915" lon="6.12926">
        <ele>272</ele>
        <time>2017-08-29T12:37:36Z</time>
      </trkpt>
      <trkpt lat="49.60918" lon="6.12926">
        <ele>272</ele>
        <time>2017-08-29T12:37:48Z</time>
      </trkpt>
      <trkpt lat="49.60917" lon="6.12926">
        <ele>272</ele>
        <time>2017-08-29T12:37:58Z</time>
      </trkpt>
      <trkpt lat="49.60917" lon="6.12926">
        <ele>273</ele>
        <time>2017-08-29T12:38:09Z</time>
      </trkpt>
      <trkpt lat="49.60921" lon="6.12925">
        <ele>272</ele>
        <time>2017-08-29T12:38:19Z</time>
      </trkpt>
      <trkpt lat="49.60925" lon="6.12924">
        <ele>272</ele>
        <time>2017-08-29T12:38:29Z</time>
      </trkpt>
      <trkpt lat="49.60928" lon="6.12924">
        <ele>273</ele>
        <time>2017-08-29T12:38:39Z</time>
      </trkpt>
      <trkpt lat="49.60931" lon="6.12924">
        <ele>272</ele>
        <time>2017-08-29T12:38:49Z</time>
      </trkpt>
      <trkpt lat="49.60932" lon="6.12925">
        <ele>272</ele>
        <time>2017-08-29T12:39:00Z</time>
      </trkpt>
      <trkpt lat="49.6093" lon="6.12924">
        <ele>273</ele>
        <time>2017-08-29T12:39:10Z</time>
      </trkpt>
      <trkpt lat="49.60926" lon="6.12926">
        <ele>273</ele>
        <time>2017-08-29T12:39:21Z</time>
      </trkpt>
      <trkpt lat="49.60921" lon="6.12928">
        <ele>273</ele>
        <time>2017-08-29T12:39:31Z</time>
      </trkpt>
      <trkpt lat="49.60917" lon="6.1293">
        <ele>273</ele>
        <time>2017-08-29T12:39:42Z</time>
      </trkpt>
      <trkpt lat="49.60915" lon="6.1293">
        <ele>273</ele>
        <time>2017-08-29T12:39:52Z</time>
      </trkpt>
      <trkpt lat="49.60912" lon="6.1293">
        <ele>273</ele>
        <time>2017-08-29T12:40:02Z</time>
      </trkpt>
      <trkpt lat="49.60911" lon="6.1293">
        <ele>272</ele>
        <time>2017-08-29T12:40:12Z</time>
      </trkpt>
      <trkpt lat="49.60909" lon="6.12928">
        <ele>273</ele>
        <time>2017-08-29T12:40:22Z</time>
      </trkpt>
      <trkpt lat="49.60908" lon="6.12927">
        <ele>272</ele>
        <time>2017-08-29T12:40:33Z</time>
      </trkpt>
      <trkpt lat="49.6091" lon="6.12928">
        <ele>272</ele>
        <time>2017-08-29T12:40:43Z</time>
      </trkpt>
      <trkpt lat="49.60913" lon="6.12928">
        <ele>272</ele>
        <time>2017-08-29T12:40:53Z</time>
      </trkpt>
      <trkpt lat="49.60916" lon="6.12928">
        <ele>272</ele>
        <time>2017-08-29T12:41:03Z</time>
      </trkpt>
      <trkpt lat="49.6092" lon="6.12929">
        <ele>272</ele>
        <time>2017-08-29T12:41:14Z</time>
      </trkpt>
      <trkpt lat="49.60923" lon="6.12931">
        <ele>272</ele>
        <time>2017-08-29T12:41:25Z</time>
      </trkpt>
      <trkpt lat="49.60922" lon="6.12933">
        <ele>273</ele>
        <time>2017-08-29T12:41:36Z</time>
      </trkpt>
      <trkpt lat="49.60921" lon="6.12935">
        <ele>272</ele>
        <time>2017-08-29T12:41:47Z</time>
      </trkpt>
      <trkpt lat="49.6092" lon="6.12936">
        <ele>272</ele>
        <time>2017-08-29T12:41:59Z</time>
      </trkpt>
      <trkpt lat="49.60923" lon="6.12936">
        <ele>272</ele>
        <time>2017-08-29T12:42:10Z</time>
      </trkpt>
      <trkpt lat="49.60928" lon="6.1293">
        <ele>273</ele>
        <time>2017-08-29T12:42:21Z</time>
      </trkpt>
      <trkpt lat="49.60933" lon="6.12926">
        <ele>273</ele>
        <time>2017-08-29T12:42:31Z</time>
      </trkpt>
      <trkpt lat="49.60935" lon="6.12927">
        <ele>273</ele>
        <time>2017-08-29T12:42:41Z</time>
      </trkpt>
      <trkpt lat="49.60934" lon="6.12928">
        <ele>273</ele>
        <time>2017-08-29T12:42:52Z</time>
      </trkpt>
      <trkpt lat="49.60932" lon="6.1293">
        <ele>273</ele>
        <time>2017-08-29T12:43:02Z</time>
      </trkpt>
      <trkpt lat="49.60928" lon="6.12934">
        <ele>273</ele>
        <time>2017-08-29T12:43:13Z</time>
      </trkpt>
      <trkpt lat="49.60932" lon="6.12936">
        <ele>274</ele>
        <time>2017-08-29T12:43:23Z</time>
      </trkpt>
      <trkpt lat="49.60938" lon="6.12935">
        <ele>273</ele>
        <time>2017-08-29T12:43:33Z</time>
      </trkpt>
      <trkpt lat="49.60945" lon="6.12931">
        <ele>273</ele>
        <time>2017-08-29T12:43:44Z</time>
      </trkpt>
      <trkpt lat="49.60952" lon="6.12928">
        <ele>273</ele>
        <time>2017-08-29T12:43:54Z</time>
      </trkpt>
      <trkpt lat="49.60965" lon="6.12937">
        <ele>273</ele>
        <time>2017-08-29T12:44:04Z</time>
      </trkpt>
      <trkpt lat="49.60982" lon="6.12942">
        <ele>273</ele>
        <time>2017-08-29T12:44:15Z</time>
      </trkpt>
      <trkpt lat="49.6099" lon="6.12944">
        <ele>274</ele>
        <time>2017-08-29T12:44:25Z</time>
      </trkpt>
      <trkpt lat="49.60992" lon="6.12953">
        <ele>274</ele>
        <time>2017-08-29T12:44:35Z</time>
      </trkpt>
      <trkpt lat="49.60996" lon="6.12966">
        <ele>274</ele>
        <time>2017-08-29T12:44:46Z</time>
      </trkpt>
      <trkpt lat="49.61003" lon="6.12984">
        <ele>273</ele>
        <time>2017-08-29T12:44:57Z</time>
      </trkpt>
      <trkpt lat="49.61013" lon="6.12987">
        <ele>274</ele>
        <time>2017-08-29T12:45:08Z</time>
      </trkpt>
      <trkpt lat="49.61013" lon="6.12992">
        <ele>274</ele>
        <time>2017-08-29T12:45:18Z</time>
      </trkpt>
      <trkpt lat="49.61014" lon="6.12985">
        <ele>275</ele>
        <time>2017-08-29T12:45:29Z</time>
      </trkpt>
      <trkpt lat="49.61018" lon="6.12973">
        <ele>275</ele>
        <time>2017-08-29T12:45:40Z</time>
      </trkpt>
      <trkpt lat="49.61024" lon="6.12969">
        <ele>276</ele>
        <time>2017-08-29T12:45:50Z</time>
      </trkpt>
      <trkpt lat="49.60979" lon="6.13058">
        <ele>275</ele>
        <time>2017-08-29T12:46:16Z</time>
      </trkpt>
      <trkpt lat="49.61024" lon="6.12961">
        <ele>275</ele>
        <time>2017-08-29T12:46:26Z</time>
      </trkpt>
      <trkpt lat="49.61024" lon="6.12948">
        <ele>275</ele>
        <time>2017-08-29T12:46:36Z</time>
      </trkpt>
      <trkpt lat="49.61046" lon="6.12968">
        <ele>276</ele>
        <time>2017-08-29T12:50:09Z</time>
      </trkpt>
      <trkpt lat="49.61039" lon="6.12972">
        <ele>276</ele>
        <time>2017-08-29T12:50:19Z</time>
      </trkpt>
      <trkpt lat="49.61037" lon="6.12957">
        <ele>276</ele>
        <time>2017-08-29T12:50:30Z</time>
      </trkpt>
      <trkpt lat="49.61038" lon="6.12947">
        <ele>276</ele>
        <time>2017-08-29T12:50:40Z</time>
      </trkpt>
      <trkpt lat="49.61041" lon="6.1295">
        <ele>276</ele>
        <time>2017-08-29T12:50:51Z</time>
      </trkpt>
      <trkpt lat="49.61047" lon="6.12954">
        <ele>277</ele>
        <time>2017-08-29T12:51:01Z</time>
      </trkpt>
      <trkpt lat="49.61055" lon="6.12958">
        <ele>277</ele>
        <time>2017-08-29T12:51:12Z</time>
      </trkpt>
      <trkpt lat="49.6106" lon="6.12958">
        <ele>278</ele>
        <time>2017-08-29T12:51:22Z</time>
      </trkpt>
      <trkpt lat="49.6107" lon="6.12952">
        <ele>279</ele>
        <time>2017-08-29T12:51:32Z</time>
      </trkpt>
      <trkpt lat="49.6108" lon="6.12951">
        <ele>280</ele>
        <time>2017-08-29T12:51:42Z</time>
      </trkpt>
      <trkpt lat="49.6109" lon="6.12955">
        <ele>279</ele>
        <time>2017-08-29T12:51:53Z</time>
      </trkpt>
      <trkpt lat="49.61096" lon="6.12962">
        <ele>278</ele>
        <time>2017-08-29T12:52:04Z</time>
      </trkpt>
      <trkpt lat="49.61102" lon="6.12964">
        <ele>278</ele>
        <time>2017-08-29T12:52:15Z</time>
      </trkpt>
      <trkpt lat="49.61115" lon="6.12955">
        <ele>278</ele>
        <time>2017-08-29T12:52:26Z</time>
      </trkpt>
      <trkpt lat="49.61123" lon="6.12945">
        <ele>278</ele>
        <time>2017-08-29T12:52:36Z</time>
      </trkpt>
      <trkpt lat="49.61126" lon="6.12938">
        <ele>278</ele>
        <time>2017-08-29T12:52:47Z</time>
      </trkpt>
      <trkpt lat="49.61129" lon="6.12933">
        <ele>278</ele>
        <time>2017-08-29T12:52:57Z</time>
      </trkpt>
      <trkpt lat="49.61132" lon="6.12927">
        <ele>278</ele>
        <time>2017-08-29T12:53:07Z</time>
      </trkpt>
      <trkpt lat="49.61138" lon="6.12918">
        <ele>278</ele>
        <time>2017-08-29T12:53:17Z</time>
      </trkpt>
      <trkpt lat="49.61144" lon="6.12911">
        <ele>277</ele>
        <time>2017-08-29T12:53:28Z</time>
      </trkpt>
      <trkpt lat="49.61145" lon="6.12906">
        <ele>278</ele>
        <time>2017-08-29T12:53:39Z</time>
      </trkpt>
      <trkpt lat="49.61151" lon="6.12898">
        <ele>277</ele>
        <time>2017-08-29T12:53:50Z</time>
      </trkpt>
      <trkpt lat="49.61154" lon="6.12892">
        <ele>277</ele>
        <time>2017-08-29T12:54:00Z</time>
      </trkpt>
      <trkpt lat="49.61155" lon="6.12889">
        <ele>278</ele>
        <time>2017-08-29T12:54:10Z</time>
      </trkpt>
      <trkpt lat="49.61153" lon="6.12887">
        <ele>277</ele>
        <time>2017-08-29T12:54:21Z</time>
      </trkpt>
      <trkpt lat="49.61148" lon="6.12888">
        <ele>278</ele>
        <time>2017-08-29T12:54:32Z</time>
      </trkpt>
      <trkpt lat="49.61148" lon="6.12888">
        <ele>278</ele>
        <time>2017-08-29T12:54:42Z</time>
      </trkpt>
      <trkpt lat="49.61139" lon="6.1289">
        <ele>278</ele>
        <time>2017-08-29T12:54:53Z</time>
      </trkpt>
      <trkpt lat="49.61133" lon="6.1289">
        <ele>277</ele>
        <time>2017-08-29T12:55:03Z</time>
      </trkpt>
      <trkpt lat="49.61129" lon="6.1289">
        <ele>278</ele>
        <time>2017-08-29T12:55:14Z</time>
      </trkpt>
      <trkpt lat="49.61129" lon="6.1289">
        <ele>278</ele>
        <time>2017-08-29T12:55:24Z</time>
      </trkpt>
      <trkpt lat="49.61133" lon="6.12891">
        <ele>278</ele>
        <time>2017-08-29T12:55:35Z</time>
      </trkpt>
      <trkpt lat="49.61135" lon="6.12891">
        <ele>278</ele>
        <time>2017-08-29T12:55:46Z</time>
      </trkpt>
      <trkpt lat="49.61139" lon="6.12891">
        <ele>278</ele>
        <time>2017-08-29T12:55:57Z</time>
      </trkpt>
      <trkpt lat="49.61138" lon="6.12894">
        <ele>278</ele>
        <time>2017-08-29T12:56:07Z</time>
      </trkpt>
      <trkpt lat="49.61142" lon="6.12895">
        <ele>278</ele>
        <time>2017-08-29T12:56:18Z</time>
      </trkpt>
      <trkpt lat="49.61142" lon="6.12899">
        <ele>278</ele>
        <time>2017-08-29T12:56:29Z</time>
      </trkpt>
      <trkpt lat="49.61137" lon="6.12901">
        <ele>278</ele>
        <time>2017-08-29T12:56:39Z</time>
      </trkpt>
      <trkpt lat="49.61131" lon="6.12904">
        <ele>278</ele>
        <time>2017-08-29T12:56:50Z</time>
      </trkpt>
      <trkpt lat="49.61129" lon="6.12904">
        <ele>278</ele>
        <time>2017-08-29T12:57:00Z</time>
      </trkpt>
      <trkpt lat="49.61122" lon="6.12904">
        <ele>277</ele>
        <time>2017-08-29T12:57:10Z</time>
      </trkpt>
      <trkpt lat="49.61118" lon="6.12905">
        <ele>278</ele>
        <time>2017-08-29T12:57:21Z</time>
      </trkpt>
      <trkpt lat="49.61118" lon="6.12905">
        <ele>278</ele>
        <time>2017-08-29T12:57:32Z</time>
      </trkpt>
      <trkpt lat="49.61119" lon="6.12905">
        <ele>278</ele>
        <time>2017-08-29T12:57:42Z</time>
      </trkpt>
      <trkpt lat="49.61123" lon="6.12902">
        <ele>278</ele>
        <time>2017-08-29T12:57:52Z</time>
      </trkpt>
      <trkpt lat="49.61128" lon="6.12899">
        <ele>278</ele>
        <time>2017-08-29T12:58:02Z</time>
      </trkpt>
      <trkpt lat="49.61125" lon="6.12903">
        <ele>278</ele>
        <time>2017-08-29T12:58:13Z</time>
      </trkpt>
      <trkpt lat="49.6112" lon="6.12908">
        <ele>278</ele>
        <time>2017-08-29T12:58:24Z</time>
      </trkpt>
      <trkpt lat="49.61118" lon="6.12907">
        <ele>278</ele>
        <time>2017-08-29T12:58:35Z</time>
      </trkpt>
      <trkpt lat="49.61128" lon="6.12902">
        <ele>277</ele>
        <time>2017-08-29T12:58:46Z</time>
      </trkpt>
      <trkpt lat="49.6113" lon="6.12901">
        <ele>278</ele>
        <time>2017-08-29T12:58:56Z</time>
      </trkpt>
      <trkpt lat="49.61126" lon="6.12901">
        <ele>278</ele>
        <time>2017-08-29T12:59:07Z</time>
      </trkpt>
      <trkpt lat="49.61126" lon="6.12901">
        <ele>278</ele>
        <time>2017-08-29T12:59:18Z</time>
      </trkpt>
      <trkpt lat="49.61129" lon="6.12899">
        <ele>278</ele>
        <time>2017-08-29T12:59:30Z</time>
      </trkpt>
      <trkpt lat="49.61129" lon="6.12901">
        <ele>278</ele>
        <time>2017-08-29T12:59:41Z</time>
      </trkpt>
      <trkpt lat="49.61134" lon="6.129">
        <ele>278</ele>
        <time>2017-08-29T12:59:51Z</time>
      </trkpt>
      <trkpt lat="49.61133" lon="6.12901">
        <ele>278</ele>
        <time>2017-08-29T13:00:02Z</time>
      </trkpt>
      <trkpt lat="49.61133" lon="6.12897">
        <ele>278</ele>
        <time>2017-08-29T13:00:12Z</time>
      </trkpt>
      <trkpt lat="49.61132" lon="6.12894">
        <ele>278</ele>
        <time>2017-08-29T13:00:23Z</time>
      </trkpt>
      <trkpt lat="49.6113" lon="6.12894">
        <ele>278</ele>
        <time>2017-08-29T13:00:34Z</time>
      </trkpt>
      <trkpt lat="49.61135" lon="6.1289">
        <ele>278</ele>
        <time>2017-08-29T13:00:45Z</time>
      </trkpt>
      <trkpt lat="49.61129" lon="6.12891">
        <ele>278</ele>
        <time>2017-08-29T13:00:56Z</time>
      </trkpt>
      <trkpt lat="49.6113" lon="6.12892">
        <ele>278</ele>
        <time>2017-08-29T13:01:07Z</time>
      </trkpt>
      <trkpt lat="49.61129" lon="6.12892">
        <ele>278</ele>
        <time>2017-08-29T13:01:17Z</time>
      </trkpt>
      <trkpt lat="49.61131" lon="6.12892">
        <ele>277</ele>
        <time>2017-08-29T13:01:28Z</time>
      </trkpt>
      <trkpt lat="49.61138" lon="6.12891">
        <ele>278</ele>
        <time>2017-08-29T13:01:38Z</time>
      </trkpt>
      <trkpt lat="49.61143" lon="6.12891">
        <ele>278</ele>
        <time>2017-08-29T13:01:49Z</time>
      </trkpt>
      <trkpt lat="49.61144" lon="6.12893">
        <ele>278</ele>
        <time>2017-08-29T13:02:00Z</time>
      </trkpt>
      <trkpt lat="49.61143" lon="6.12893">
        <ele>278</ele>
        <time>2017-08-29T13:02:11Z</time>
      </trkpt>
      <trkpt lat="49.61139" lon="6.12895">
        <ele>278</ele>
        <time>2017-08-29T13:02:21Z</time>
      </trkpt>
      <trkpt lat="49.61141" lon="6.12895">
        <ele>278</ele>
        <time>2017-08-29T13:02:32Z</time>
      </trkpt>
      <trkpt lat="49.6114" lon="6.12896">
        <ele>278</ele>
        <time>2017-08-29T13:02:43Z</time>
      </trkpt>
      <trkpt lat="49.61124" lon="6.12903">
        <ele>281</ele>
        <time>2017-08-29T13:02:54Z</time>
      </trkpt>
      <trkpt lat="49.61128" lon="6.12907">
        <ele>281</ele>
        <time>2017-08-29T13:03:05Z</time>
      </trkpt>
      <trkpt lat="49.6113" lon="6.12909">
        <ele>281</ele>
        <time>2017-08-29T13:03:16Z</time>
      </trkpt>
      <trkpt lat="49.61131" lon="6.12913">
        <ele>281</ele>
        <time>2017-08-29T13:03:26Z</time>
      </trkpt>
      <trkpt lat="49.6113" lon="6.12917">
        <ele>281</ele>
        <time>2017-08-29T13:03:37Z</time>
      </trkpt>
      <trkpt lat="49.61127" lon="6.12921">
        <ele>281</ele>
        <time>2017-08-29T13:03:48Z</time>
      </trkpt>
      <trkpt lat="49.61124" lon="6.12925">
        <ele>281</ele>
        <time>2017-08-29T13:03:59Z</time>
      </trkpt>
      <trkpt lat="49.61122" lon="6.12927">
        <ele>281</ele>
        <time>2017-08-29T13:04:10Z</time>
      </trkpt>
      <trkpt lat="49.61121" lon="6.12926">
        <ele>281</ele>
        <time>2017-08-29T13:04:20Z</time>
      </trkpt>
      <trkpt lat="49.6112" lon="6.12924">
        <ele>281</ele>
        <time>2017-08-29T13:04:31Z</time>
      </trkpt>
      <trkpt lat="49.61117" lon="6.12922">
        <ele>281</ele>
        <time>2017-08-29T13:04:42Z</time>
      </trkpt>
      <trkpt lat="49.61116" lon="6.12923">
        <ele>281</ele>
        <time>2017-08-29T13:04:53Z</time>
      </trkpt>
      <trkpt lat="49.61118" lon="6.12923">
        <ele>281</ele>
        <time>2017-08-29T13:05:04Z</time>
      </trkpt>
      <trkpt lat="49.61119" lon="6.12922">
        <ele>281</ele>
        <time>2017-08-29T13:05:14Z</time>
      </trkpt>
      <trkpt lat="49.6112" lon="6.12922">
        <ele>282</ele>
        <time>2017-08-29T13:05:25Z</time>
      </trkpt>
      <trkpt lat="49.61122" lon="6.12921">
        <ele>281</ele>
        <time>2017-08-29T13:05:36Z</time>
      </trkpt>
      <trkpt lat="49.61123" lon="6.12921">
        <ele>281</ele>
        <time>2017-08-29T13:05:47Z</time>
      </trkpt>
      <trkpt lat="49.61121" lon="6.12919">
        <ele>281</ele>
        <time>2017-08-29T13:05:58Z</time>
      </trkpt>
      <trkpt lat="49.61121" lon="6.12918">
        <ele>281</ele>
        <time>2017-08-29T13:06:09Z</time>
      </trkpt>
      <trkpt lat="49.61123" lon="6.12919">
        <ele>281</ele>
        <time>2017-08-29T13:06:19Z</time>
      </trkpt>
      <trkpt lat="49.61126" lon="6.1292">
        <ele>281</ele>
        <time>2017-08-29T13:06:30Z</time>
      </trkpt>
      <trkpt lat="49.61129" lon="6.12919">
        <ele>281</ele>
        <time>2017-08-29T13:06:40Z</time>
      </trkpt>
      <trkpt lat="49.61126" lon="6.12917">
        <ele>281</ele>
        <time>2017-08-29T13:06:51Z</time>
      </trkpt>
      <trkpt lat="49.61125" lon="6.12914">
        <ele>281</ele>
        <time>2017-08-29T13:07:02Z</time>
      </trkpt>
      <trkpt lat="49.61123" lon="6.12911">
        <ele>281</ele>
        <time>2017-08-29T13:07:13Z</time>
      </trkpt>
      <trkpt lat="49.61122" lon="6.12908">
        <ele>281</ele>
        <time>2017-08-29T13:07:23Z</time>
      </trkpt>
      <trkpt lat="49.61124" lon="6.12902">
        <ele>281</ele>
        <time>2017-08-29T13:07:34Z</time>
      </trkpt>
      <trkpt lat="49.61129" lon="6.12897">
        <ele>281</ele>
        <time>2017-08-29T13:07:45Z</time>
      </trkpt>
      <trkpt lat="49.61144" lon="6.12884">
        <ele>281</ele>
        <time>2017-08-29T13:11:07Z</time>
      </trkpt>
      <trkpt lat="49.61147" lon="6.12895">
        <ele>281</ele>
        <time>2017-08-29T13:11:17Z</time>
      </trkpt>
      <trkpt lat="49.61142" lon="6.12895">
        <ele>281</ele>
        <time>2017-08-29T13:11:28Z</time>
      </trkpt>
      <trkpt lat="49.61127" lon="6.12891">
        <ele>281</ele>
        <time>2017-08-29T13:11:38Z</time>
      </trkpt>
      <trkpt lat="49.61116" lon="6.12895">
        <ele>281</ele>
        <time>2017-08-29T13:11:48Z</time>
      </trkpt>
      <trkpt lat="49.61118" lon="6.12899">
        <ele>281</ele>
        <time>2017-08-29T13:11:59Z</time>
      </trkpt>
      <trkpt lat="49.61124" lon="6.12891">
        <ele>283</ele>
        <time>2017-08-29T13:12:10Z</time>
      </trkpt>
      <trkpt lat="49.61123" lon="6.12879">
        <ele>283</ele>
        <time>2017-08-29T13:12:21Z</time>
      </trkpt>
      <trkpt lat="49.61121" lon="6.12873">
        <ele>282</ele>
        <time>2017-08-29T13:12:31Z</time>
      </trkpt>
      <trkpt lat="49.61123" lon="6.12872">
        <ele>282</ele>
        <time>2017-08-29T13:12:41Z</time>
      </trkpt>
      <trkpt lat="49.61123" lon="6.12868">
        <ele>282</ele>
        <time>2017-08-29T13:12:52Z</time>
      </trkpt>
      <trkpt lat="49.61123" lon="6.12864">
        <ele>282</ele>
        <time>2017-08-29T13:13:03Z</time>
      </trkpt>
      <trkpt lat="49.61134" lon="6.12852">
        <ele>283</ele>
        <time>2017-08-29T13:13:14Z</time>
      </trkpt>
      <trkpt lat="49.6114" lon="6.12843">
        <ele>283</ele>
        <time>2017-08-29T13:13:24Z</time>
      </trkpt>
      <trkpt lat="49.6114" lon="6.12829">
        <ele>283</ele>
        <time>2017-08-29T13:13:35Z</time>
      </trkpt>
      <trkpt lat="49.61142" lon="6.1282">
        <ele>283</ele>
        <time>2017-08-29T13:13:45Z</time>
      </trkpt>
      <trkpt lat="49.61145" lon="6.12812">
        <ele>283</ele>
        <time>2017-08-29T13:13:56Z</time>
      </trkpt>
      <trkpt lat="49.61151" lon="6.12811">
        <ele>283</ele>
        <time>2017-08-29T13:14:06Z</time>
      </trkpt>
      <trkpt lat="49.61159" lon="6.12807">
        <ele>284</ele>
        <time>2017-08-29T13:14:17Z</time>
      </trkpt>
      <trkpt lat="49.61169" lon="6.12807">
        <ele>284</ele>
        <time>2017-08-29T13:14:27Z</time>
      </trkpt>
      <trkpt lat="49.6118" lon="6.12809">
        <ele>285</ele>
        <time>2017-08-29T13:14:37Z</time>
      </trkpt>
      <trkpt lat="49.61194" lon="6.12813">
        <ele>285</ele>
        <time>2017-08-29T13:14:48Z</time>
      </trkpt>
      <trkpt lat="49.61203" lon="6.12815">
        <ele>285</ele>
        <time>2017-08-29T13:14:58Z</time>
      </trkpt>
      <trkpt lat="49.61208" lon="6.12815">
        <ele>285</ele>
        <time>2017-08-29T13:15:08Z</time>
      </trkpt>
      <trkpt lat="49.61213" lon="6.12816">
        <ele>285</ele>
        <time>2017-08-29T13:15:18Z</time>
      </trkpt>
      <trkpt lat="49.61216" lon="6.12815">
        <ele>285</ele>
        <time>2017-08-29T13:15:29Z</time>
      </trkpt>
      <trkpt lat="49.6122" lon="6.12816">
        <ele>285</ele>
        <time>2017-08-29T13:15:40Z</time>
      </trkpt>
      <trkpt lat="49.61225" lon="6.12817">
        <ele>285</ele>
        <time>2017-08-29T13:15:50Z</time>
      </trkpt>
      <trkpt lat="49.61232" lon="6.12818">
        <ele>286</ele>
        <time>2017-08-29T13:16:01Z</time>
      </trkpt>
      <trkpt lat="49.6124" lon="6.1282">
        <ele>285</ele>
        <time>2017-08-29T13:16:12Z</time>
      </trkpt>
      <trkpt lat="49.61245" lon="6.12818">
        <ele>286</ele>
        <time>2017-08-29T13:16:22Z</time>
      </trkpt>
      <trkpt lat="49.6125" lon="6.128">
        <ele>285</ele>
        <time>2017-08-29T13:16:32Z</time>
      </trkpt>
      <trkpt lat="49.61255" lon="6.12786">
        <ele>285</ele>
        <time>2017-08-29T13:16:43Z</time>
      </trkpt>
      <trkpt lat="49.61259" lon="6.12772">
        <ele>286</ele>
        <time>2017-08-29T13:16:54Z</time>
      </trkpt>
      <trkpt lat="49.6126" lon="6.12758">
        <ele>286</ele>
        <time>2017-08-29T13:17:04Z</time>
      </trkpt>
      <trkpt lat="49.61261" lon="6.12767">
        <ele>285</ele>
        <time>2017-08-29T13:17:14Z</time>
      </trkpt>
      <trkpt lat="49.61266" lon="6.12784">
        <ele>285</ele>
        <time>2017-08-29T13:17:25Z</time>
      </trkpt>
      <trkpt lat="49.61271" lon="6.12792">
        <ele>285</ele>
        <time>2017-08-29T13:17:35Z</time>
      </trkpt>
      <trkpt lat="49.61274" lon="6.12797">
        <ele>285</ele>
        <time>2017-08-29T13:17:45Z</time>
      </trkpt>
      <trkpt lat="49.6128" lon="6.12806">
        <ele>286</ele>
        <time>2017-08-29T13:17:56Z</time>
      </trkpt>
      <trkpt lat="49.61289" lon="6.12811">
        <ele>286</ele>
        <time>2017-08-29T13:18:07Z</time>
      </trkpt>
      <trkpt lat="49.61298" lon="6.12816">
        <ele>286</ele>
        <time>2017-08-29T13:18:17Z</time>
      </trkpt>
      <trkpt lat="49.61303" lon="6.12817">
        <ele>286</ele>
        <time>2017-08-29T13:18:27Z</time>
      </trkpt>
      <trkpt lat="49.61305" lon="6.12821">
        <ele>286</ele>
        <time>2017-08-29T13:18:37Z</time>
      </trkpt>
      <trkpt lat="49.6131" lon="6.12831">
        <ele>286</ele>
        <time>2017-08-29T13:18:48Z</time>
      </trkpt>
      <trkpt lat="49.61312" lon="6.12845">
        <ele>286</ele>
        <time>2017-08-29T13:18:59Z</time>
      </trkpt>
      <trkpt lat="49.61312" lon="6.12856">
        <ele>286</ele>
        <time>2017-08-29T13:19:09Z</time>
      </trkpt>
      <trkpt lat="49.61312" lon="6.12869">
        <ele>286</ele>
        <time>2017-08-29T13:19:19Z</time>
      </trkpt>
      <trkpt lat="49.61311" lon="6.12877">
        <ele>286</ele>
        <time>2017-08-29T13:19:29Z</time>
      </trkpt>
      <trkpt lat="49.61309" lon="6.12884">
        <ele>286</ele>
        <time>2017-08-29T13:19:40Z</time>
      </trkpt>
      <trkpt lat="49.61306" lon="6.12888">
        <ele>286</ele>
        <time>2017-08-29T13:19:50Z</time>
      </trkpt>
      <trkpt lat="49.61307" lon="6.12894">
        <ele>286</ele>
        <time>2017-08-29T13:20:01Z</time>
      </trkpt>
      <trkpt lat="49.61307" lon="6.12906">
        <ele>286</ele>
        <time>2017-08-29T13:20:12Z</time>
      </trkpt>
      <trkpt lat="49.61305" lon="6.12911">
        <ele>286</ele>
        <time>2017-08-29T13:20:23Z</time>
      </trkpt>
      <trkpt lat="49.61302" lon="6.12923">
        <ele>287</ele>
        <time>2017-08-29T13:20:34Z</time>
      </trkpt>
      <trkpt lat="49.61303" lon="6.12934">
        <ele>287</ele>
        <time>2017-08-29T13:20:44Z</time>
      </trkpt>
      <trkpt lat="49.61303" lon="6.12941">
        <ele>287</ele>
        <time>2017-08-29T13:20:54Z</time>
      </trkpt>
      <trkpt lat="49.61302" lon="6.12951">
        <ele>287</ele>
        <time>2017-08-29T13:21:05Z</time>
      </trkpt>
      <trkpt lat="49.61303" lon="6.12959">
        <ele>287</ele>
        <time>2017-08-29T13:21:16Z</time>
      </trkpt>
      <trkpt lat="49.61303" lon="6.12968">
        <ele>287</ele>
        <time>2017-08-29T13:21:26Z</time>
      </trkpt>
      <trkpt lat="49.61298" lon="6.12976">
        <ele>286</ele>
        <time>2017-08-29T13:21:36Z</time>
      </trkpt>
      <trkpt lat="49.61293" lon="6.1298">
        <ele>287</ele>
        <time>2017-08-29T13:21:46Z</time>
      </trkpt>
      <trkpt lat="49.61288" lon="6.12982">
        <ele>287</ele>
        <time>2017-08-29T13:21:56Z</time>
      </trkpt>
      <trkpt lat="49.61283" lon="6.12985">
        <ele>287</ele>
        <time>2017-08-29T13:22:07Z</time>
      </trkpt>
      <trkpt lat="49.61277" lon="6.12983">
        <ele>287</ele>
        <time>2017-08-29T13:22:17Z</time>
      </trkpt>
      <trkpt lat="49.6127" lon="6.12979">
        <ele>287</ele>
        <time>2017-08-29T13:22:28Z</time>
      </trkpt>
      <trkpt lat="49.61266" lon="6.12978">
        <ele>287</ele>
        <time>2017-08-29T13:22:38Z</time>
      </trkpt>
      <trkpt lat="49.61264" lon="6.12978">
        <ele>287</ele>
        <time>2017-08-29T13:22:49Z</time>
      </trkpt>
      <trkpt lat="49.6126" lon="6.12982">
        <ele>287</ele>
        <time>2017-08-29T13:22:59Z</time>
      </trkpt>
      <trkpt lat="49.61258" lon="6.12988">
        <ele>287</ele>
        <time>2017-08-29T13:23:10Z</time>
      </trkpt>
      <trkpt lat="49.61259" lon="6.12988">
        <ele>287</ele>
        <time>2017-08-29T13:23:21Z</time>
      </trkpt>
      <trkpt lat="49.61259" lon="6.12986">
        <ele>287</ele>
        <time>2017-08-29T13:23:32Z</time>
      </trkpt>
      <trkpt lat="49.61258" lon="6.12987">
        <ele>287</ele>
        <time>2017-08-29T13:23:42Z</time>
      </trkpt>
      <trkpt lat="49.61257" lon="6.12982">
        <ele>287</ele>
        <time>2017-08-29T13:23:52Z</time>
      </trkpt>
      <trkpt lat="49.61255" lon="6.1298">
        <ele>287</ele>
        <time>2017-08-29T13:24:03Z</time>
      </trkpt>
      <trkpt lat="49.61255" lon="6.12977">
        <ele>287</ele>
        <time>2017-08-29T13:24:14Z</time>
      </trkpt>
      <trkpt lat="49.61254" lon="6.12978">
        <ele>287</ele>
        <time>2017-08-29T13:24:24Z</time>
      </trkpt>
      <trkpt lat="49.61258" lon="6.12978">
        <ele>288</ele>
        <time>2017-08-29T13:24:35Z</time>
      </trkpt>
      <trkpt lat="49.61264" lon="6.12984">
        <ele>287</ele>
        <time>2017-08-29T13:24:45Z</time>
      </trkpt>
      <trkpt lat="49.61265" lon="6.1299">
        <ele>287</ele>
        <time>2017-08-29T13:24:56Z</time>
      </trkpt>
      <trkpt lat="49.61261" lon="6.12992">
        <ele>287</ele>
        <time>2017-08-29T13:25:07Z</time>
      </trkpt>
      <trkpt lat="49.61256" lon="6.1299">
        <ele>287</ele>
        <time>2017-08-29T13:25:17Z</time>
      </trkpt>
      <trkpt lat="49.61246" lon="6.12982">
        <ele>287</ele>
        <time>2017-08-29T13:25:28Z</time>
      </trkpt>
      <trkpt lat="49.61234" lon="6.12979">
        <ele>287</ele>
        <time>2017-08-29T13:25:38Z</time>
      </trkpt>
      <trkpt lat="49.61223" lon="6.12977">
        <ele>287</ele>
        <time>2017-08-29T13:25:49Z</time>
      </trkpt>
      <trkpt lat="49.61215" lon="6.12974">
        <ele>287</ele>
        <time>2017-08-29T13:26:00Z</time>
      </trkpt>
      <trkpt lat="49.61208" lon="6.12972">
        <ele>286</ele>
        <time>2017-08-29T13:26:11Z</time>
      </trkpt>
      <trkpt lat="49.61201" lon="6.12976">
        <ele>285</ele>
        <time>2017-08-29T13:26:21Z</time>
      </trkpt>
      <trkpt lat="49.61192" lon="6.12981">
        <ele>286</ele>
        <time>2017-08-29T13:26:31Z</time>
      </trkpt>
      <trkpt lat="49.61178" lon="6.12981">
        <ele>285</ele>
        <time>2017-08-29T13:26:42Z</time>
      </trkpt>
      <trkpt lat="49.61166" lon="6.12976">
        <ele>285</ele>
        <time>2017-08-29T13:26:52Z</time>
      </trkpt>
      <trkpt lat="49.61159" lon="6.12971">
        <ele>284</ele>
        <time>2017-08-29T13:27:03Z</time>
      </trkpt>
      <trkpt lat="49.61152" lon="6.12962">
        <ele>285</ele>
        <time>2017-08-29T13:27:13Z</time>
      </trkpt>
      <trkpt lat="49.61144" lon="6.12959">
        <ele>285</ele>
        <time>2017-08-29T13:27:24Z</time>
      </trkpt>
      <trkpt lat="49.61142" lon="6.12963">
        <ele>285</ele>
        <time>2017-08-29T13:27:35Z</time>
      </trkpt>
      <trkpt lat="49.6114" lon="6.12961">
        <ele>285</ele>
        <time>2017-08-29T13:27:45Z</time>
      </trkpt>
      <trkpt lat="49.61139" lon="6.12958">
        <ele>285</ele>
        <time>2017-08-29T13:27:56Z</time>
      </trkpt>
      <trkpt lat="49.61139" lon="6.12961">
        <ele>284</ele>
        <time>2017-08-29T13:28:07Z</time>
      </trkpt>
      <trkpt lat="49.61137" lon="6.12962">
        <ele>284</ele>
        <time>2017-08-29T13:28:18Z</time>
      </trkpt>
      <trkpt lat="49.61136" lon="6.12963">
        <ele>284</ele>
        <time>2017-08-29T13:28:29Z</time>
      </trkpt>
      <trkpt lat="49.61139" lon="6.12968">
        <ele>284</ele>
        <time>2017-08-29T13:28:39Z</time>
      </trkpt>
      <trkpt lat="49.6114" lon="6.12973">
        <ele>284</ele>
        <time>2017-08-29T13:28:50Z</time>
      </trkpt>
      <trkpt lat="49.6114" lon="6.12975">
        <ele>285</ele>
        <time>2017-08-29T13:29:01Z</time>
      </trkpt>
      <trkpt lat="49.61138" lon="6.12975">
        <ele>284</ele>
        <time>2017-08-29T13:29:11Z</time>
      </trkpt>
      <trkpt lat="49.61136" lon="6.12971">
        <ele>284</ele>
        <time>2017-08-29T13:29:21Z</time>
      </trkpt>
      <trkpt lat="49.61135" lon="6.12972">
        <ele>284</ele>
        <time>2017-08-29T13:29:32Z</time>
      </trkpt>
      <trkpt lat="49.61138" lon="6.12976">
        <ele>284</ele>
        <time>2017-08-29T13:29:43Z</time>
      </trkpt>
      <trkpt lat="49.61143" lon="6.12983">
        <ele>284</ele>
        <time>2017-08-29T13:29:53Z</time>
      </trkpt>
      <trkpt lat="49.61147" lon="6.12987">
        <ele>285</ele>
        <time>2017-08-29T13:30:04Z</time>
      </trkpt>
      <trkpt lat="49.61145" lon="6.12991">
        <ele>285</ele>
        <time>2017-08-29T13:30:14Z</time>
      </trkpt>
      <trkpt lat="49.61146" lon="6.13004">
        <ele>285</ele>
        <time>2017-08-29T13:30:25Z</time>
      </trkpt>
      <trkpt lat="49.61144" lon="6.13016">
        <ele>285</ele>
        <time>2017-08-29T13:30:35Z</time>
      </trkpt>
      <trkpt lat="49.61134" lon="6.13028">
        <ele>285</ele>
        <time>2017-08-29T13:30:46Z</time>
      </trkpt>
      <trkpt lat="49.6113" lon="6.13043">
        <ele>286</ele>
        <time>2017-08-29T13:30:57Z</time>
      </trkpt>
      <trkpt lat="49.61129" lon="6.13064">
        <ele>286</ele>
        <time>2017-08-29T13:31:07Z</time>
      </trkpt>
      <trkpt lat="49.61129" lon="6.13084">
        <ele>286</ele>
        <time>2017-08-29T13:31:18Z</time>
      </trkpt>
      <trkpt lat="49.61132" lon="6.13098">
        <ele>286</ele>
        <time>2017-08-29T13:31:29Z</time>
      </trkpt>
      <trkpt lat="49.61136" lon="6.13111">
        <ele>286</ele>
        <time>2017-08-29T13:31:40Z</time>
      </trkpt>
      <trkpt lat="49.61139" lon="6.13115">
        <ele>287</ele>
        <time>2017-08-29T13:31:50Z</time>
      </trkpt>
      <trkpt lat="49.61143" lon="6.13126">
        <ele>286</ele>
        <time>2017-08-29T13:32:01Z</time>
      </trkpt>
      <trkpt lat="49.61142" lon="6.13132">
        <ele>287</ele>
        <time>2017-08-29T13:32:12Z</time>
      </trkpt>
      <trkpt lat="49.61137" lon="6.13139">
        <ele>287</ele>
        <time>2017-08-29T13:32:22Z</time>
      </trkpt>
      <trkpt lat="49.61131" lon="6.13149">
        <ele>286</ele>
        <time>2017-08-29T13:32:33Z</time>
      </trkpt>
      <trkpt lat="49.61123" lon="6.13164">
        <ele>286</ele>
        <time>2017-08-29T13:32:43Z</time>
      </trkpt>
      <trkpt lat="49.61114" lon="6.13171">
        <ele>285</ele>
        <time>2017-08-29T13:32:54Z</time>
      </trkpt>
      <trkpt lat="49.61106" lon="6.13173">
        <ele>285</ele>
        <time>2017-08-29T13:33:04Z</time>
      </trkpt>
      <trkpt lat="49.61095" lon="6.13173">
        <ele>285</ele>
        <time>2017-08-29T13:33:14Z</time>
      </trkpt>
      <trkpt lat="49.61084" lon="6.13177">
        <ele>285</ele>
        <time>2017-08-29T13:33:25Z</time>
      </trkpt>
      <trkpt lat="49.6108" lon="6.1318">
        <ele>284</ele>
        <time>2017-08-29T13:33:35Z</time>
      </trkpt>
      <trkpt lat="49.61073" lon="6.13175">
        <ele>284</ele>
        <time>2017-08-29T13:33:45Z</time>
      </trkpt>
      <trkpt lat="49.6106" lon="6.13169">
        <ele>283</ele>
        <time>2017-08-29T13:33:56Z</time>
      </trkpt>
      <trkpt lat="49.61049" lon="6.13166">
        <ele>283</ele>
        <time>2017-08-29T13:34:07Z</time>
      </trkpt>
      <trkpt lat="49.61042" lon="6.13175">
        <ele>283</ele>
        <time>2017-08-29T13:34:17Z</time>
      </trkpt>
      <trkpt lat="49.61034" lon="6.13184">
        <ele>282</ele>
        <time>2017-08-29T13:34:27Z</time>
      </trkpt>
      <trkpt lat="49.61027" lon="6.13189">
        <ele>282</ele>
        <time>2017-08-29T13:34:38Z</time>
      </trkpt>
      <trkpt lat="49.61023" lon="6.13193">
        <ele>283</ele>
        <time>2017-08-29T13:34:48Z</time>
      </trkpt>
      <trkpt lat="49.61015" lon="6.13198">
        <ele>282</ele>
        <time>2017-08-29T13:34:59Z</time>
      </trkpt>
      <trkpt lat="49.61013" lon="6.13204">
        <ele>282</ele>
        <time>2017-08-29T13:35:09Z</time>
      </trkpt>
      <trkpt lat="49.61013" lon="6.13211">
        <ele>282</ele>
        <time>2017-08-29T13:35:20Z</time>
      </trkpt>
      <trkpt lat="49.61014" lon="6.13218">
        <ele>282</ele>
        <time>2017-08-29T13:35:30Z</time>
      </trkpt>
      <trkpt lat="49.61015" lon="6.1322">
        <ele>281</ele>
        <time>2017-08-29T13:35:41Z</time>
      </trkpt>
      <trkpt lat="49.61015" lon="6.13218">
        <ele>281</ele>
        <time>2017-08-29T13:35:52Z</time>
      </trkpt>
      <trkpt lat="49.61012" lon="6.13211">
        <ele>281</ele>
        <time>2017-08-29T13:36:02Z</time>
      </trkpt>
      <trkpt lat="49.61009" lon="6.13205">
        <ele>281</ele>
        <time>2017-08-29T13:36:13Z</time>
      </trkpt>
      <trkpt lat="49.61016" lon="6.13189">
        <ele>281</ele>
        <time>2017-08-29T13:36:24Z</time>
      </trkpt>
      <trkpt lat="49.61021" lon="6.13182">
        <ele>281</ele>
        <time>2017-08-29T13:36:34Z</time>
      </trkpt>
      <trkpt lat="49.61021" lon="6.13175">
        <ele>281</ele>
        <time>2017-08-29T13:36:44Z</time>
      </trkpt>
      <trkpt lat="49.61007" lon="6.13173">
        <ele>281</ele>
        <time>2017-08-29T13:36:55Z</time>
      </trkpt>
      <trkpt lat="49.60999" lon="6.1317">
        <ele>281</ele>
        <time>2017-08-29T13:37:06Z</time>
      </trkpt>
      <trkpt lat="49.60994" lon="6.13163">
        <ele>281</ele>
        <time>2017-08-29T13:37:16Z</time>
      </trkpt>
      <trkpt lat="49.60984" lon="6.13159">
        <ele>281</ele>
        <time>2017-08-29T13:37:26Z</time>
      </trkpt>
      <trkpt lat="49.60993" lon="6.13158">
        <ele>281</ele>
        <time>2017-08-29T13:37:37Z</time>
      </trkpt>
      <trkpt lat="49.61004" lon="6.13152">
        <ele>281</ele>
        <time>2017-08-29T13:37:47Z</time>
      </trkpt>
      <trkpt lat="49.61015" lon="6.13149">
        <ele>281</ele>
        <time>2017-08-29T13:37:58Z</time>
      </trkpt>
      <trkpt lat="49.61018" lon="6.13147">
        <ele>281</ele>
        <time>2017-08-29T13:38:08Z</time>
      </trkpt>
      <trkpt lat="49.61025" lon="6.13145">
        <ele>281</ele>
        <time>2017-08-29T13:38:19Z</time>
      </trkpt>
      <trkpt lat="49.61028" lon="6.13143">
        <ele>280</ele>
        <time>2017-08-29T13:38:29Z</time>
      </trkpt>
      <trkpt lat="49.61031" lon="6.13142">
        <ele>280</ele>
        <time>2017-08-29T13:38:40Z</time>
      </trkpt>
      <trkpt lat="49.61034" lon="6.13134">
        <ele>281</ele>
        <time>2017-08-29T13:38:51Z</time>
      </trkpt>
      <trkpt lat="49.6104" lon="6.13124">
        <ele>281</ele>
        <time>2017-08-29T13:39:02Z</time>
      </trkpt>
      <trkpt lat="49.61035" lon="6.13112">
        <ele>280</ele>
        <time>2017-08-29T13:39:13Z</time>
      </trkpt>
      <trkpt lat="49.61026" lon="6.13102">
        <ele>280</ele>
        <time>2017-08-29T13:39:23Z</time>
      </trkpt>
      <trkpt lat="49.61019" lon="6.13089">
        <ele>280</ele>
        <time>2017-08-29T13:39:33Z</time>
      </trkpt>
      <trkpt lat="49.61016" lon="6.13079">
        <ele>280</ele>
        <time>2017-08-29T13:39:44Z</time>
      </trkpt>
      <trkpt lat="49.61014" lon="6.13065">
        <ele>280</ele>
        <time>2017-08-29T13:39:55Z</time>
      </trkpt>
      <trkpt lat="49.61013" lon="6.13061">
        <ele>280</ele>
        <time>2017-08-29T13:40:05Z</time>
      </trkpt>
      <trkpt lat="49.61016" lon="6.1305">
        <ele>280</ele>
        <time>2017-08-29T13:40:15Z</time>
      </trkpt>
      <trkpt lat="49.6102" lon="6.13031">
        <ele>279</ele>
        <time>2017-08-29T13:40:26Z</time>
      </trkpt>
      <trkpt lat="49.61016" lon="6.13015">
        <ele>279</ele>
        <time>2017-08-29T13:40:37Z</time>
      </trkpt>
      <trkpt lat="49.61012" lon="6.13003">
        <ele>280</ele>
        <time>2017-08-29T13:40:47Z</time>
      </trkpt>
      <trkpt lat="49.61012" lon="6.12994">
        <ele>279</ele>
        <time>2017-08-29T13:40:58Z</time>
      </trkpt>
      <trkpt lat="49.61013" lon="6.12989">
        <ele>280</ele>
        <time>2017-08-29T13:41:08Z</time>
      </trkpt>
      <trkpt lat="49.6101" lon="6.12979">
        <ele>280</ele>
        <time>2017-08-29T13:41:19Z</time>
      </trkpt>
      <trkpt lat="49.61011" lon="6.12974">
        <ele>281</ele>
        <time>2017-08-29T13:41:29Z</time>
      </trkpt>
      <trkpt lat="49.61018" lon="6.12971">
        <ele>281</ele>
        <time>2017-08-29T13:41:41Z</time>
      </trkpt>
      <trkpt lat="49.61024" lon="6.12951">
        <ele>281</ele>
        <time>2017-08-29T13:41:52Z</time>
      </trkpt>
      <trkpt lat="49.61038" lon="6.13175">
        <ele>281</ele>
        <time>2017-08-29T13:42:37Z</time>
      </trkpt>
      <trkpt lat="49.61021" lon="6.12991">
        <ele>281</ele>
        <time>2017-08-29T13:42:47Z</time>
      </trkpt>
      <trkpt lat="49.61022" lon="6.12983">
        <ele>280</ele>
        <time>2017-08-29T13:42:57Z</time>
      </trkpt>
      <trkpt lat="49.61015" lon="6.12974">
        <ele>280</ele>
        <time>2017-08-29T13:43:08Z</time>
      </trkpt>
      <trkpt lat="49.61009" lon="6.12972">
        <ele>280</ele>
        <time>2017-08-29T13:43:19Z</time>
      </trkpt>
      <trkpt lat="49.61009" lon="6.12969">
        <ele>280</ele>
        <time>2017-08-29T13:43:29Z</time>
      </trkpt>
      <trkpt lat="49.60998" lon="6.12963">
        <ele>280</ele>
        <time>2017-08-29T13:43:40Z</time>
      </trkpt>
      <trkpt lat="49.60984" lon="6.1296">
        <ele>280</ele>
        <time>2017-08-29T13:43:51Z</time>
      </trkpt>
      <trkpt lat="49.60975" lon="6.12956">
        <ele>280</ele>
        <time>2017-08-29T13:44:02Z</time>
      </trkpt>
      <trkpt lat="49.6097" lon="6.12957">
        <ele>280</ele>
        <time>2017-08-29T13:44:12Z</time>
      </trkpt>
      <trkpt lat="49.60966" lon="6.12956">
        <ele>280</ele>
        <time>2017-08-29T13:44:23Z</time>
      </trkpt>
      <trkpt lat="49.60963" lon="6.12956">
        <ele>280</ele>
        <time>2017-08-29T13:44:34Z</time>
      </trkpt>
      <trkpt lat="49.60962" lon="6.12958">
        <ele>280</ele>
        <time>2017-08-29T13:44:44Z</time>
      </trkpt>
      <trkpt lat="49.6096" lon="6.12962">
        <ele>280</ele>
        <time>2017-08-29T13:44:55Z</time>
      </trkpt>
      <trkpt lat="49.6096" lon="6.12958">
        <ele>280</ele>
        <time>2017-08-29T13:45:05Z</time>
      </trkpt>
      <trkpt lat="49.60952" lon="6.12954">
        <ele>280</ele>
        <time>2017-08-29T13:45:15Z</time>
      </trkpt>
      <trkpt lat="49.60937" lon="6.12945">
        <ele>279</ele>
        <time>2017-08-29T13:45:26Z</time>
      </trkpt>
      <trkpt lat="49.60928" lon="6.12943">
        <ele>280</ele>
        <time>2017-08-29T13:45:37Z</time>
      </trkpt>
      <trkpt lat="49.60923" lon="6.1294">
        <ele>280</ele>
        <time>2017-08-29T13:45:48Z</time>
      </trkpt>
      <trkpt lat="49.60918" lon="6.12936">
        <ele>280</ele>
        <time>2017-08-29T13:45:59Z</time>
      </trkpt>
      <trkpt lat="49.60916" lon="6.12934">
        <ele>279</ele>
        <time>2017-08-29T13:46:10Z</time>
      </trkpt>
      <trkpt lat="49.60913" lon="6.12934">
        <ele>280</ele>
        <time>2017-08-29T13:46:20Z</time>
      </trkpt>
      <trkpt lat="49.60911" lon="6.12931">
        <ele>279</ele>
        <time>2017-08-29T13:46:31Z</time>
      </trkpt>
      <trkpt lat="49.6091" lon="6.1293">
        <ele>280</ele>
        <time>2017-08-29T13:46:42Z</time>
      </trkpt>
      <trkpt lat="49.60909" lon="6.1293">
        <ele>280</ele>
        <time>2017-08-29T13:46:53Z</time>
      </trkpt>
      <trkpt lat="49.60908" lon="6.1293">
        <ele>280</ele>
        <time>2017-08-29T13:47:04Z</time>
      </trkpt>
      <trkpt lat="49.60907" lon="6.12931">
        <ele>280</ele>
        <time>2017-08-29T13:47:14Z</time>
      </trkpt>
      <trkpt lat="49.60905" lon="6.1293">
        <ele>280</ele>
        <time>2017-08-29T13:47:24Z</time>
      </trkpt>
      <trkpt lat="49.60905" lon="6.12932">
        <ele>279</ele>
        <time>2017-08-29T13:47:35Z</time>
      </trkpt>
      <trkpt lat="49.60905" lon="6.12934">
        <ele>280</ele>
        <time>2017-08-29T13:47:45Z</time>
      </trkpt>
      <trkpt lat="49.60905" lon="6.12934">
        <ele>280</ele>
        <time>2017-08-29T13:47:56Z</time>
      </trkpt>
      <trkpt lat="49.60906" lon="6.12934">
        <ele>280</ele>
        <time>2017-08-29T13:48:07Z</time>
      </trkpt>
      <trkpt lat="49.60904" lon="6.12933">
        <ele>280</ele>
        <time>2017-08-29T13:48:17Z</time>
      </trkpt>
      <trkpt lat="49.60907" lon="6.1293">
        <ele>280</ele>
        <time>2017-08-29T13:48:28Z</time>
      </trkpt>
      <trkpt lat="49.60909" lon="6.12935">
        <ele>280</ele>
        <time>2017-08-29T13:48:39Z</time>
      </trkpt>
      <trkpt lat="49.60916" lon="6.12957">
        <ele>280</ele>
        <time>2017-08-29T13:48:50Z</time>
      </trkpt>
      <trkpt lat="49.60927" lon="6.12981">
        <ele>281</ele>
        <time>2017-08-29T13:49:01Z</time>
      </trkpt>
      <trkpt lat="49.60919" lon="6.12988">
        <ele>280</ele>
        <time>2017-08-29T13:49:12Z</time>
      </trkpt>
      <trkpt lat="49.60904" lon="6.1295">
        <ele>280</ele>
        <time>2017-08-29T13:49:22Z</time>
      </trkpt>
      <trkpt lat="49.60915" lon="6.12908">
        <ele>280</ele>
        <time>2017-08-29T13:49:33Z</time>
      </trkpt>
      <trkpt lat="49.60936" lon="6.12877">
        <ele>280</ele>
        <time>2017-08-29T13:49:43Z</time>
      </trkpt>
      <trkpt lat="49.60956" lon="6.12869">
        <ele>279</ele>
        <time>2017-08-29T13:49:54Z</time>
      </trkpt>
      <trkpt lat="49.60964" lon="6.12803">
        <ele>279</ele>
        <time>2017-08-29T13:50:05Z</time>
      </trkpt>
      <trkpt lat="49.60963" lon="6.12729">
        <ele>279</ele>
        <time>2017-08-29T13:50:15Z</time>
      </trkpt>
      <trkpt lat="49.60952" lon="6.12598">
        <ele>280</ele>
        <time>2017-08-29T13:50:26Z</time>
      </trkpt>
      <trkpt lat="49.60916" lon="6.12511">
        <ele>277</ele>
        <time>2017-08-29T13:50:37Z</time>
      </trkpt>
      <trkpt lat="49.60964" lon="6.12461">
        <ele>278</ele>
        <time>2017-08-29T13:50:48Z</time>
      </trkpt>
      <trkpt lat="49.60997" lon="6.12441">
        <ele>279</ele>
        <time>2017-08-29T13:50:58Z</time>
      </trkpt>
      <trkpt lat="49.61008" lon="6.1245">
        <ele>280</ele>
        <time>2017-08-29T13:51:09Z</time>
      </trkpt>
      <trkpt lat="49.61011" lon="6.12447">
        <ele>280</ele>
        <time>2017-08-29T13:51:20Z</time>
      </trkpt>
      <trkpt lat="49.61033" lon="6.12445">
        <ele>280</ele>
        <time>2017-08-29T13:51:30Z</time>
      </trkpt>
      <trkpt lat="49.61089" lon="6.12429">
        <ele>281</ele>
        <time>2017-08-29T13:51:40Z</time>
      </trkpt>
      <trkpt lat="49.6115" lon="6.124">
        <ele>283</ele>
        <time>2017-08-29T13:51:51Z</time>
      </trkpt>
      <trkpt lat="49.61183" lon="6.12403">
        <ele>284</ele>
        <time>2017-08-29T13:52:01Z</time>
      </trkpt>
      <trkpt lat="49.61226" lon="6.12414">
        <ele>285</ele>
        <time>2017-08-29T13:52:11Z</time>
      </trkpt>
      <trkpt lat="49.61245" lon="6.12339">
        <ele>286</ele>
        <time>2017-08-29T13:52:21Z</time>
      </trkpt>
      <trkpt lat="49.61258" lon="6.12234">
        <ele>286</ele>
        <time>2017-08-29T13:52:32Z</time>
      </trkpt>
      <trkpt lat="49.61291" lon="6.12131">
        <ele>285</ele>
        <time>2017-08-29T13:52:42Z</time>
      </trkpt>
      <trkpt lat="49.61319" lon="6.12075">
        <ele>282</ele>
        <time>2017-08-29T13:52:53Z</time>
      </trkpt>
      <trkpt lat="49.61331" lon="6.12037">
        <ele>281</ele>
        <time>2017-08-29T13:53:03Z</time>
      </trkpt>
      <trkpt lat="49.61336" lon="6.12032">
        <ele>281</ele>
        <time>2017-08-29T13:53:13Z</time>
      </trkpt>
      <trkpt lat="49.61336" lon="6.12026">
        <ele>281</ele>
        <time>2017-08-29T13:53:24Z</time>
      </trkpt>
      <trkpt lat="49.61335" lon="6.12026">
        <ele>281</ele>
        <time>2017-08-29T13:53:34Z</time>
      </trkpt>
      <trkpt lat="49.61332" lon="6.12024">
        <ele>281</ele>
        <time>2017-08-29T13:53:44Z</time>
      </trkpt>
      <trkpt lat="49.61329" lon="6.12022">
        <ele>281</ele>
        <time>2017-08-29T13:53:55Z</time>
      </trkpt>
      <trkpt lat="49.6133" lon="6.12014">
        <ele>281</ele>
        <time>2017-08-29T13:54:05Z</time>
      </trkpt>
      <trkpt lat="49.61353" lon="6.11896">
        <ele>280</ele>
        <time>2017-08-29T13:54:16Z</time>
      </trkpt>
      <trkpt lat="49.61356" lon="6.11857">
        <ele>276</ele>
        <time>2017-08-29T13:54:26Z</time>
      </trkpt>
      <trkpt lat="49.61367" lon="6.11775">
        <ele>276</ele>
        <time>2017-08-29T13:54:37Z</time>
      </trkpt>
      <trkpt lat="49.61374" lon="6.117">
        <ele>277</ele>
        <time>2017-08-29T13:54:48Z</time>
      </trkpt>
      <trkpt lat="49.61384" lon="6.11637">
        <ele>280</ele>
        <time>2017-08-29T13:54:58Z</time>
      </trkpt>
      <trkpt lat="49.61398" lon="6.11549">
        <ele>282</ele>
        <time>2017-08-29T13:55:09Z</time>
      </trkpt>
      <trkpt lat="49.61416" lon="6.11457">
        <ele>286</ele>
        <time>2017-08-29T13:55:19Z</time>
      </trkpt>
      <trkpt lat="49.6144" lon="6.11321">
        <ele>290</ele>
        <time>2017-08-29T13:55:29Z</time>
      </trkpt>
      <trkpt lat="49.61467" lon="6.11131">
        <ele>294</ele>
        <time>2017-08-29T13:55:40Z</time>
      </trkpt>
      <trkpt lat="49.61489" lon="6.10972">
        <ele>296</ele>
        <time>2017-08-29T13:55:50Z</time>
      </trkpt>
      <trkpt lat="49.61507" lon="6.1082">
        <ele>299</ele>
        <time>2017-08-29T13:56:00Z</time>
      </trkpt>
      <trkpt lat="49.61531" lon="6.10648">
        <ele>302</ele>
        <time>2017-08-29T13:56:11Z</time>
      </trkpt>
      <trkpt lat="49.6156" lon="6.10459">
        <ele>307</ele>
        <time>2017-08-29T13:56:22Z</time>
      </trkpt>
      <trkpt lat="49.61583" lon="6.1029">
        <ele>310</ele>
        <time>2017-08-29T13:56:33Z</time>
      </trkpt>
      <trkpt lat="49.61607" lon="6.10119">
        <ele>309</ele>
        <time>2017-08-29T13:56:44Z</time>
      </trkpt>
      <trkpt lat="49.61628" lon="6.09967">
        <ele>307</ele>
        <time>2017-08-29T13:56:55Z</time>
      </trkpt>
      <trkpt lat="49.61632" lon="6.09946">
        <ele>305</ele>
        <time>2017-08-29T13:57:05Z</time>
      </trkpt>
      <trkpt lat="49.61641" lon="6.0988">
        <ele>306</ele>
        <time>2017-08-29T13:57:16Z</time>
      </trkpt>
      <trkpt lat="49.6166" lon="6.09758">
        <ele>305</ele>
        <time>2017-08-29T13:57:26Z</time>
      </trkpt>
      <trkpt lat="49.61681" lon="6.09609">
        <ele>305</ele>
        <time>2017-08-29T13:57:36Z</time>
      </trkpt>
      <trkpt lat="49.617" lon="6.09482">
        <ele>303</ele>
        <time>2017-08-29T13:57:47Z</time>
      </trkpt>
      <trkpt lat="49.61708" lon="6.09438">
        <ele>301</ele>
        <time>2017-08-29T13:57:57Z</time>
      </trkpt>
      <trkpt lat="49.61716" lon="6.09379">
        <ele>302</ele>
        <time>2017-08-29T13:58:08Z</time>
      </trkpt>
      <trkpt lat="49.61732" lon="6.09265">
        <ele>302</ele>
        <time>2017-08-29T13:58:18Z</time>
      </trkpt>
      <trkpt lat="49.61753" lon="6.09116">
        <ele>300</ele>
        <time>2017-08-29T13:58:28Z</time>
      </trkpt>
      <trkpt lat="49.61779" lon="6.08936">
        <ele>298</ele>
        <time>2017-08-29T13:58:38Z</time>
      </trkpt>
      <trkpt lat="49.61792" lon="6.08838">
        <ele>295</ele>
        <time>2017-08-29T13:58:49Z</time>
      </trkpt>
      <trkpt lat="49.61793" lon="6.08833">
        <ele>294</ele>
        <time>2017-08-29T13:58:59Z</time>
      </trkpt>
      <trkpt lat="49.61794" lon="6.08831">
        <ele>294</ele>
        <time>2017-08-29T13:59:10Z</time>
      </trkpt>
      <trkpt lat="49.61807" lon="6.08755">
        <ele>294</ele>
        <time>2017-08-29T13:59:20Z</time>
      </trkpt>
      <trkpt lat="49.61818" lon="6.08699">
        <ele>293</ele>
        <time>2017-08-29T13:59:31Z</time>
      </trkpt>
      <trkpt lat="49.61816" lon="6.08696">
        <ele>293</ele>
        <time>2017-08-29T13:59:41Z</time>
      </trkpt>
      <trkpt lat="49.61814" lon="6.08697">
        <ele>292</ele>
        <time>2017-08-29T13:59:52Z</time>
      </trkpt>
      <trkpt lat="49.6182" lon="6.08668">
        <ele>293</ele>
        <time>2017-08-29T14:00:02Z</time>
      </trkpt>
      <trkpt lat="49.61834" lon="6.08566">
        <ele>294</ele>
        <time>2017-08-29T14:00:13Z</time>
      </trkpt>
      <trkpt lat="49.61848" lon="6.08472">
        <ele>293</ele>
        <time>2017-08-29T14:00:23Z</time>
      </trkpt>
      <trkpt lat="49.6185" lon="6.08461">
        <ele>292</ele>
        <time>2017-08-29T14:00:34Z</time>
      </trkpt>
      <trkpt lat="49.6185" lon="6.08459">
        <ele>292</ele>
        <time>2017-08-29T14:00:44Z</time>
      </trkpt>
      <trkpt lat="49.61852" lon="6.08455">
        <ele>293</ele>
        <time>2017-08-29T14:00:55Z</time>
      </trkpt>
      <trkpt lat="49.61854" lon="6.08452">
        <ele>292</ele>
        <time>2017-08-29T14:01:06Z</time>
      </trkpt>
      <trkpt lat="49.61855" lon="6.08452">
        <ele>292</ele>
        <time>2017-08-29T14:01:17Z</time>
      </trkpt>
      <trkpt lat="49.61872" lon="6.08403">
        <ele>292</ele>
        <time>2017-08-29T14:01:28Z</time>
      </trkpt>
      <trkpt lat="49.61957" lon="6.08416">
        <ele>293</ele>
        <time>2017-08-29T14:01:38Z</time>
      </trkpt>
      <trkpt lat="49.62051" lon="6.08427">
        <ele>295</ele>
        <time>2017-08-29T14:01:49Z</time>
      </trkpt>
      <trkpt lat="49.62139" lon="6.08334">
        <ele>297</ele>
        <time>2017-08-29T14:01:59Z</time>
      </trkpt>
      <trkpt lat="49.62279" lon="6.08233">
        <ele>297</ele>
        <time>2017-08-29T14:02:10Z</time>
      </trkpt>
      <trkpt lat="49.62403" lon="6.08122">
        <ele>299</ele>
        <time>2017-08-29T14:02:20Z</time>
      </trkpt>
      <trkpt lat="49.62531" lon="6.07963">
        <ele>298</ele>
        <time>2017-08-29T14:02:30Z</time>
      </trkpt>
      <trkpt lat="49.62661" lon="6.07757">
        <ele>298</ele>
        <time>2017-08-29T14:02:40Z</time>
      </trkpt>
      <trkpt lat="49.62797" lon="6.07455">
        <ele>302</ele>
        <time>2017-08-29T14:02:51Z</time>
      </trkpt>
      <trkpt lat="49.62917" lon="6.07102">
        <ele>312</ele>
        <time>2017-08-29T14:03:01Z</time>
      </trkpt>
      <trkpt lat="49.62993" lon="6.06753">
        <ele>318</ele>
        <time>2017-08-29T14:03:11Z</time>
      </trkpt>
      <trkpt lat="49.6302" lon="6.06575">
        <ele>313</ele>
        <time>2017-08-29T14:03:22Z</time>
      </trkpt>
      <trkpt lat="49.63026" lon="6.06516">
        <ele>314</ele>
        <time>2017-08-29T14:03:32Z</time>
      </trkpt>
      <trkpt lat="49.63031" lon="6.06484">
        <ele>313</ele>
        <time>2017-08-29T14:03:42Z</time>
      </trkpt>
      <trkpt lat="49.63038" lon="6.06422">
        <ele>315</ele>
        <time>2017-08-29T14:03:53Z</time>
      </trkpt>
      <trkpt lat="49.63048" lon="6.06276">
        <ele>317</ele>
        <time>2017-08-29T14:04:04Z</time>
      </trkpt>
      <trkpt lat="49.63054" lon="6.06014">
        <ele>322</ele>
        <time>2017-08-29T14:04:15Z</time>
      </trkpt>
      <trkpt lat="49.63052" lon="6.05792">
        <ele>319</ele>
        <time>2017-08-29T14:04:25Z</time>
      </trkpt>
      <trkpt lat="49.63046" lon="6.05551">
        <ele>318</ele>
        <time>2017-08-29T14:04:36Z</time>
      </trkpt>
      <trkpt lat="49.63045" lon="6.05243">
        <ele>319</ele>
        <time>2017-08-29T14:04:46Z</time>
      </trkpt>
      <trkpt lat="49.6306" lon="6.04786">
        <ele>318</ele>
        <time>2017-08-29T14:04:57Z</time>
      </trkpt>
      <trkpt lat="49.63104" lon="6.04371">
        <ele>309</ele>
        <time>2017-08-29T14:05:07Z</time>
      </trkpt>
      <trkpt lat="49.63187" lon="6.03913">
        <ele>304</ele>
        <time>2017-08-29T14:05:18Z</time>
      </trkpt>
      <trkpt lat="49.63304" lon="6.03469">
        <ele>301</ele>
        <time>2017-08-29T14:05:29Z</time>
      </trkpt>
      <trkpt lat="49.63434" lon="6.03088">
        <ele>304</ele>
        <time>2017-08-29T14:05:39Z</time>
      </trkpt>
      <trkpt lat="49.6356" lon="6.02767">
        <ele>308</ele>
        <time>2017-08-29T14:05:49Z</time>
      </trkpt>
      <trkpt lat="49.63675" lon="6.02454">
        <ele>310</ele>
        <time>2017-08-29T14:05:59Z</time>
      </trkpt>
      <trkpt lat="49.6377" lon="6.02129">
        <ele>311</ele>
        <time>2017-08-29T14:06:09Z</time>
      </trkpt>
      <trkpt lat="49.63844" lon="6.0176">
        <ele>308</ele>
        <time>2017-08-29T14:06:20Z</time>
      </trkpt>
      <trkpt lat="49.63882" lon="6.01392">
        <ele>307</ele>
        <time>2017-08-29T14:06:30Z</time>
      </trkpt>
      <trkpt lat="49.63885" lon="6.00922">
        <ele>309</ele>
        <time>2017-08-29T14:06:41Z</time>
      </trkpt>
      <trkpt lat="49.63843" lon="6.00478">
        <ele>308</ele>
        <time>2017-08-29T14:06:51Z</time>
      </trkpt>
      <trkpt lat="49.63762" lon="6.00094">
        <ele>304</ele>
        <time>2017-08-29T14:07:01Z</time>
      </trkpt>
      <trkpt lat="49.63638" lon="5.99653">
        <ele>303</ele>
        <time>2017-08-29T14:07:12Z</time>
      </trkpt>
      <trkpt lat="49.63527" lon="5.99195">
        <ele>302</ele>
        <time>2017-08-29T14:07:23Z</time>
      </trkpt>
      <trkpt lat="49.63472" lon="5.98765">
        <ele>299</ele>
        <time>2017-08-29T14:07:33Z</time>
      </trkpt>
      <trkpt lat="49.63462" lon="5.98279">
        <ele>299</ele>
        <time>2017-08-29T14:07:44Z</time>
      </trkpt>
      <trkpt lat="49.63504" lon="5.97815">
        <ele>298</ele>
        <time>2017-08-29T14:07:55Z</time>
      </trkpt>
      <trkpt lat="49.6357" lon="5.97373">
        <ele>301</ele>
        <time>2017-08-29T14:08:05Z</time>
      </trkpt>
      <trkpt lat="49.63609" lon="5.96919">
        <ele>304</ele>
        <time>2017-08-29T14:08:15Z</time>
      </trkpt>
      <trkpt lat="49.63608" lon="5.96435">
        <ele>306</ele>
        <time>2017-08-29T14:08:26Z</time>
      </trkpt>
      <trkpt lat="49.6358" lon="5.96007">
        <ele>309</ele>
        <time>2017-08-29T14:08:36Z</time>
      </trkpt>
      <trkpt lat="49.63566" lon="5.95629">
        <ele>304</ele>
        <time>2017-08-29T14:08:46Z</time>
      </trkpt>
      <trkpt lat="49.63581" lon="5.95202">
        <ele>304</ele>
        <time>2017-08-29T14:08:57Z</time>
      </trkpt>
      <trkpt lat="49.63618" lon="5.94813">
        <ele>307</ele>
        <time>2017-08-29T14:09:07Z</time>
      </trkpt>
      <trkpt lat="49.6364" lon="5.94426">
        <ele>307</ele>
        <time>2017-08-29T14:09:17Z</time>
      </trkpt>
      <trkpt lat="49.63626" lon="5.93989">
        <ele>309</ele>
        <time>2017-08-29T14:09:28Z</time>
      </trkpt>
      <trkpt lat="49.63604" lon="5.93567">
        <ele>310</ele>
        <time>2017-08-29T14:09:38Z</time>
      </trkpt>
      <trkpt lat="49.63599" lon="5.93107">
        <ele>308</ele>
        <time>2017-08-29T14:09:49Z</time>
      </trkpt>
      <trkpt lat="49.63626" lon="5.92665">
        <ele>308</ele>
        <time>2017-08-29T14:09:59Z</time>
      </trkpt>
      <trkpt lat="49.63677" lon="5.92181">
        <ele>310</ele>
        <time>2017-08-29T14:10:10Z</time>
      </trkpt>
      <trkpt lat="49.6372" lon="5.91791">
        <ele>312</ele>
        <time>2017-08-29T14:10:20Z</time>
      </trkpt>
      <trkpt lat="49.63767" lon="5.91388">
        <ele>320</ele>
        <time>2017-08-29T14:10:31Z</time>
      </trkpt>
      <trkpt lat="49.63809" lon="5.91016">
        <ele>325</ele>
        <time>2017-08-29T14:10:41Z</time>
      </trkpt>
      <trkpt lat="49.63848" lon="5.90666">
        <ele>324</ele>
        <time>2017-08-29T14:10:52Z</time>
      </trkpt>
      <trkpt lat="49.63884" lon="5.90351">
        <ele>326</ele>
        <time>2017-08-29T14:11:02Z</time>
      </trkpt>
      <trkpt lat="49.63925" lon="5.89991">
        <ele>328</ele>
        <time>2017-08-29T14:11:13Z</time>
      </trkpt>
      <trkpt lat="49.63966" lon="5.89644">
        <ele>329</ele>
        <time>2017-08-29T14:11:23Z</time>
      </trkpt>
      <trkpt lat="49.64006" lon="5.89277">
        <ele>329</ele>
        <time>2017-08-29T14:11:33Z</time>
      </trkpt>
      <trkpt lat="49.64033" lon="5.88891">
        <ele>328</ele>
        <time>2017-08-29T14:11:43Z</time>
      </trkpt>
      <trkpt lat="49.64032" lon="5.8848">
        <ele>331</ele>
        <time>2017-08-29T14:11:53Z</time>
      </trkpt>
      <trkpt lat="49.64003" lon="5.88019">
        <ele>330</ele>
        <time>2017-08-29T14:12:04Z</time>
      </trkpt>
      <trkpt lat="49.63965" lon="5.87585">
        <ele>324</ele>
        <time>2017-08-29T14:12:15Z</time>
      </trkpt>
      <trkpt lat="49.63928" lon="5.87184">
        <ele>323</ele>
        <time>2017-08-29T14:12:26Z</time>
      </trkpt>
      <trkpt lat="49.6389" lon="5.8679">
        <ele>320</ele>
        <time>2017-08-29T14:12:37Z</time>
      </trkpt>
      <trkpt lat="49.63856" lon="5.8644">
        <ele>319</ele>
        <time>2017-08-29T14:12:47Z</time>
      </trkpt>
      <trkpt lat="49.6382" lon="5.86052">
        <ele>316</ele>
        <time>2017-08-29T14:12:58Z</time>
      </trkpt>
      <trkpt lat="49.63802" lon="5.8569">
        <ele>321</ele>
        <time>2017-08-29T14:13:08Z</time>
      </trkpt>
      <trkpt lat="49.63805" lon="5.85262">
        <ele>320</ele>
        <time>2017-08-29T14:13:19Z</time>
      </trkpt>
      <trkpt lat="49.63842" lon="5.84836">
        <ele>323</ele>
        <time>2017-08-29T14:13:30Z</time>
      </trkpt>
      <trkpt lat="49.63906" lon="5.84434">
        <ele>324</ele>
        <time>2017-08-29T14:13:41Z</time>
      </trkpt>
      <trkpt lat="49.64002" lon="5.84021">
        <ele>327</ele>
        <time>2017-08-29T14:13:52Z</time>
      </trkpt>
      <trkpt lat="49.6412" lon="5.83608">
        <ele>331</ele>
        <time>2017-08-29T14:14:02Z</time>
      </trkpt>
      <trkpt lat="49.64256" lon="5.83213">
        <ele>336</ele>
        <time>2017-08-29T14:14:12Z</time>
      </trkpt>
      <trkpt lat="49.6442" lon="5.82818">
        <ele>334</ele>
        <time>2017-08-29T14:14:23Z</time>
      </trkpt>
      <trkpt lat="49.64592" lon="5.82492">
        <ele>338</ele>
        <time>2017-08-29T14:14:33Z</time>
      </trkpt>
      <trkpt lat="49.64802" lon="5.82201">
        <ele>342</ele>
        <time>2017-08-29T14:14:44Z</time>
      </trkpt>
      <trkpt lat="49.65039" lon="5.81967">
        <ele>349</ele>
        <time>2017-08-29T14:14:55Z</time>
      </trkpt>
      <trkpt lat="49.65288" lon="5.81799">
        <ele>355</ele>
        <time>2017-08-29T14:15:05Z</time>
      </trkpt>
      <trkpt lat="49.65587" lon="5.81653">
        <ele>364</ele>
        <time>2017-08-29T14:15:16Z</time>
      </trkpt>
      <trkpt lat="49.65854" lon="5.81524">
        <ele>372</ele>
        <time>2017-08-29T14:15:26Z</time>
      </trkpt>
      <trkpt lat="49.66102" lon="5.81353">
        <ele>375</ele>
        <time>2017-08-29T14:15:36Z</time>
      </trkpt>
      <trkpt lat="49.66355" lon="5.81091">
        <ele>385</ele>
        <time>2017-08-29T14:15:47Z</time>
      </trkpt>
      <trkpt lat="49.6657" lon="5.80752">
        <ele>393</ele>
        <time>2017-08-29T14:15:58Z</time>
      </trkpt>
      <trkpt lat="49.66734" lon="5.80365">
        <ele>394</ele>
        <time>2017-08-29T14:16:09Z</time>
      </trkpt>
      <trkpt lat="49.66833" lon="5.8">
        <ele>390</ele>
        <time>2017-08-29T14:16:20Z</time>
      </trkpt>
      <trkpt lat="49.66901" lon="5.79605">
        <ele>393</ele>
        <time>2017-08-29T14:16:30Z</time>
      </trkpt>
      <trkpt lat="49.66961" lon="5.79208">
        <ele>389</ele>
        <time>2017-08-29T14:16:40Z</time>
      </trkpt>
      <trkpt lat="49.67027" lon="5.78777">
        <ele>386</ele>
        <time>2017-08-29T14:16:51Z</time>
      </trkpt>
      <trkpt lat="49.67093" lon="5.7834">
        <ele>385</ele>
        <time>2017-08-29T14:17:02Z</time>
      </trkpt>
      <trkpt lat="49.67157" lon="5.77924">
        <ele>386</ele>
        <time>2017-08-29T14:17:12Z</time>
      </trkpt>
      <trkpt lat="49.67255" lon="5.7745">
        <ele>386</ele>
        <time>2017-08-29T14:17:23Z</time>
      </trkpt>
      <trkpt lat="49.674" lon="5.76999">
        <ele>386</ele>
        <time>2017-08-29T14:17:34Z</time>
      </trkpt>
      <trkpt lat="49.67597" lon="5.76576">
        <ele>383</ele>
        <time>2017-08-29T14:17:45Z</time>
      </trkpt>
      <trkpt lat="49.67807" lon="5.76223">
        <ele>377</ele>
        <time>2017-08-29T14:17:55Z</time>
      </trkpt>
      <trkpt lat="49.68019" lon="5.759">
        <ele>375</ele>
        <time>2017-08-29T14:18:05Z</time>
      </trkpt>
      <trkpt lat="49.68243" lon="5.75556">
        <ele>373</ele>
        <time>2017-08-29T14:18:16Z</time>
      </trkpt>
      <trkpt lat="49.68449" lon="5.75237">
        <ele>368</ele>
        <time>2017-08-29T14:18:26Z</time>
      </trkpt>
      <trkpt lat="49.68663" lon="5.74856">
        <ele>364</ele>
        <time>2017-08-29T14:18:37Z</time>
      </trkpt>
      <trkpt lat="49.6882" lon="5.74457">
        <ele>356</ele>
        <time>2017-08-29T14:18:47Z</time>
      </trkpt>
      <trkpt lat="49.68924" lon="5.74068">
        <ele>342</ele>
        <time>2017-08-29T14:18:57Z</time>
      </trkpt>
      <trkpt lat="49.68992" lon="5.73662">
        <ele>343</ele>
        <time>2017-08-29T14:19:07Z</time>
      </trkpt>
      <trkpt lat="49.69059" lon="5.73209">
        <ele>344</ele>
        <time>2017-08-29T14:19:18Z</time>
      </trkpt>
      <trkpt lat="49.69133" lon="5.72688">
        <ele>346</ele>
        <time>2017-08-29T14:19:29Z</time>
      </trkpt>
      <trkpt lat="49.69209" lon="5.7217">
        <ele>346</ele>
        <time>2017-08-29T14:19:40Z</time>
      </trkpt>
      <trkpt lat="49.69282" lon="5.71669">
        <ele>347</ele>
        <time>2017-08-29T14:19:51Z</time>
      </trkpt>
      <trkpt lat="49.69343" lon="5.71232">
        <ele>348</ele>
        <time>2017-08-29T14:20:01Z</time>
      </trkpt>
      <trkpt lat="49.69407" lon="5.70785">
        <ele>356</ele>
        <time>2017-08-29T14:20:11Z</time>
      </trkpt>
      <trkpt lat="49.69481" lon="5.70274">
        <ele>358</ele>
        <time>2017-08-29T14:20:22Z</time>
      </trkpt>
      <trkpt lat="49.69549" lon="5.69794">
        <ele>362</ele>
        <time>2017-08-29T14:20:33Z</time>
      </trkpt>
      <trkpt lat="49.6959" lon="5.69316">
        <ele>366</ele>
        <time>2017-08-29T14:20:43Z</time>
      </trkpt>
      <trkpt lat="49.69593" lon="5.68819">
        <ele>359</ele>
        <time>2017-08-29T14:20:53Z</time>
      </trkpt>
      <trkpt lat="49.69586" lon="5.68342">
        <ele>353</ele>
        <time>2017-08-29T14:21:03Z</time>
      </trkpt>
      <trkpt lat="49.69583" lon="5.67823">
        <ele>348</ele>
        <time>2017-08-29T14:21:14Z</time>
      </trkpt>
      <trkpt lat="49.69587" lon="5.67302">
        <ele>349</ele>
        <time>2017-08-29T14:21:25Z</time>
      </trkpt>
      <trkpt lat="49.69621" lon="5.66832">
        <ele>350</ele>
        <time>2017-08-29T14:21:35Z</time>
      </trkpt>
      <trkpt lat="49.69699" lon="5.66305">
        <ele>354</ele>
        <time>2017-08-29T14:21:46Z</time>
      </trkpt>
      <trkpt lat="49.69786" lon="5.65839">
        <ele>354</ele>
        <time>2017-08-29T14:21:56Z</time>
      </trkpt>
      <trkpt lat="49.69872" lon="5.65387">
        <ele>352</ele>
        <time>2017-08-29T14:22:06Z</time>
      </trkpt>
      <trkpt lat="49.69965" lon="5.64897">
        <ele>350</ele>
        <time>2017-08-29T14:22:17Z</time>
      </trkpt>
      <trkpt lat="49.70051" lon="5.64451">
        <ele>351</ele>
        <time>2017-08-29T14:22:27Z</time>
      </trkpt>
      <trkpt lat="49.70141" lon="5.64004">
        <ele>351</ele>
        <time>2017-08-29T14:22:37Z</time>
      </trkpt>
      <trkpt lat="49.70254" lon="5.63537">
        <ele>346</ele>
        <time>2017-08-29T14:22:48Z</time>
      </trkpt>
      <trkpt lat="49.70391" lon="5.63082">
        <ele>348</ele>
        <time>2017-08-29T14:22:59Z</time>
      </trkpt>
      <trkpt lat="49.70549" lon="5.6264">
        <ele>347</ele>
        <time>2017-08-29T14:23:10Z</time>
      </trkpt>
      <trkpt lat="49.7071" lon="5.62236">
        <ele>349</ele>
        <time>2017-08-29T14:23:20Z</time>
      </trkpt>
      <trkpt lat="49.70858" lon="5.61863">
        <ele>352</ele>
        <time>2017-08-29T14:23:31Z</time>
      </trkpt>
      <trkpt lat="49.71011" lon="5.61477">
        <ele>359</ele>
        <time>2017-08-29T14:23:42Z</time>
      </trkpt>
      <trkpt lat="49.71165" lon="5.61098">
        <ele>367</ele>
        <time>2017-08-29T14:23:53Z</time>
      </trkpt>
      <trkpt lat="49.71304" lon="5.60763">
        <ele>369</ele>
        <time>2017-08-29T14:24:03Z</time>
      </trkpt>
      <trkpt lat="49.7144" lon="5.60425">
        <ele>362</ele>
        <time>2017-08-29T14:24:13Z</time>
      </trkpt>
      <trkpt lat="49.71562" lon="5.60122">
        <ele>358</ele>
        <time>2017-08-29T14:24:24Z</time>
      </trkpt>
      <trkpt lat="49.71707" lon="5.59783">
        <ele>354</ele>
        <time>2017-08-29T14:24:35Z</time>
      </trkpt>
      <trkpt lat="49.71882" lon="5.59435">
        <ele>352</ele>
        <time>2017-08-29T14:24:46Z</time>
      </trkpt>
      <trkpt lat="49.72058" lon="5.59138">
        <ele>353</ele>
        <time>2017-08-29T14:24:56Z</time>
      </trkpt>
      <trkpt lat="49.72266" lon="5.58835">
        <ele>354</ele>
        <time>2017-08-29T14:25:07Z</time>
      </trkpt>
      <trkpt lat="49.72481" lon="5.58568">
        <ele>356</ele>
        <time>2017-08-29T14:25:17Z</time>
      </trkpt>
      <trkpt lat="49.72701" lon="5.58334">
        <ele>365</ele>
        <time>2017-08-29T14:25:28Z</time>
      </trkpt>
      <trkpt lat="49.72952" lon="5.58111">
        <ele>371</ele>
        <time>2017-08-29T14:25:38Z</time>
      </trkpt>
      <trkpt lat="49.73214" lon="5.5792">
        <ele>379</ele>
        <time>2017-08-29T14:25:48Z</time>
      </trkpt>
      <trkpt lat="49.73484" lon="5.57753">
        <ele>385</ele>
        <time>2017-08-29T14:25:58Z</time>
      </trkpt>
      <trkpt lat="49.7376" lon="5.57584">
        <ele>390</ele>
        <time>2017-08-29T14:26:09Z</time>
      </trkpt>
      <trkpt lat="49.74014" lon="5.57429">
        <ele>396</ele>
        <time>2017-08-29T14:26:19Z</time>
      </trkpt>
      <trkpt lat="49.743" lon="5.57255">
        <ele>400</ele>
        <time>2017-08-29T14:26:30Z</time>
      </trkpt>
      <trkpt lat="49.74556" lon="5.57094">
        <ele>409</ele>
        <time>2017-08-29T14:26:40Z</time>
      </trkpt>
      <trkpt lat="49.74848" lon="5.56919">
        <ele>417</ele>
        <time>2017-08-29T14:26:50Z</time>
      </trkpt>
      <trkpt lat="49.75106" lon="5.56761">
        <ele>424</ele>
        <time>2017-08-29T14:27:01Z</time>
      </trkpt>
      <trkpt lat="49.75386" lon="5.56589">
        <ele>433</ele>
        <time>2017-08-29T14:27:12Z</time>
      </trkpt>
      <trkpt lat="49.75644" lon="5.56431">
        <ele>435</ele>
        <time>2017-08-29T14:27:22Z</time>
      </trkpt>
      <trkpt lat="49.75907" lon="5.56271">
        <ele>437</ele>
        <time>2017-08-29T14:27:32Z</time>
      </trkpt>
      <trkpt lat="49.76197" lon="5.56087">
        <ele>431</ele>
        <time>2017-08-29T14:27:43Z</time>
      </trkpt>
      <trkpt lat="49.7646" lon="5.55897">
        <ele>420</ele>
        <time>2017-08-29T14:27:53Z</time>
      </trkpt>
      <trkpt lat="49.76738" lon="5.55648">
        <ele>412</ele>
        <time>2017-08-29T14:28:04Z</time>
      </trkpt>
      <trkpt lat="49.76967" lon="5.55388">
        <ele>409</ele>
        <time>2017-08-29T14:28:14Z</time>
      </trkpt>
      <trkpt lat="49.77201" lon="5.55073">
        <ele>408</ele>
        <time>2017-08-29T14:28:24Z</time>
      </trkpt>
      <trkpt lat="49.77405" lon="5.54773">
        <ele>406</ele>
        <time>2017-08-29T14:28:35Z</time>
      </trkpt>
      <trkpt lat="49.77607" lon="5.54477">
        <ele>412</ele>
        <time>2017-08-29T14:28:45Z</time>
      </trkpt>
      <trkpt lat="49.77816" lon="5.54198">
        <ele>424</ele>
        <time>2017-08-29T14:28:55Z</time>
      </trkpt>
      <trkpt lat="49.78069" lon="5.53907">
        <ele>434</ele>
        <time>2017-08-29T14:29:06Z</time>
      </trkpt>
      <trkpt lat="49.78329" lon="5.53622">
        <ele>432</ele>
        <time>2017-08-29T14:29:16Z</time>
      </trkpt>
      <trkpt lat="49.78582" lon="5.53347">
        <ele>423</ele>
        <time>2017-08-29T14:29:27Z</time>
      </trkpt>
      <trkpt lat="49.78812" lon="5.53095">
        <ele>415</ele>
        <time>2017-08-29T14:29:38Z</time>
      </trkpt>
      <trkpt lat="49.79092" lon="5.5282">
        <ele>404</ele>
        <time>2017-08-29T14:29:49Z</time>
      </trkpt>
      <trkpt lat="49.79346" lon="5.52608">
        <ele>392</ele>
        <time>2017-08-29T14:29:59Z</time>
      </trkpt>
      <trkpt lat="49.79603" lon="5.52426">
        <ele>390</ele>
        <time>2017-08-29T14:30:09Z</time>
      </trkpt>
      <trkpt lat="49.79869" lon="5.52266">
        <ele>396</ele>
        <time>2017-08-29T14:30:19Z</time>
      </trkpt>
      <trkpt lat="49.8017" lon="5.5209">
        <ele>404</ele>
        <time>2017-08-29T14:30:30Z</time>
      </trkpt>
      <trkpt lat="49.80436" lon="5.51937">
        <ele>413</ele>
        <time>2017-08-29T14:30:40Z</time>
      </trkpt>
      <trkpt lat="49.80731" lon="5.51795">
        <ele>422</ele>
        <time>2017-08-29T14:30:51Z</time>
      </trkpt>
      <trkpt lat="49.81039" lon="5.5168">
        <ele>426</ele>
        <time>2017-08-29T14:31:02Z</time>
      </trkpt>
      <trkpt lat="49.81363" lon="5.5159">
        <ele>433</ele>
        <time>2017-08-29T14:31:12Z</time>
      </trkpt>
      <trkpt lat="49.81681" lon="5.51526">
        <ele>448</ele>
        <time>2017-08-29T14:31:22Z</time>
      </trkpt>
      <trkpt lat="49.82003" lon="5.51475">
        <ele>447</ele>
        <time>2017-08-29T14:31:33Z</time>
      </trkpt>
      <trkpt lat="49.82331" lon="5.51417">
        <ele>452</ele>
        <time>2017-08-29T14:31:44Z</time>
      </trkpt>
      <trkpt lat="49.82626" lon="5.51361">
        <ele>459</ele>
        <time>2017-08-29T14:31:54Z</time>
      </trkpt>
      <trkpt lat="49.8294" lon="5.51305">
        <ele>462</ele>
        <time>2017-08-29T14:32:05Z</time>
      </trkpt>
      <trkpt lat="49.83253" lon="5.51246">
        <ele>464</ele>
        <time>2017-08-29T14:32:16Z</time>
      </trkpt>
      <trkpt lat="49.83576" lon="5.51189">
        <ele>468</ele>
        <time>2017-08-29T14:32:27Z</time>
      </trkpt>
      <trkpt lat="49.83876" lon="5.51141">
        <ele>473</ele>
        <time>2017-08-29T14:32:37Z</time>
      </trkpt>
      <trkpt lat="49.84186" lon="5.51098">
        <ele>476</ele>
        <time>2017-08-29T14:32:47Z</time>
      </trkpt>
      <trkpt lat="49.84481" lon="5.51075">
        <ele>482</ele>
        <time>2017-08-29T14:32:57Z</time>
      </trkpt>
      <trkpt lat="49.84777" lon="5.51074">
        <ele>484</ele>
        <time>2017-08-29T14:33:08Z</time>
      </trkpt>
      <trkpt lat="49.85091" lon="5.51071">
        <ele>486</ele>
        <time>2017-08-29T14:33:19Z</time>
      </trkpt>
      <trkpt lat="49.85412" lon="5.51049">
        <ele>482</ele>
        <time>2017-08-29T14:33:30Z</time>
      </trkpt>
      <trkpt lat="49.85716" lon="5.5099">
        <ele>482</ele>
        <time>2017-08-29T14:33:40Z</time>
      </trkpt>
      <trkpt lat="49.86028" lon="5.50851">
        <ele>471</ele>
        <time>2017-08-29T14:33:50Z</time>
      </trkpt>
      <trkpt lat="49.86276" lon="5.50679">
        <ele>472</ele>
        <time>2017-08-29T14:34:01Z</time>
      </trkpt>
      <trkpt lat="49.8654" lon="5.50429">
        <ele>468</ele>
        <time>2017-08-29T14:34:12Z</time>
      </trkpt>
      <trkpt lat="49.86767" lon="5.50151">
        <ele>465</ele>
        <time>2017-08-29T14:34:22Z</time>
      </trkpt>
      <trkpt lat="49.86981" lon="5.49795">
        <ele>467</ele>
        <time>2017-08-29T14:34:32Z</time>
      </trkpt>
      <trkpt lat="49.87151" lon="5.49425">
        <ele>459</ele>
        <time>2017-08-29T14:34:42Z</time>
      </trkpt>
      <trkpt lat="49.87294" lon="5.49007">
        <ele>450</ele>
        <time>2017-08-29T14:34:53Z</time>
      </trkpt>
      <trkpt lat="49.87408" lon="5.48551">
        <ele>443</ele>
        <time>2017-08-29T14:35:03Z</time>
      </trkpt>
      <trkpt lat="49.87493" lon="5.48058">
        <ele>430</ele>
        <time>2017-08-29T14:35:13Z</time>
      </trkpt>
      <trkpt lat="49.87559" lon="5.47621">
        <ele>429</ele>
        <time>2017-08-29T14:35:24Z</time>
      </trkpt>
      <trkpt lat="49.87637" lon="5.47159">
        <ele>434</ele>
        <time>2017-08-29T14:35:34Z</time>
      </trkpt>
      <trkpt lat="49.87716" lon="5.46672">
        <ele>434</ele>
        <time>2017-08-29T14:35:44Z</time>
      </trkpt>
      <trkpt lat="49.8778" lon="5.46244">
        <ele>441</ele>
        <time>2017-08-29T14:35:54Z</time>
      </trkpt>
      <trkpt lat="49.87852" lon="5.45818">
        <ele>446</ele>
        <time>2017-08-29T14:36:05Z</time>
      </trkpt>
      <trkpt lat="49.87919" lon="5.45403">
        <ele>447</ele>
        <time>2017-08-29T14:36:15Z</time>
      </trkpt>
      <trkpt lat="49.87993" lon="5.44935">
        <ele>454</ele>
        <time>2017-08-29T14:36:25Z</time>
      </trkpt>
      <trkpt lat="49.88065" lon="5.44489">
        <ele>456</ele>
        <time>2017-08-29T14:36:36Z</time>
      </trkpt>
      <trkpt lat="49.88146" lon="5.43985">
        <ele>463</ele>
        <time>2017-08-29T14:36:46Z</time>
      </trkpt>
      <trkpt lat="49.88226" lon="5.43481">
        <ele>470</ele>
        <time>2017-08-29T14:36:57Z</time>
      </trkpt>
      <trkpt lat="49.88298" lon="5.43042">
        <ele>473</ele>
        <time>2017-08-29T14:37:07Z</time>
      </trkpt>
      <trkpt lat="49.88366" lon="5.42604">
        <ele>476</ele>
        <time>2017-08-29T14:37:18Z</time>
      </trkpt>
      <trkpt lat="49.8842" lon="5.42123">
        <ele>475</ele>
        <time>2017-08-29T14:37:28Z</time>
      </trkpt>
      <trkpt lat="49.88443" lon="5.41703">
        <ele>469</ele>
        <time>2017-08-29T14:37:39Z</time>
      </trkpt>
      <trkpt lat="49.88459" lon="5.41338">
        <ele>463</ele>
        <time>2017-08-29T14:37:49Z</time>
      </trkpt>
      <trkpt lat="49.88475" lon="5.41001">
        <ele>456</ele>
        <time>2017-08-29T14:37:59Z</time>
      </trkpt>
      <trkpt lat="49.88497" lon="5.40649">
        <ele>449</ele>
        <time>2017-08-29T14:38:09Z</time>
      </trkpt>
      <trkpt lat="49.88533" lon="5.40297">
        <ele>440</ele>
        <time>2017-08-29T14:38:19Z</time>
      </trkpt>
      <trkpt lat="49.88581" lon="5.39958">
        <ele>423</ele>
        <time>2017-08-29T14:38:29Z</time>
      </trkpt>
      <trkpt lat="49.88599" lon="5.39817">
        <ele>410</ele>
        <time>2017-08-29T14:38:40Z</time>
      </trkpt>
      <trkpt lat="49.88686" lon="5.39707">
        <ele>408</ele>
        <time>2017-08-29T14:38:51Z</time>
      </trkpt>
      <trkpt lat="49.88844" lon="5.39532">
        <ele>411</ele>
        <time>2017-08-29T14:39:01Z</time>
      </trkpt>
      <trkpt lat="49.89022" lon="5.39332">
        <ele>416</ele>
        <time>2017-08-29T14:39:12Z</time>
      </trkpt>
      <trkpt lat="49.89185" lon="5.39077">
        <ele>416</ele>
        <time>2017-08-29T14:39:23Z</time>
      </trkpt>
      <trkpt lat="49.89316" lon="5.38848">
        <ele>422</ele>
        <time>2017-08-29T14:39:33Z</time>
      </trkpt>
      <trkpt lat="49.89437" lon="5.38657">
        <ele>425</ele>
        <time>2017-08-29T14:39:44Z</time>
      </trkpt>
      <trkpt lat="49.89556" lon="5.38475">
        <ele>427</ele>
        <time>2017-08-29T14:39:54Z</time>
      </trkpt>
      <trkpt lat="49.8969" lon="5.38268">
        <ele>435</ele>
        <time>2017-08-29T14:40:05Z</time>
      </trkpt>
      <trkpt lat="49.89835" lon="5.38049">
        <ele>450</ele>
        <time>2017-08-29T14:40:16Z</time>
      </trkpt>
      <trkpt lat="49.89977" lon="5.37829">
        <ele>454</ele>
        <time>2017-08-29T14:40:26Z</time>
      </trkpt>
      <trkpt lat="49.90124" lon="5.37602">
        <ele>456</ele>
        <time>2017-08-29T14:40:37Z</time>
      </trkpt>
      <trkpt lat="49.90303" lon="5.37407">
        <ele>458</ele>
        <time>2017-08-29T14:40:47Z</time>
      </trkpt>
      <trkpt lat="49.90483" lon="5.37225">
        <ele>459</ele>
        <time>2017-08-29T14:40:57Z</time>
      </trkpt>
      <trkpt lat="49.90616" lon="5.36966">
        <ele>462</ele>
        <time>2017-08-29T14:41:07Z</time>
      </trkpt>
      <trkpt lat="49.90709" lon="5.36767">
        <ele>463</ele>
        <time>2017-08-29T14:41:17Z</time>
      </trkpt>
      <trkpt lat="49.90752" lon="5.36682">
        <ele>459</ele>
        <time>2017-08-29T14:41:28Z</time>
      </trkpt>
      <trkpt lat="49.90813" lon="5.36532">
        <ele>465</ele>
        <time>2017-08-29T14:41:39Z</time>
      </trkpt>
      <trkpt lat="49.90907" lon="5.36312">
        <ele>473</ele>
        <time>2017-08-29T14:41:50Z</time>
      </trkpt>
      <trkpt lat="49.90971" lon="5.36019">
        <ele>474</ele>
        <time>2017-08-29T14:42:01Z</time>
      </trkpt>
      <trkpt lat="49.91048" lon="5.35758">
        <ele>473</ele>
        <time>2017-08-29T14:42:11Z</time>
      </trkpt>
      <trkpt lat="49.91119" lon="5.35539">
        <ele>471</ele>
        <time>2017-08-29T14:42:21Z</time>
      </trkpt>
      <trkpt lat="49.91157" lon="5.35447">
        <ele>465</ele>
        <time>2017-08-29T14:42:31Z</time>
      </trkpt>
      <trkpt lat="49.91187" lon="5.35369">
        <ele>463</ele>
        <time>2017-08-29T14:42:41Z</time>
      </trkpt>
      <trkpt lat="49.9121" lon="5.35302">
        <ele>462</ele>
        <time>2017-08-29T14:42:52Z</time>
      </trkpt>
      <trkpt lat="49.91235" lon="5.35163">
        <ele>464</ele>
        <time>2017-08-29T14:43:03Z</time>
      </trkpt>
      <trkpt lat="49.91236" lon="5.34963">
        <ele>466</ele>
        <time>2017-08-29T14:43:13Z</time>
      </trkpt>
      <trkpt lat="49.91236" lon="5.34664">
        <ele>466</ele>
        <time>2017-08-29T14:43:24Z</time>
      </trkpt>
      <trkpt lat="49.91245" lon="5.34372">
        <ele>465</ele>
        <time>2017-08-29T14:43:34Z</time>
      </trkpt>
      <trkpt lat="49.91331" lon="5.34082">
        <ele>462</ele>
        <time>2017-08-29T14:43:45Z</time>
      </trkpt>
      <trkpt lat="49.91465" lon="5.33836">
        <ele>465</ele>
        <time>2017-08-29T14:43:56Z</time>
      </trkpt>
      <trkpt lat="49.91631" lon="5.3359">
        <ele>463</ele>
        <time>2017-08-29T14:44:07Z</time>
      </trkpt>
      <trkpt lat="49.91802" lon="5.33332">
        <ele>468</ele>
        <time>2017-08-29T14:44:17Z</time>
      </trkpt>
      <trkpt lat="49.91996" lon="5.33136">
        <ele>465</ele>
        <time>2017-08-29T14:44:27Z</time>
      </trkpt>
      <trkpt lat="49.92196" lon="5.32939">
        <ele>466</ele>
        <time>2017-08-29T14:44:38Z</time>
      </trkpt>
      <trkpt lat="49.92431" lon="5.32761">
        <ele>463</ele>
        <time>2017-08-29T14:44:49Z</time>
      </trkpt>
      <trkpt lat="49.92661" lon="5.32614">
        <ele>458</ele>
        <time>2017-08-29T14:44:59Z</time>
      </trkpt>
      <trkpt lat="49.92833" lon="5.32422">
        <ele>456</ele>
        <time>2017-08-29T14:45:10Z</time>
      </trkpt>
      <trkpt lat="49.92932" lon="5.32186">
        <ele>452</ele>
        <time>2017-08-29T14:45:20Z</time>
      </trkpt>
      <trkpt lat="49.93021" lon="5.31914">
        <ele>450</ele>
        <time>2017-08-29T14:45:31Z</time>
      </trkpt>
      <trkpt lat="49.93179" lon="5.316">
        <ele>453</ele>
        <time>2017-08-29T14:45:42Z</time>
      </trkpt>
      <trkpt lat="49.9334" lon="5.31279">
        <ele>454</ele>
        <time>2017-08-29T14:45:53Z</time>
      </trkpt>
      <trkpt lat="49.93502" lon="5.30958">
        <ele>455</ele>
        <time>2017-08-29T14:46:04Z</time>
      </trkpt>
      <trkpt lat="49.93657" lon="5.30663">
        <ele>457</ele>
        <time>2017-08-29T14:46:14Z</time>
      </trkpt>
      <trkpt lat="49.93817" lon="5.30359">
        <ele>464</ele>
        <time>2017-08-29T14:46:24Z</time>
      </trkpt>
      <trkpt lat="49.93992" lon="5.30025">
        <ele>472</ele>
        <time>2017-08-29T14:46:34Z</time>
      </trkpt>
      <trkpt lat="49.94148" lon="5.29726">
        <ele>472</ele>
        <time>2017-08-29T14:46:45Z</time>
      </trkpt>
      <trkpt lat="49.94335" lon="5.29421">
        <ele>472</ele>
        <time>2017-08-29T14:46:56Z</time>
      </trkpt>
      <trkpt lat="49.94575" lon="5.29226">
        <ele>481</ele>
        <time>2017-08-29T14:47:07Z</time>
      </trkpt>
      <trkpt lat="49.94813" lon="5.29037">
        <ele>490</ele>
        <time>2017-08-29T14:47:18Z</time>
      </trkpt>
      <trkpt lat="49.95049" lon="5.28847">
        <ele>487</ele>
        <time>2017-08-29T14:47:29Z</time>
      </trkpt>
      <trkpt lat="49.95263" lon="5.28683">
        <ele>484</ele>
        <time>2017-08-29T14:47:39Z</time>
      </trkpt>
      <trkpt lat="49.95477" lon="5.2852">
        <ele>480</ele>
        <time>2017-08-29T14:47:49Z</time>
      </trkpt>
      <trkpt lat="49.95687" lon="5.28354">
        <ele>473</ele>
        <time>2017-08-29T14:47:59Z</time>
      </trkpt>
      <trkpt lat="49.95939" lon="5.28158">
        <ele>463</ele>
        <time>2017-08-29T14:48:10Z</time>
      </trkpt>
      <trkpt lat="49.9616" lon="5.27991">
        <ele>463</ele>
        <time>2017-08-29T14:48:20Z</time>
      </trkpt>
      <trkpt lat="49.96405" lon="5.27804">
        <ele>474</ele>
        <time>2017-08-29T14:48:30Z</time>
      </trkpt>
      <trkpt lat="49.96633" lon="5.27624">
        <ele>474</ele>
        <time>2017-08-29T14:48:41Z</time>
      </trkpt>
      <trkpt lat="49.96863" lon="5.2744">
        <ele>460</ele>
        <time>2017-08-29T14:48:51Z</time>
      </trkpt>
      <trkpt lat="49.97107" lon="5.27244">
        <ele>450</ele>
        <time>2017-08-29T14:49:02Z</time>
      </trkpt>
      <trkpt lat="49.97339" lon="5.2706">
        <ele>440</ele>
        <time>2017-08-29T14:49:12Z</time>
      </trkpt>
      <trkpt lat="49.97546" lon="5.26894">
        <ele>430</ele>
        <time>2017-08-29T14:49:23Z</time>
      </trkpt>
      <trkpt lat="49.97633" lon="5.26585">
        <ele>423</ele>
        <time>2017-08-29T14:49:34Z</time>
      </trkpt>
      <trkpt lat="49.9764" lon="5.26278">
        <ele>412</ele>
        <time>2017-08-29T14:49:44Z</time>
      </trkpt>
      <trkpt lat="49.97668" lon="5.26019">
        <ele>393</ele>
        <time>2017-08-29T14:49:54Z</time>
      </trkpt>
      <trkpt lat="49.97785" lon="5.25975">
        <ele>383</ele>
        <time>2017-08-29T14:50:05Z</time>
      </trkpt>
      <trkpt lat="49.97853" lon="5.25899">
        <ele>378</ele>
        <time>2017-08-29T14:50:16Z</time>
      </trkpt>
      <trkpt lat="49.97888" lon="5.25703">
        <ele>373</ele>
        <time>2017-08-29T14:50:27Z</time>
      </trkpt>
      <trkpt lat="49.98003" lon="5.25617">
        <ele>376</ele>
        <time>2017-08-29T14:50:37Z</time>
      </trkpt>
      <trkpt lat="49.98114" lon="5.25618">
        <ele>379</ele>
        <time>2017-08-29T14:50:48Z</time>
      </trkpt>
      <trkpt lat="49.98165" lon="5.25684">
        <ele>379</ele>
        <time>2017-08-29T14:50:58Z</time>
      </trkpt>
      <trkpt lat="49.98208" lon="5.25874">
        <ele>378</ele>
        <time>2017-08-29T14:51:08Z</time>
      </trkpt>
      <trkpt lat="49.98251" lon="5.26051">
        <ele>381</ele>
        <time>2017-08-29T14:51:19Z</time>
      </trkpt>
      <trkpt lat="49.98265" lon="5.2616">
        <ele>384</ele>
        <time>2017-08-29T14:51:30Z</time>
      </trkpt>
      <trkpt lat="49.98308" lon="5.26304">
        <ele>390</ele>
        <time>2017-08-29T14:51:40Z</time>
      </trkpt>
      <trkpt lat="49.98348" lon="5.26446">
        <ele>394</ele>
        <time>2017-08-29T14:51:51Z</time>
      </trkpt>
      <trkpt lat="49.98372" lon="5.26654">
        <ele>398</ele>
        <time>2017-08-29T14:52:01Z</time>
      </trkpt>
      <trkpt lat="49.98337" lon="5.26722">
        <ele>398</ele>
        <time>2017-08-29T14:52:12Z</time>
      </trkpt>
      <trkpt lat="49.98231" lon="5.26758">
        <ele>393</ele>
        <time>2017-08-29T14:52:22Z</time>
      </trkpt>
      <trkpt lat="49.9817" lon="5.26761">
        <ele>386</ele>
        <time>2017-08-29T14:52:32Z</time>
      </trkpt>
      <trkpt lat="49.98147" lon="5.26827">
        <ele>384</ele>
        <time>2017-08-29T14:52:42Z</time>
      </trkpt>
      <trkpt lat="49.98139" lon="5.26863">
        <ele>385</ele>
        <time>2017-08-29T14:52:53Z</time>
      </trkpt>
      <trkpt lat="49.98139" lon="5.26865">
        <ele>385</ele>
        <time>2017-08-29T14:53:03Z</time>
      </trkpt>
      <trkpt lat="49.98139" lon="5.26867">
        <ele>385</ele>
        <time>2017-08-29T14:53:14Z</time>
      </trkpt>
      <trkpt lat="49.98141" lon="5.26867">
        <ele>385</ele>
        <time>2017-08-29T14:53:24Z</time>
      </trkpt>
      <trkpt lat="49.98142" lon="5.26866">
        <ele>385</ele>
        <time>2017-08-29T14:53:35Z</time>
      </trkpt>
      <trkpt lat="49.98141" lon="5.26864">
        <ele>385</ele>
        <time>2017-08-29T14:53:45Z</time>
      </trkpt>
      <trkpt lat="49.9814" lon="5.26863">
        <ele>385</ele>
        <time>2017-08-29T14:53:56Z</time>
      </trkpt>
      <trkpt lat="49.9814" lon="5.26862">
        <ele>385</ele>
        <time>2017-08-29T14:54:06Z</time>
      </trkpt>
      <trkpt lat="49.98139" lon="5.26861">
        <ele>385</ele>
        <time>2017-08-29T14:54:16Z</time>
      </trkpt>
      <trkpt lat="49.98139" lon="5.26858">
        <ele>385</ele>
        <time>2017-08-29T14:54:27Z</time>
      </trkpt>
      <trkpt lat="49.9814" lon="5.26855">
        <ele>385</ele>
        <time>2017-08-29T14:54:37Z</time>
      </trkpt>
      <trkpt lat="49.98141" lon="5.26844">
        <ele>385</ele>
        <time>2017-08-29T14:54:47Z</time>
      </trkpt>
      <trkpt lat="49.98155" lon="5.26805">
        <ele>385</ele>
        <time>2017-08-29T14:56:08Z</time>
      </trkpt>
      <trkpt lat="49.98132" lon="5.26768">
        <ele>385</ele>
        <time>2017-08-29T14:56:19Z</time>
      </trkpt>
      <trkpt lat="49.98125" lon="5.26808">
        <ele>386</ele>
        <time>2017-08-29T14:56:36Z</time>
      </trkpt>
      <trkpt lat="49.98127" lon="5.26797">
        <ele>385</ele>
        <time>2017-08-29T14:56:46Z</time>
      </trkpt>
      <trkpt lat="49.98126" lon="5.26792">
        <ele>385</ele>
        <time>2017-08-29T14:56:57Z</time>
      </trkpt>
      <trkpt lat="49.98131" lon="5.2682">
        <ele>384</ele>
        <time>2017-08-29T14:57:07Z</time>
      </trkpt>
      <trkpt lat="49.98132" lon="5.26833">
        <ele>385</ele>
        <time>2017-08-29T14:57:17Z</time>
      </trkpt>
      <trkpt lat="49.98132" lon="5.26839">
        <ele>385</ele>
        <time>2017-08-29T14:57:27Z</time>
      </trkpt>
      <trkpt lat="49.98131" lon="5.26841">
        <ele>385</ele>
        <time>2017-08-29T14:57:38Z</time>
      </trkpt>
      <trkpt lat="49.9813" lon="5.26841">
        <ele>385</ele>
        <time>2017-08-29T14:57:48Z</time>
      </trkpt>
      <trkpt lat="49.98128" lon="5.26831">
        <ele>385</ele>
        <time>2017-08-29T14:57:59Z</time>
      </trkpt>
      <trkpt lat="49.98121" lon="5.26833">
        <ele>385</ele>
        <time>2017-08-29T14:58:09Z</time>
      </trkpt>
      <trkpt lat="49.98126" lon="5.26861">
        <ele>385</ele>
        <time>2017-08-29T14:58:46Z</time>
      </trkpt>
      <trkpt lat="49.98127" lon="5.26864">
        <ele>385</ele>
        <time>2017-08-29T14:58:56Z</time>
      </trkpt>
      <trkpt lat="49.9813" lon="5.26877">
        <ele>385</ele>
        <time>2017-08-29T14:59:06Z</time>
      </trkpt>
      <trkpt lat="49.9813" lon="5.26871">
        <ele>385</ele>
        <time>2017-08-29T14:59:16Z</time>
      </trkpt>
      <trkpt lat="49.98131" lon="5.2686">
        <ele>385</ele>
        <time>2017-08-29T14:59:27Z</time>
      </trkpt>
      <trkpt lat="49.98128" lon="5.26855">
        <ele>385</ele>
        <time>2017-08-29T14:59:37Z</time>
      </trkpt>
      <trkpt lat="49.9813" lon="5.26852">
        <ele>385</ele>
        <time>2017-08-29T14:59:48Z</time>
      </trkpt>
      <trkpt lat="49.98127" lon="5.26855">
        <ele>385</ele>
        <time>2017-08-29T14:59:59Z</time>
      </trkpt>
      <trkpt lat="49.98124" lon="5.26845">
        <ele>385</ele>
        <time>2017-08-29T15:00:09Z</time>
      </trkpt>
      <trkpt lat="49.98122" lon="5.26847">
        <ele>385</ele>
        <time>2017-08-29T15:00:19Z</time>
      </trkpt>
      <trkpt lat="49.98123" lon="5.26847">
        <ele>385</ele>
        <time>2017-08-29T15:00:30Z</time>
      </trkpt>
      <trkpt lat="49.98122" lon="5.26845">
        <ele>385</ele>
        <time>2017-08-29T15:00:41Z</time>
      </trkpt>
      <trkpt lat="49.98126" lon="5.26851">
        <ele>385</ele>
        <time>2017-08-29T15:00:51Z</time>
      </trkpt>
      <trkpt lat="49.98121" lon="5.2686">
        <ele>385</ele>
        <time>2017-08-29T15:01:01Z</time>
      </trkpt>
      <trkpt lat="49.98177" lon="5.26839">
        <ele>385</ele>
        <time>2017-08-29T15:01:47Z</time>
      </trkpt>
      <trkpt lat="49.98138" lon="5.26861">
        <ele>385</ele>
        <time>2017-08-29T15:02:32Z</time>
      </trkpt>
      <trkpt lat="49.98156" lon="5.2687">
        <ele>385</ele>
        <time>2017-08-29T15:02:43Z</time>
      </trkpt>
      <trkpt lat="49.98148" lon="5.26863">
        <ele>385</ele>
        <time>2017-08-29T15:02:53Z</time>
      </trkpt>
      <trkpt lat="49.98135" lon="5.26858">
        <ele>385</ele>
        <time>2017-08-29T15:03:03Z</time>
      </trkpt>
      <trkpt lat="49.9822" lon="5.27211">
        <ele>385</ele>
        <time>2017-08-29T15:06:17Z</time>
      </trkpt>
      <trkpt lat="49.98034" lon="5.26398">
        <ele>385</ele>
        <time>2017-08-29T15:06:58Z</time>
      </trkpt>
      <trkpt lat="49.98124" lon="5.26807">
        <ele>385</ele>
        <time>2017-08-29T15:07:13Z</time>
      </trkpt>
      <trkpt lat="49.98142" lon="5.26849">
        <ele>385</ele>
        <time>2017-08-29T15:07:23Z</time>
      </trkpt>
      <trkpt lat="49.98144" lon="5.26849">
        <ele>385</ele>
        <time>2017-08-29T15:07:33Z</time>
      </trkpt>
      <trkpt lat="49.98137" lon="5.26866">
        <ele>385</ele>
        <time>2017-08-29T15:07:44Z</time>
      </trkpt>
      <trkpt lat="49.98142" lon="5.26869">
        <ele>385</ele>
        <time>2017-08-29T15:07:54Z</time>
      </trkpt>
      <trkpt lat="49.9815" lon="5.26859">
        <ele>385</ele>
        <time>2017-08-29T15:08:05Z</time>
      </trkpt>
      <trkpt lat="49.98149" lon="5.26866">
        <ele>385</ele>
        <time>2017-08-29T15:08:16Z</time>
      </trkpt>
      <trkpt lat="49.98137" lon="5.26872">
        <ele>385</ele>
        <time>2017-08-29T15:08:26Z</time>
      </trkpt>
      <trkpt lat="49.98133" lon="5.26871">
        <ele>385</ele>
        <time>2017-08-29T15:08:37Z</time>
      </trkpt>
      <trkpt lat="49.98135" lon="5.26867">
        <ele>385</ele>
        <time>2017-08-29T15:08:47Z</time>
      </trkpt>
      <trkpt lat="49.98133" lon="5.26862">
        <ele>385</ele>
        <time>2017-08-29T15:08:58Z</time>
      </trkpt>
      <trkpt lat="49.98129" lon="5.26863">
        <ele>385</ele>
        <time>2017-08-29T15:09:08Z</time>
      </trkpt>
      <trkpt lat="49.98138" lon="5.26858">
        <ele>385</ele>
        <time>2017-08-29T15:09:19Z</time>
      </trkpt>
      <trkpt lat="49.98139" lon="5.26846">
        <ele>385</ele>
        <time>2017-08-29T15:10:47Z</time>
      </trkpt>
      <trkpt lat="49.9814" lon="5.26855">
        <ele>385</ele>
        <time>2017-08-29T15:10:58Z</time>
      </trkpt>
      <trkpt lat="49.98139" lon="5.26861">
        <ele>385</ele>
        <time>2017-08-29T15:11:09Z</time>
      </trkpt>
      <trkpt lat="49.98138" lon="5.26859">
        <ele>386</ele>
        <time>2017-08-29T15:11:20Z</time>
      </trkpt>
      <trkpt lat="49.98137" lon="5.26856">
        <ele>387</ele>
        <time>2017-08-29T15:11:30Z</time>
      </trkpt>
      <trkpt lat="49.98137" lon="5.26857">
        <ele>388</ele>
        <time>2017-08-29T15:11:41Z</time>
      </trkpt>
      <trkpt lat="49.98138" lon="5.26859">
        <ele>388</ele>
        <time>2017-08-29T15:11:52Z</time>
      </trkpt>
      <trkpt lat="49.98137" lon="5.26857">
        <ele>388</ele>
        <time>2017-08-29T15:12:02Z</time>
      </trkpt>
      <trkpt lat="49.98135" lon="5.26857">
        <ele>388</ele>
        <time>2017-08-29T15:12:12Z</time>
      </trkpt>
      <trkpt lat="49.98136" lon="5.26859">
        <ele>388</ele>
        <time>2017-08-29T15:12:23Z</time>
      </trkpt>
      <trkpt lat="49.98133" lon="5.26862">
        <ele>388</ele>
        <time>2017-08-29T15:12:33Z</time>
      </trkpt>
      <trkpt lat="49.98131" lon="5.26863">
        <ele>388</ele>
        <time>2017-08-29T15:12:44Z</time>
      </trkpt>
      <trkpt lat="49.98132" lon="5.26859">
        <ele>388</ele>
        <time>2017-08-29T15:12:55Z</time>
      </trkpt>
      <trkpt lat="49.98133" lon="5.26857">
        <ele>388</ele>
        <time>2017-08-29T15:13:05Z</time>
      </trkpt>
      <trkpt lat="49.98132" lon="5.26855">
        <ele>388</ele>
        <time>2017-08-29T15:13:16Z</time>
      </trkpt>
      <trkpt lat="49.98131" lon="5.26853">
        <ele>388</ele>
        <time>2017-08-29T15:13:28Z</time>
      </trkpt>
      <trkpt lat="49.98134" lon="5.26854">
        <ele>388</ele>
        <time>2017-08-29T15:13:39Z</time>
      </trkpt>
      <trkpt lat="49.98135" lon="5.26849">
        <ele>388</ele>
        <time>2017-08-29T15:13:49Z</time>
      </trkpt>
      <trkpt lat="49.98136" lon="5.2685">
        <ele>388</ele>
        <time>2017-08-29T15:14:00Z</time>
      </trkpt>
      <trkpt lat="49.98138" lon="5.26858">
        <ele>388</ele>
        <time>2017-08-29T15:14:10Z</time>
      </trkpt>
      <trkpt lat="49.98136" lon="5.26858">
        <ele>388</ele>
        <time>2017-08-29T15:14:20Z</time>
      </trkpt>
      <trkpt lat="49.98135" lon="5.26863">
        <ele>388</ele>
        <time>2017-08-29T15:14:30Z</time>
      </trkpt>
      <trkpt lat="49.98137" lon="5.26868">
        <ele>388</ele>
        <time>2017-08-29T15:14:40Z</time>
      </trkpt>
      <trkpt lat="49.98136" lon="5.26867">
        <ele>388</ele>
        <time>2017-08-29T15:14:51Z</time>
      </trkpt>
      <trkpt lat="49.98136" lon="5.26865">
        <ele>388</ele>
        <time>2017-08-29T15:15:01Z</time>
      </trkpt>
      <trkpt lat="49.98135" lon="5.26866">
        <ele>388</ele>
        <time>2017-08-29T15:15:12Z</time>
      </trkpt>
      <trkpt lat="49.98135" lon="5.26861">
        <ele>388</ele>
        <time>2017-08-29T15:15:22Z</time>
      </trkpt>
      <trkpt lat="49.98136" lon="5.26859">
        <ele>388</ele>
        <time>2017-08-29T15:15:32Z</time>
      </trkpt>
      <trkpt lat="49.98134" lon="5.26855">
        <ele>388</ele>
        <time>2017-08-29T15:15:43Z</time>
      </trkpt>
      <trkpt lat="49.98132" lon="5.26854">
        <ele>388</ele>
        <time>2017-08-29T15:15:53Z</time>
      </trkpt>
      <trkpt lat="49.98131" lon="5.26857">
        <ele>388</ele>
        <time>2017-08-29T15:16:04Z</time>
      </trkpt>
      <trkpt lat="49.98133" lon="5.26855">
        <ele>388</ele>
        <time>2017-08-29T15:16:14Z</time>
      </trkpt>
      <trkpt lat="49.98136" lon="5.26851">
        <ele>388</ele>
        <time>2017-08-29T15:16:25Z</time>
      </trkpt>
      <trkpt lat="49.9814" lon="5.26853">
        <ele>388</ele>
        <time>2017-08-29T15:16:35Z</time>
      </trkpt>
      <trkpt lat="49.98147" lon="5.26852">
        <ele>388</ele>
        <time>2017-08-29T15:16:47Z</time>
      </trkpt>
      <trkpt lat="49.9814" lon="5.26851">
        <ele>388</ele>
        <time>2017-08-29T15:16:58Z</time>
      </trkpt>
      <trkpt lat="49.98132" lon="5.26851">
        <ele>388</ele>
        <time>2017-08-29T15:17:09Z</time>
      </trkpt>
      <trkpt lat="49.98127" lon="5.2685">
        <ele>388</ele>
        <time>2017-08-29T15:17:19Z</time>
      </trkpt>
      <trkpt lat="49.98132" lon="5.26851">
        <ele>388</ele>
        <time>2017-08-29T15:17:30Z</time>
      </trkpt>
      <trkpt lat="49.98135" lon="5.26852">
        <ele>387</ele>
        <time>2017-08-29T15:17:40Z</time>
      </trkpt>
      <trkpt lat="49.98138" lon="5.2685">
        <ele>388</ele>
        <time>2017-08-29T15:17:50Z</time>
      </trkpt>
      <trkpt lat="49.98141" lon="5.26846">
        <ele>388</ele>
        <time>2017-08-29T15:18:01Z</time>
      </trkpt>
      <trkpt lat="49.98137" lon="5.26846">
        <ele>388</ele>
        <time>2017-08-29T15:18:11Z</time>
      </trkpt>
      <trkpt lat="49.98136" lon="5.26846">
        <ele>387</ele>
        <time>2017-08-29T15:18:22Z</time>
      </trkpt>
      <trkpt lat="49.98134" lon="5.26848">
        <ele>387</ele>
        <time>2017-08-29T15:18:32Z</time>
      </trkpt>
      <trkpt lat="49.98135" lon="5.26849">
        <ele>388</ele>
        <time>2017-08-29T15:18:43Z</time>
      </trkpt>
      <trkpt lat="49.98135" lon="5.2685">
        <ele>388</ele>
        <time>2017-08-29T15:18:53Z</time>
      </trkpt>
      <trkpt lat="49.98138" lon="5.26852">
        <ele>388</ele>
        <time>2017-08-29T15:19:03Z</time>
      </trkpt>
      <trkpt lat="49.98141" lon="5.26852">
        <ele>387</ele>
        <time>2017-08-29T15:19:14Z</time>
      </trkpt>
      <trkpt lat="49.9814" lon="5.26853">
        <ele>387</ele>
        <time>2017-08-29T15:19:24Z</time>
      </trkpt>
      <trkpt lat="49.9814" lon="5.26855">
        <ele>388</ele>
        <time>2017-08-29T15:19:35Z</time>
      </trkpt>
      <trkpt lat="49.98136" lon="5.26855">
        <ele>388</ele>
        <time>2017-08-29T15:19:46Z</time>
      </trkpt>
      <trkpt lat="49.98133" lon="5.26851">
        <ele>388</ele>
        <time>2017-08-29T15:19:57Z</time>
      </trkpt>
      <trkpt lat="49.9813" lon="5.26853">
        <ele>388</ele>
        <time>2017-08-29T15:20:07Z</time>
      </trkpt>
      <trkpt lat="49.98127" lon="5.26855">
        <ele>388</ele>
        <time>2017-08-29T15:20:17Z</time>
      </trkpt>
      <trkpt lat="49.98127" lon="5.26853">
        <ele>387</ele>
        <time>2017-08-29T15:20:27Z</time>
      </trkpt>
      <trkpt lat="49.98129" lon="5.26858">
        <ele>388</ele>
        <time>2017-08-29T15:20:37Z</time>
      </trkpt>
      <trkpt lat="49.98129" lon="5.26863">
        <ele>388</ele>
        <time>2017-08-29T15:20:48Z</time>
      </trkpt>
      <trkpt lat="49.98131" lon="5.26867">
        <ele>388</ele>
        <time>2017-08-29T15:20:58Z</time>
      </trkpt>
      <trkpt lat="49.98133" lon="5.26866">
        <ele>388</ele>
        <time>2017-08-29T15:21:09Z</time>
      </trkpt>
      <trkpt lat="49.98132" lon="5.26861">
        <ele>388</ele>
        <time>2017-08-29T15:21:19Z</time>
      </trkpt>
      <trkpt lat="49.98131" lon="5.26854">
        <ele>388</ele>
        <time>2017-08-29T15:21:29Z</time>
      </trkpt>
      <trkpt lat="49.98132" lon="5.26857">
        <ele>388</ele>
        <time>2017-08-29T15:21:40Z</time>
      </trkpt>
      <trkpt lat="49.98131" lon="5.26857">
        <ele>388</ele>
        <time>2017-08-29T15:21:50Z</time>
      </trkpt>
      <trkpt lat="49.98132" lon="5.26858">
        <ele>388</ele>
        <time>2017-08-29T15:22:01Z</time>
      </trkpt>
      <trkpt lat="49.98131" lon="5.26857">
        <ele>388</ele>
        <time>2017-08-29T15:22:11Z</time>
      </trkpt>
      <trkpt lat="49.98132" lon="5.26857">
        <ele>388</ele>
        <time>2017-08-29T15:22:22Z</time>
      </trkpt>
      <trkpt lat="49.98134" lon="5.26857">
        <ele>388</ele>
        <time>2017-08-29T15:22:32Z</time>
      </trkpt>
      <trkpt lat="49.98134" lon="5.26855">
        <ele>388</ele>
        <time>2017-08-29T15:22:42Z</time>
      </trkpt>
      <trkpt lat="49.98133" lon="5.26854">
        <ele>388</ele>
        <time>2017-08-29T15:22:53Z</time>
      </trkpt>
      <trkpt lat="49.98133" lon="5.26851">
        <ele>388</ele>
        <time>2017-08-29T15:23:05Z</time>
      </trkpt>
      <trkpt lat="49.98134" lon="5.26851">
        <ele>388</ele>
        <time>2017-08-29T15:23:15Z</time>
      </trkpt>
      <trkpt lat="49.98135" lon="5.2685">
        <ele>388</ele>
        <time>2017-08-29T15:23:25Z</time>
      </trkpt>
      <trkpt lat="49.98135" lon="5.26849">
        <ele>388</ele>
        <time>2017-08-29T15:23:36Z</time>
      </trkpt>
      <trkpt lat="49.98135" lon="5.2685">
        <ele>388</ele>
        <time>2017-08-29T15:23:47Z</time>
      </trkpt>
      <trkpt lat="49.98135" lon="5.26852">
        <ele>388</ele>
        <time>2017-08-29T15:23:57Z</time>
      </trkpt>
      <trkpt lat="49.98133" lon="5.26849">
        <ele>388</ele>
        <time>2017-08-29T15:24:07Z</time>
      </trkpt>
      <trkpt lat="49.98124" lon="5.26838">
        <ele>388</ele>
        <time>2017-08-29T15:24:17Z</time>
      </trkpt>
      <trkpt lat="49.98122" lon="5.26836">
        <ele>388</ele>
        <time>2017-08-29T15:24:28Z</time>
      </trkpt>
      <trkpt lat="49.98124" lon="5.2684">
        <ele>388</ele>
        <time>2017-08-29T15:24:39Z</time>
      </trkpt>
      <trkpt lat="49.98125" lon="5.26842">
        <ele>388</ele>
        <time>2017-08-29T15:24:49Z</time>
      </trkpt>
      <trkpt lat="49.98127" lon="5.26846">
        <ele>388</ele>
        <time>2017-08-29T15:25:00Z</time>
      </trkpt>
      <trkpt lat="49.98132" lon="5.26854">
        <ele>388</ele>
        <time>2017-08-29T15:25:10Z</time>
      </trkpt>
      <trkpt lat="49.98133" lon="5.26856">
        <ele>388</ele>
        <time>2017-08-29T15:25:21Z</time>
      </trkpt>
      <trkpt lat="49.98132" lon="5.26853">
        <ele>388</ele>
        <time>2017-08-29T15:25:31Z</time>
      </trkpt>
      <trkpt lat="49.9813" lon="5.26847">
        <ele>388</ele>
        <time>2017-08-29T15:25:42Z</time>
      </trkpt>
      <trkpt lat="49.98131" lon="5.26857">
        <ele>388</ele>
        <time>2017-08-29T15:25:53Z</time>
      </trkpt>
      <trkpt lat="49.98133" lon="5.26859">
        <ele>388</ele>
        <time>2017-08-29T15:26:03Z</time>
      </trkpt>
      <trkpt lat="49.98131" lon="5.26855">
        <ele>389</ele>
        <time>2017-08-29T15:26:13Z</time>
      </trkpt>
      <trkpt lat="49.9813" lon="5.26853">
        <ele>388</ele>
        <time>2017-08-29T15:26:24Z</time>
      </trkpt>
      <trkpt lat="49.98132" lon="5.26858">
        <ele>389</ele>
        <time>2017-08-29T15:26:35Z</time>
      </trkpt>
      <trkpt lat="49.98132" lon="5.26855">
        <ele>388</ele>
        <time>2017-08-29T15:26:45Z</time>
      </trkpt>
      <trkpt lat="49.98132" lon="5.26857">
        <ele>388</ele>
        <time>2017-08-29T15:26:56Z</time>
      </trkpt>
      <trkpt lat="49.98129" lon="5.26844">
        <ele>388</ele>
        <time>2017-08-29T15:27:07Z</time>
      </trkpt>
      <trkpt lat="49.98127" lon="5.26842">
        <ele>388</ele>
        <time>2017-08-29T15:27:18Z</time>
      </trkpt>
      <trkpt lat="49.9813" lon="5.26852">
        <ele>388</ele>
        <time>2017-08-29T15:27:28Z</time>
      </trkpt>
      <trkpt lat="49.98136" lon="5.26858">
        <ele>388</ele>
        <time>2017-08-29T15:27:39Z</time>
      </trkpt>
      <trkpt lat="49.98125" lon="5.26845">
        <ele>388</ele>
        <time>2017-08-29T15:27:50Z</time>
      </trkpt>
      <trkpt lat="49.98119" lon="5.26836">
        <ele>389</ele>
        <time>2017-08-29T15:28:00Z</time>
      </trkpt>
      <trkpt lat="49.98122" lon="5.26841">
        <ele>389</ele>
        <time>2017-08-29T15:28:10Z</time>
      </trkpt>
      <trkpt lat="49.98127" lon="5.26848">
        <ele>389</ele>
        <time>2017-08-29T15:28:21Z</time>
      </trkpt>
      <trkpt lat="49.98135" lon="5.26851">
        <ele>388</ele>
        <time>2017-08-29T15:28:31Z</time>
      </trkpt>
      <trkpt lat="49.98144" lon="5.26857">
        <ele>389</ele>
        <time>2017-08-29T15:28:42Z</time>
      </trkpt>
      <trkpt lat="49.98151" lon="5.26858">
        <ele>389</ele>
        <time>2017-08-29T15:28:52Z</time>
      </trkpt>
      <trkpt lat="49.98146" lon="5.26854">
        <ele>389</ele>
        <time>2017-08-29T15:29:04Z</time>
      </trkpt>
      <trkpt lat="49.98142" lon="5.26857">
        <ele>389</ele>
        <time>2017-08-29T15:29:15Z</time>
      </trkpt>
      <trkpt lat="49.98142" lon="5.26859">
        <ele>389</ele>
        <time>2017-08-29T15:29:25Z</time>
      </trkpt>
      <trkpt lat="49.98148" lon="5.26846">
        <ele>388</ele>
        <time>2017-08-29T15:29:35Z</time>
      </trkpt>
      <trkpt lat="49.98147" lon="5.26848">
        <ele>389</ele>
        <time>2017-08-29T15:29:45Z</time>
      </trkpt>
      <trkpt lat="49.9813" lon="5.26839">
        <ele>389</ele>
        <time>2017-08-29T15:29:55Z</time>
      </trkpt>
      <trkpt lat="49.98127" lon="5.26844">
        <ele>389</ele>
        <time>2017-08-29T15:30:06Z</time>
      </trkpt>
      <trkpt lat="49.9813" lon="5.2685">
        <ele>388</ele>
        <time>2017-08-29T15:30:16Z</time>
      </trkpt>
      <trkpt lat="49.98136" lon="5.26854">
        <ele>388</ele>
        <time>2017-08-29T15:30:27Z</time>
      </trkpt>
      <trkpt lat="49.98134" lon="5.26849">
        <ele>389</ele>
        <time>2017-08-29T15:30:37Z</time>
      </trkpt>
      <trkpt lat="49.98136" lon="5.26851">
        <ele>388</ele>
        <time>2017-08-29T15:30:48Z</time>
      </trkpt>
      <trkpt lat="49.98133" lon="5.26851">
        <ele>389</ele>
        <time>2017-08-29T15:30:58Z</time>
      </trkpt>
      <trkpt lat="49.98132" lon="5.26853">
        <ele>389</ele>
        <time>2017-08-29T15:31:08Z</time>
      </trkpt>
      <trkpt lat="49.98132" lon="5.26854">
        <ele>389</ele>
        <time>2017-08-29T15:31:20Z</time>
      </trkpt>
      <trkpt lat="49.98135" lon="5.26855">
        <ele>389</ele>
        <time>2017-08-29T15:31:31Z</time>
      </trkpt>
      <trkpt lat="49.98135" lon="5.26853">
        <ele>389</ele>
        <time>2017-08-29T15:31:43Z</time>
      </trkpt>
      <trkpt lat="49.98132" lon="5.26849">
        <ele>388</ele>
        <time>2017-08-29T15:31:53Z</time>
      </trkpt>
      <trkpt lat="49.9813" lon="5.26849">
        <ele>389</ele>
        <time>2017-08-29T15:32:03Z</time>
      </trkpt>
      <trkpt lat="49.98129" lon="5.2685">
        <ele>389</ele>
        <time>2017-08-29T15:32:13Z</time>
      </trkpt>
      <trkpt lat="49.98127" lon="5.26849">
        <ele>389</ele>
        <time>2017-08-29T15:32:23Z</time>
      </trkpt>
      <trkpt lat="49.98127" lon="5.26849">
        <ele>389</ele>
        <time>2017-08-29T15:32:33Z</time>
      </trkpt>
      <trkpt lat="49.98129" lon="5.26851">
        <ele>388</ele>
        <time>2017-08-29T15:32:43Z</time>
      </trkpt>
      <trkpt lat="49.98129" lon="5.26849">
        <ele>388</ele>
        <time>2017-08-29T15:32:54Z</time>
      </trkpt>
      <trkpt lat="49.98124" lon="5.2685">
        <ele>388</ele>
        <time>2017-08-29T15:33:04Z</time>
      </trkpt>
      <trkpt lat="49.98122" lon="5.26849">
        <ele>388</ele>
        <time>2017-08-29T15:33:15Z</time>
      </trkpt>
      <trkpt lat="49.98128" lon="5.26849">
        <ele>389</ele>
        <time>2017-08-29T15:33:25Z</time>
      </trkpt>
      <trkpt lat="49.98134" lon="5.2685">
        <ele>389</ele>
        <time>2017-08-29T15:33:36Z</time>
      </trkpt>
      <trkpt lat="49.98134" lon="5.2685">
        <ele>389</ele>
        <time>2017-08-29T15:33:47Z</time>
      </trkpt>
      <trkpt lat="49.98131" lon="5.2685">
        <ele>389</ele>
        <time>2017-08-29T15:33:57Z</time>
      </trkpt>
      <trkpt lat="49.98128" lon="5.26848">
        <ele>389</ele>
        <time>2017-08-29T15:34:09Z</time>
      </trkpt>
      <trkpt lat="49.98128" lon="5.26851">
        <ele>389</ele>
        <time>2017-08-29T15:34:20Z</time>
      </trkpt>
      <trkpt lat="49.98129" lon="5.26852">
        <ele>389</ele>
        <time>2017-08-29T15:34:30Z</time>
      </trkpt>
      <trkpt lat="49.98132" lon="5.26854">
        <ele>388</ele>
        <time>2017-08-29T15:34:41Z</time>
      </trkpt>
      <trkpt lat="49.98133" lon="5.26854">
        <ele>389</ele>
        <time>2017-08-29T15:34:51Z</time>
      </trkpt>
      <trkpt lat="49.98132" lon="5.26852">
        <ele>389</ele>
        <time>2017-08-29T15:35:02Z</time>
      </trkpt>
      <trkpt lat="49.98134" lon="5.26855">
        <ele>388</ele>
        <time>2017-08-29T15:35:12Z</time>
      </trkpt>
      <trkpt lat="49.98132" lon="5.26855">
        <ele>389</ele>
        <time>2017-08-29T15:35:23Z</time>
      </trkpt>
      <trkpt lat="49.98132" lon="5.26854">
        <ele>389</ele>
        <time>2017-08-29T15:35:34Z</time>
      </trkpt>
      <trkpt lat="49.98131" lon="5.26854">
        <ele>389</ele>
        <time>2017-08-29T15:35:44Z</time>
      </trkpt>
      <trkpt lat="49.98133" lon="5.26857">
        <ele>389</ele>
        <time>2017-08-29T15:35:55Z</time>
      </trkpt>
      <trkpt lat="49.98134" lon="5.26858">
        <ele>389</ele>
        <time>2017-08-29T15:36:06Z</time>
      </trkpt>
      <trkpt lat="49.98131" lon="5.26855">
        <ele>389</ele>
        <time>2017-08-29T15:36:16Z</time>
      </trkpt>
      <trkpt lat="49.98125" lon="5.26849">
        <ele>388</ele>
        <time>2017-08-29T15:36:26Z</time>
      </trkpt>
      <trkpt lat="49.98134" lon="5.26858">
        <ele>389</ele>
        <time>2017-08-29T15:36:37Z</time>
      </trkpt>
      <trkpt lat="49.98141" lon="5.26865">
        <ele>388</ele>
        <time>2017-08-29T15:36:47Z</time>
      </trkpt>
      <trkpt lat="49.98141" lon="5.26868">
        <ele>389</ele>
        <time>2017-08-29T15:36:58Z</time>
      </trkpt>
      <trkpt lat="49.9814" lon="5.26865">
        <ele>389</ele>
        <time>2017-08-29T15:37:09Z</time>
      </trkpt>
      <trkpt lat="49.98132" lon="5.26859">
        <ele>389</ele>
        <time>2017-08-29T15:37:19Z</time>
      </trkpt>
      <trkpt lat="49.98129" lon="5.26859">
        <ele>389</ele>
        <time>2017-08-29T15:37:30Z</time>
      </trkpt>
      <trkpt lat="49.98124" lon="5.26858">
        <ele>389</ele>
        <time>2017-08-29T15:37:41Z</time>
      </trkpt>
      <trkpt lat="49.98117" lon="5.26853">
        <ele>389</ele>
        <time>2017-08-29T15:37:51Z</time>
      </trkpt>
      <trkpt lat="49.98112" lon="5.26851">
        <ele>389</ele>
        <time>2017-08-29T15:38:02Z</time>
      </trkpt>
      <trkpt lat="49.98114" lon="5.26855">
        <ele>389</ele>
        <time>2017-08-29T15:38:12Z</time>
      </trkpt>
      <trkpt lat="49.98121" lon="5.26857">
        <ele>388</ele>
        <time>2017-08-29T15:38:23Z</time>
      </trkpt>
      <trkpt lat="49.98125" lon="5.26858">
        <ele>389</ele>
        <time>2017-08-29T15:38:34Z</time>
      </trkpt>
      <trkpt lat="49.98135" lon="5.26863">
        <ele>389</ele>
        <time>2017-08-29T15:38:44Z</time>
      </trkpt>
      <trkpt lat="49.98138" lon="5.26866">
        <ele>389</ele>
        <time>2017-08-29T15:38:55Z</time>
      </trkpt>
      <trkpt lat="49.9814" lon="5.26866">
        <ele>389</ele>
        <time>2017-08-29T15:39:05Z</time>
      </trkpt>
      <trkpt lat="49.98138" lon="5.26863">
        <ele>389</ele>
        <time>2017-08-29T15:39:17Z</time>
      </trkpt>
      <trkpt lat="49.98137" lon="5.26863">
        <ele>389</ele>
        <time>2017-08-29T15:39:27Z</time>
      </trkpt>
      <trkpt lat="49.98133" lon="5.26864">
        <ele>389</ele>
        <time>2017-08-29T15:39:38Z</time>
      </trkpt>
      <trkpt lat="49.98129" lon="5.26864">
        <ele>389</ele>
        <time>2017-08-29T15:39:49Z</time>
      </trkpt>
      <trkpt lat="49.98129" lon="5.26866">
        <ele>389</ele>
        <time>2017-08-29T15:39:59Z</time>
      </trkpt>
      <trkpt lat="49.98129" lon="5.26863">
        <ele>388</ele>
        <time>2017-08-29T15:40:10Z</time>
      </trkpt>
      <trkpt lat="49.98131" lon="5.26862">
        <ele>389</ele>
        <time>2017-08-29T15:40:20Z</time>
      </trkpt>
      <trkpt lat="49.98132" lon="5.2686">
        <ele>389</ele>
        <time>2017-08-29T15:40:31Z</time>
      </trkpt>
      <trkpt lat="49.98134" lon="5.26859">
        <ele>389</ele>
        <time>2017-08-29T15:40:41Z</time>
      </trkpt>
      <trkpt lat="49.9813" lon="5.26859">
        <ele>389</ele>
        <time>2017-08-29T15:40:53Z</time>
      </trkpt>
      <trkpt lat="49.98132" lon="5.26861">
        <ele>389</ele>
        <time>2017-08-29T15:41:04Z</time>
      </trkpt>
      <trkpt lat="49.9813" lon="5.26861">
        <ele>389</ele>
        <time>2017-08-29T15:41:14Z</time>
      </trkpt>
      <trkpt lat="49.98131" lon="5.2686">
        <ele>389</ele>
        <time>2017-08-29T15:41:25Z</time>
      </trkpt>
      <trkpt lat="49.98132" lon="5.2686">
        <ele>388</ele>
        <time>2017-08-29T15:41:36Z</time>
      </trkpt>
      <trkpt lat="49.98133" lon="5.26859">
        <ele>389</ele>
        <time>2017-08-29T15:41:46Z</time>
      </trkpt>
      <trkpt lat="49.98133" lon="5.2686">
        <ele>389</ele>
        <time>2017-08-29T15:41:56Z</time>
      </trkpt>
      <trkpt lat="49.98132" lon="5.26861">
        <ele>389</ele>
        <time>2017-08-29T15:42:07Z</time>
      </trkpt>
      <trkpt lat="49.98134" lon="5.26861">
        <ele>389</ele>
        <time>2017-08-29T15:42:17Z</time>
      </trkpt>
      <trkpt lat="49.98135" lon="5.26862">
        <ele>389</ele>
        <time>2017-08-29T15:42:29Z</time>
      </trkpt>
      <trkpt lat="49.98135" lon="5.26862">
        <ele>389</ele>
        <time>2017-08-29T15:42:40Z</time>
      </trkpt>
      <trkpt lat="49.98135" lon="5.26863">
        <ele>389</ele>
        <time>2017-08-29T15:42:52Z</time>
      </trkpt>
      <trkpt lat="49.98134" lon="5.26862">
        <ele>389</ele>
        <time>2017-08-29T15:43:02Z</time>
      </trkpt>
      <trkpt lat="49.98135" lon="5.26861">
        <ele>389</ele>
        <time>2017-08-29T15:43:13Z</time>
      </trkpt>
      <trkpt lat="49.98134" lon="5.26859">
        <ele>389</ele>
        <time>2017-08-29T15:43:23Z</time>
      </trkpt>
      <trkpt lat="49.98134" lon="5.26858">
        <ele>389</ele>
        <time>2017-08-29T15:43:33Z</time>
      </trkpt>
      <trkpt lat="49.98136" lon="5.26857">
        <ele>389</ele>
        <time>2017-08-29T15:43:43Z</time>
      </trkpt>
      <trkpt lat="49.98137" lon="5.26857">
        <ele>389</ele>
        <time>2017-08-29T15:43:53Z</time>
      </trkpt>
      <trkpt lat="49.98132" lon="5.26856">
        <ele>389</ele>
        <time>2017-08-29T15:44:03Z</time>
      </trkpt>
      <trkpt lat="49.9813" lon="5.26857">
        <ele>389</ele>
        <time>2017-08-29T15:44:14Z</time>
      </trkpt>
      <trkpt lat="49.98135" lon="5.26857">
        <ele>389</ele>
        <time>2017-08-29T15:44:25Z</time>
      </trkpt>
      <trkpt lat="49.98137" lon="5.26855">
        <ele>389</ele>
        <time>2017-08-29T15:44:35Z</time>
      </trkpt>
      <trkpt lat="49.98133" lon="5.26854">
        <ele>389</ele>
        <time>2017-08-29T15:44:46Z</time>
      </trkpt>
      <trkpt lat="49.98131" lon="5.26858">
        <ele>389</ele>
        <time>2017-08-29T15:44:57Z</time>
      </trkpt>
      <trkpt lat="49.98133" lon="5.26857">
        <ele>389</ele>
        <time>2017-08-29T15:45:07Z</time>
      </trkpt>
      <trkpt lat="49.98137" lon="5.26862">
        <ele>389</ele>
        <time>2017-08-29T15:45:18Z</time>
      </trkpt>
      <trkpt lat="49.98138" lon="5.26861">
        <ele>389</ele>
        <time>2017-08-29T15:45:29Z</time>
      </trkpt>
      <trkpt lat="49.98134" lon="5.2686">
        <ele>389</ele>
        <time>2017-08-29T15:45:39Z</time>
      </trkpt>
      <trkpt lat="49.98134" lon="5.26859">
        <ele>389</ele>
        <time>2017-08-29T15:45:50Z</time>
      </trkpt>
      <trkpt lat="49.98137" lon="5.26859">
        <ele>388</ele>
        <time>2017-08-29T15:46:00Z</time>
      </trkpt>
      <trkpt lat="49.9814" lon="5.26861">
        <ele>389</ele>
        <time>2017-08-29T15:46:11Z</time>
      </trkpt>
      <trkpt lat="49.98143" lon="5.26857">
        <ele>389</ele>
        <time>2017-08-29T15:46:22Z</time>
      </trkpt>
      <trkpt lat="49.98146" lon="5.26854">
        <ele>389</ele>
        <time>2017-08-29T15:46:32Z</time>
      </trkpt>
      <trkpt lat="49.98146" lon="5.26854">
        <ele>389</ele>
        <time>2017-08-29T15:46:43Z</time>
      </trkpt>
      <trkpt lat="49.9814" lon="5.26858">
        <ele>389</ele>
        <time>2017-08-29T15:46:54Z</time>
      </trkpt>
      <trkpt lat="49.98135" lon="5.26859">
        <ele>389</ele>
        <time>2017-08-29T15:47:04Z</time>
      </trkpt>
      <trkpt lat="49.98131" lon="5.2686">
        <ele>389</ele>
        <time>2017-08-29T15:47:15Z</time>
      </trkpt>
      <trkpt lat="49.98135" lon="5.26861">
        <ele>389</ele>
        <time>2017-08-29T15:47:25Z</time>
      </trkpt>
      <trkpt lat="49.98135" lon="5.26861">
        <ele>389</ele>
        <time>2017-08-29T15:47:35Z</time>
      </trkpt>
      <trkpt lat="49.98135" lon="5.26858">
        <ele>389</ele>
        <time>2017-08-29T15:47:46Z</time>
      </trkpt>
      <trkpt lat="49.98136" lon="5.26859">
        <ele>389</ele>
        <time>2017-08-29T15:47:58Z</time>
      </trkpt>
      <trkpt lat="49.98134" lon="5.26858">
        <ele>389</ele>
        <time>2017-08-29T15:48:08Z</time>
      </trkpt>
      <trkpt lat="49.98134" lon="5.26859">
        <ele>389</ele>
        <time>2017-08-29T15:48:18Z</time>
      </trkpt>
      <trkpt lat="49.98133" lon="5.2686">
        <ele>389</ele>
        <time>2017-08-29T15:48:28Z</time>
      </trkpt>
      <trkpt lat="49.98133" lon="5.26862">
        <ele>389</ele>
        <time>2017-08-29T15:48:39Z</time>
      </trkpt>
      <trkpt lat="49.98135" lon="5.26862">
        <ele>390</ele>
        <time>2017-08-29T15:48:50Z</time>
      </trkpt>
      <trkpt lat="49.98136" lon="5.26862">
        <ele>389</ele>
        <time>2017-08-29T15:49:01Z</time>
      </trkpt>
      <trkpt lat="49.98135" lon="5.26861">
        <ele>389</ele>
        <time>2017-08-29T15:49:11Z</time>
      </trkpt>
      <trkpt lat="49.98136" lon="5.26859">
        <ele>389</ele>
        <time>2017-08-29T15:49:22Z</time>
      </trkpt>
      <trkpt lat="49.98135" lon="5.26859">
        <ele>389</ele>
        <time>2017-08-29T15:49:33Z</time>
      </trkpt>
      <trkpt lat="49.98134" lon="5.26857">
        <ele>390</ele>
        <time>2017-08-29T15:49:43Z</time>
      </trkpt>
      <trkpt lat="49.98136" lon="5.26857">
        <ele>389</ele>
        <time>2017-08-29T15:49:54Z</time>
      </trkpt>
      <trkpt lat="49.98136" lon="5.26857">
        <ele>389</ele>
        <time>2017-08-29T15:50:05Z</time>
      </trkpt>
      <trkpt lat="49.98135" lon="5.26858">
        <ele>389</ele>
        <time>2017-08-29T15:50:15Z</time>
      </trkpt>
      <trkpt lat="49.98134" lon="5.26862">
        <ele>390</ele>
        <time>2017-08-29T15:50:25Z</time>
      </trkpt>
      <trkpt lat="49.98135" lon="5.26861">
        <ele>389</ele>
        <time>2017-08-29T15:50:36Z</time>
      </trkpt>
      <trkpt lat="49.98133" lon="5.26862">
        <ele>389</ele>
        <time>2017-08-29T15:50:47Z</time>
      </trkpt>
      <trkpt lat="49.98131" lon="5.26861">
        <ele>389</ele>
        <time>2017-08-29T15:50:58Z</time>
      </trkpt>
      <trkpt lat="49.98132" lon="5.26861">
        <ele>390</ele>
        <time>2017-08-29T15:51:08Z</time>
      </trkpt>
      <trkpt lat="49.9813" lon="5.26861">
        <ele>390</ele>
        <time>2017-08-29T15:51:18Z</time>
      </trkpt>
      <trkpt lat="49.9813" lon="5.26861">
        <ele>390</ele>
        <time>2017-08-29T15:51:29Z</time>
      </trkpt>
      <trkpt lat="49.9813" lon="5.26863">
        <ele>390</ele>
        <time>2017-08-29T15:51:40Z</time>
      </trkpt>
      <trkpt lat="49.98132" lon="5.26864">
        <ele>389</ele>
        <time>2017-08-29T15:51:51Z</time>
      </trkpt>
      <trkpt lat="49.98134" lon="5.26864">
        <ele>390</ele>
        <time>2017-08-29T15:52:02Z</time>
      </trkpt>
      <trkpt lat="49.98135" lon="5.26863">
        <ele>389</ele>
        <time>2017-08-29T15:52:12Z</time>
      </trkpt>
      <trkpt lat="49.98135" lon="5.26862">
        <ele>390</ele>
        <time>2017-08-29T15:52:22Z</time>
      </trkpt>
      <trkpt lat="49.98135" lon="5.26863">
        <ele>389</ele>
        <time>2017-08-29T15:52:33Z</time>
      </trkpt>
      <trkpt lat="49.98134" lon="5.26861">
        <ele>390</ele>
        <time>2017-08-29T15:52:43Z</time>
      </trkpt>
      <trkpt lat="49.98134" lon="5.2686">
        <ele>389</ele>
        <time>2017-08-29T15:52:53Z</time>
      </trkpt>
      <trkpt lat="49.98134" lon="5.2686">
        <ele>389</ele>
        <time>2017-08-29T15:53:04Z</time>
      </trkpt>
      <trkpt lat="49.98132" lon="5.26859">
        <ele>389</ele>
        <time>2017-08-29T15:53:15Z</time>
      </trkpt>
      <trkpt lat="49.98132" lon="5.26857">
        <ele>389</ele>
        <time>2017-08-29T15:53:25Z</time>
      </trkpt>
      <trkpt lat="49.98132" lon="5.26855">
        <ele>390</ele>
        <time>2017-08-29T15:53:36Z</time>
      </trkpt>
      <trkpt lat="49.98133" lon="5.26854">
        <ele>390</ele>
        <time>2017-08-29T15:53:47Z</time>
      </trkpt>
      <trkpt lat="49.98135" lon="5.26853">
        <ele>390</ele>
        <time>2017-08-29T15:53:58Z</time>
      </trkpt>
      <trkpt lat="49.98134" lon="5.26856">
        <ele>390</ele>
        <time>2017-08-29T15:54:09Z</time>
      </trkpt>
      <trkpt lat="49.98134" lon="5.26857">
        <ele>390</ele>
        <time>2017-08-29T15:54:19Z</time>
      </trkpt>
      <trkpt lat="49.98134" lon="5.26856">
        <ele>390</ele>
        <time>2017-08-29T15:54:29Z</time>
      </trkpt>
      <trkpt lat="49.98135" lon="5.26854">
        <ele>389</ele>
        <time>2017-08-29T15:54:40Z</time>
      </trkpt>
      <trkpt lat="49.98134" lon="5.26852">
        <ele>390</ele>
        <time>2017-08-29T15:54:51Z</time>
      </trkpt>
      <trkpt lat="49.98132" lon="5.26854">
        <ele>390</ele>
        <time>2017-08-29T15:55:01Z</time>
      </trkpt>
      <trkpt lat="49.98133" lon="5.26854">
        <ele>390</ele>
        <time>2017-08-29T15:55:12Z</time>
      </trkpt>
      <trkpt lat="49.98133" lon="5.26855">
        <ele>389</ele>
        <time>2017-08-29T15:55:24Z</time>
      </trkpt>
      <trkpt lat="49.98134" lon="5.26855">
        <ele>390</ele>
        <time>2017-08-29T15:55:34Z</time>
      </trkpt>
      <trkpt lat="49.98135" lon="5.26856">
        <ele>390</ele>
        <time>2017-08-29T15:55:45Z</time>
      </trkpt>
      <trkpt lat="49.98138" lon="5.26856">
        <ele>390</ele>
        <time>2017-08-29T15:55:55Z</time>
      </trkpt>
      <trkpt lat="49.98138" lon="5.26853">
        <ele>389</ele>
        <time>2017-08-29T15:56:06Z</time>
      </trkpt>
      <trkpt lat="49.98136" lon="5.26854">
        <ele>390</ele>
        <time>2017-08-29T15:56:16Z</time>
      </trkpt>
      <trkpt lat="49.98135" lon="5.26854">
        <ele>390</ele>
        <time>2017-08-29T15:56:27Z</time>
      </trkpt>
      <trkpt lat="49.98132" lon="5.26856">
        <ele>390</ele>
        <time>2017-08-29T15:56:38Z</time>
      </trkpt>
      <trkpt lat="49.98132" lon="5.26856">
        <ele>390</ele>
        <time>2017-08-29T15:56:49Z</time>
      </trkpt>
      <trkpt lat="49.98131" lon="5.26855">
        <ele>390</ele>
        <time>2017-08-29T15:56:59Z</time>
      </trkpt>
      <trkpt lat="49.98126" lon="5.26857">
        <ele>390</ele>
        <time>2017-08-29T15:57:10Z</time>
      </trkpt>
      <trkpt lat="49.98124" lon="5.26858">
        <ele>390</ele>
        <time>2017-08-29T15:57:20Z</time>
      </trkpt>
      <trkpt lat="49.98129" lon="5.26856">
        <ele>390</ele>
        <time>2017-08-29T15:57:31Z</time>
      </trkpt>
      <trkpt lat="49.9813" lon="5.26854">
        <ele>390</ele>
        <time>2017-08-29T15:57:41Z</time>
      </trkpt>
      <trkpt lat="49.98131" lon="5.26853">
        <ele>390</ele>
        <time>2017-08-29T15:57:51Z</time>
      </trkpt>
      <trkpt lat="49.98133" lon="5.26852">
        <ele>390</ele>
        <time>2017-08-29T15:58:02Z</time>
      </trkpt>
      <trkpt lat="49.98135" lon="5.26851">
        <ele>390</ele>
        <time>2017-08-29T15:58:13Z</time>
      </trkpt>
      <trkpt lat="49.98137" lon="5.26849">
        <ele>390</ele>
        <time>2017-08-29T15:58:23Z</time>
      </trkpt>
      <trkpt lat="49.9814" lon="5.26847">
        <ele>391</ele>
        <time>2017-08-29T15:58:34Z</time>
      </trkpt>
      <trkpt lat="49.9814" lon="5.26848">
        <ele>390</ele>
        <time>2017-08-29T15:58:44Z</time>
      </trkpt>
      <trkpt lat="49.98138" lon="5.2685">
        <ele>390</ele>
        <time>2017-08-29T15:58:55Z</time>
      </trkpt>
      <trkpt lat="49.98137" lon="5.26849">
        <ele>390</ele>
        <time>2017-08-29T15:59:05Z</time>
      </trkpt>
      <trkpt lat="49.98137" lon="5.26852">
        <ele>390</ele>
        <time>2017-08-29T15:59:18Z</time>
      </trkpt>
      <trkpt lat="49.98136" lon="5.26851">
        <ele>391</ele>
        <time>2017-08-29T15:59:28Z</time>
      </trkpt>
      <trkpt lat="49.98135" lon="5.26851">
        <ele>390</ele>
        <time>2017-08-29T15:59:38Z</time>
      </trkpt>
      <trkpt lat="49.98135" lon="5.2685">
        <ele>391</ele>
        <time>2017-08-29T15:59:49Z</time>
      </trkpt>
      <trkpt lat="49.98136" lon="5.26851">
        <ele>390</ele>
        <time>2017-08-29T16:00:00Z</time>
      </trkpt>
      <trkpt lat="49.98135" lon="5.26852">
        <ele>391</ele>
        <time>2017-08-29T16:00:10Z</time>
      </trkpt>
      <trkpt lat="49.98135" lon="5.26852">
        <ele>390</ele>
        <time>2017-08-29T16:00:22Z</time>
      </trkpt>
      <trkpt lat="49.98137" lon="5.26851">
        <ele>391</ele>
        <time>2017-08-29T16:00:32Z</time>
      </trkpt>
      <trkpt lat="49.98138" lon="5.26851">
        <ele>391</ele>
        <time>2017-08-29T16:00:44Z</time>
      </trkpt>
      <trkpt lat="49.98137" lon="5.26853">
        <ele>390</ele>
        <time>2017-08-29T16:00:54Z</time>
      </trkpt>
      <trkpt lat="49.98136" lon="5.26855">
        <ele>391</ele>
        <time>2017-08-29T16:01:05Z</time>
      </trkpt>
      <trkpt lat="49.98137" lon="5.26855">
        <ele>390</ele>
        <time>2017-08-29T16:01:15Z</time>
      </trkpt>
      <trkpt lat="49.98137" lon="5.26856">
        <ele>390</ele>
        <time>2017-08-29T16:01:25Z</time>
      </trkpt>
      <trkpt lat="49.98137" lon="5.26856">
        <ele>390</ele>
        <time>2017-08-29T16:01:37Z</time>
      </trkpt>
      <trkpt lat="49.98137" lon="5.26856">
        <ele>390</ele>
        <time>2017-08-29T16:01:47Z</time>
      </trkpt>
      <trkpt lat="49.98136" lon="5.26855">
        <ele>390</ele>
        <time>2017-08-29T16:01:58Z</time>
      </trkpt>
      <trkpt lat="49.98136" lon="5.26856">
        <ele>390</ele>
        <time>2017-08-29T16:02:09Z</time>
      </trkpt>
      <trkpt lat="49.98136" lon="5.26854">
        <ele>390</ele>
        <time>2017-08-29T16:02:19Z</time>
      </trkpt>
      <trkpt lat="49.98135" lon="5.26853">
        <ele>390</ele>
        <time>2017-08-29T16:02:29Z</time>
      </trkpt>
      <trkpt lat="49.98134" lon="5.26854">
        <ele>390</ele>
        <time>2017-08-29T16:02:40Z</time>
      </trkpt>
      <trkpt lat="49.98134" lon="5.26853">
        <ele>390</ele>
        <time>2017-08-29T16:02:50Z</time>
      </trkpt>
      <trkpt lat="49.98132" lon="5.26855">
        <ele>390</ele>
        <time>2017-08-29T16:03:00Z</time>
      </trkpt>
      <trkpt lat="49.98133" lon="5.26855">
        <ele>390</ele>
        <time>2017-08-29T16:03:11Z</time>
      </trkpt>
      <trkpt lat="49.98132" lon="5.26855">
        <ele>390</ele>
        <time>2017-08-29T16:03:21Z</time>
      </trkpt>
      <trkpt lat="49.98132" lon="5.26853">
        <ele>391</ele>
        <time>2017-08-29T16:03:31Z</time>
      </trkpt>
      <trkpt lat="49.98135" lon="5.2685">
        <ele>390</ele>
        <time>2017-08-29T16:03:42Z</time>
      </trkpt>
      <trkpt lat="49.98135" lon="5.26849">
        <ele>390</ele>
        <time>2017-08-29T16:03:53Z</time>
      </trkpt>
      <trkpt lat="49.98135" lon="5.26851">
        <ele>390</ele>
        <time>2017-08-29T16:04:03Z</time>
      </trkpt>
      <trkpt lat="49.98135" lon="5.26853">
        <ele>390</ele>
        <time>2017-08-29T16:04:13Z</time>
      </trkpt>
      <trkpt lat="49.98134" lon="5.26856">
        <ele>391</ele>
        <time>2017-08-29T16:04:24Z</time>
      </trkpt>
      <trkpt lat="49.98135" lon="5.26857">
        <ele>390</ele>
        <time>2017-08-29T16:04:34Z</time>
      </trkpt>
      <trkpt lat="49.98134" lon="5.26857">
        <ele>390</ele>
        <time>2017-08-29T16:04:45Z</time>
      </trkpt>
      <trkpt lat="49.98135" lon="5.26857">
        <ele>390</ele>
        <time>2017-08-29T16:04:56Z</time>
      </trkpt>
      <trkpt lat="49.98135" lon="5.26857">
        <ele>390</ele>
        <time>2017-08-29T16:05:06Z</time>
      </trkpt>
      <trkpt lat="49.98135" lon="5.26858">
        <ele>390</ele>
        <time>2017-08-29T16:05:17Z</time>
      </trkpt>
      <trkpt lat="49.98135" lon="5.26858">
        <ele>390</ele>
        <time>2017-08-29T16:05:27Z</time>
      </trkpt>
      <trkpt lat="49.98136" lon="5.26856">
        <ele>390</ele>
        <time>2017-08-29T16:05:38Z</time>
      </trkpt>
      <trkpt lat="49.98134" lon="5.26858">
        <ele>390</ele>
        <time>2017-08-29T16:05:48Z</time>
      </trkpt>
      <trkpt lat="49.98133" lon="5.26858">
        <ele>390</ele>
        <time>2017-08-29T16:05:59Z</time>
      </trkpt>
      <trkpt lat="49.98132" lon="5.2686">
        <ele>391</ele>
        <time>2017-08-29T16:06:09Z</time>
      </trkpt>
      <trkpt lat="49.98132" lon="5.26859">
        <ele>389</ele>
        <time>2017-08-29T16:06:20Z</time>
      </trkpt>
      <trkpt lat="49.98131" lon="5.26859">
        <ele>390</ele>
        <time>2017-08-29T16:06:30Z</time>
      </trkpt>
      <trkpt lat="49.98131" lon="5.26858">
        <ele>390</ele>
        <time>2017-08-29T16:06:40Z</time>
      </trkpt>
      <trkpt lat="49.98132" lon="5.26858">
        <ele>390</ele>
        <time>2017-08-29T16:06:51Z</time>
      </trkpt>
      <trkpt lat="49.9813" lon="5.26857">
        <ele>390</ele>
        <time>2017-08-29T16:07:01Z</time>
      </trkpt>
      <trkpt lat="49.98127" lon="5.26857">
        <ele>390</ele>
        <time>2017-08-29T16:07:11Z</time>
      </trkpt>
      <trkpt lat="49.98128" lon="5.26857">
        <ele>390</ele>
        <time>2017-08-29T16:07:21Z</time>
      </trkpt>
      <trkpt lat="49.98129" lon="5.26856">
        <ele>390</ele>
        <time>2017-08-29T16:07:33Z</time>
      </trkpt>
      <trkpt lat="49.98128" lon="5.26855">
        <ele>390</ele>
        <time>2017-08-29T16:07:44Z</time>
      </trkpt>
      <trkpt lat="49.98127" lon="5.26854">
        <ele>390</ele>
        <time>2017-08-29T16:07:54Z</time>
      </trkpt>
      <trkpt lat="49.98127" lon="5.26851">
        <ele>390</ele>
        <time>2017-08-29T16:08:04Z</time>
      </trkpt>
      <trkpt lat="49.98126" lon="5.26852">
        <ele>390</ele>
        <time>2017-08-29T16:08:14Z</time>
      </trkpt>
      <trkpt lat="49.98126" lon="5.26851">
        <ele>390</ele>
        <time>2017-08-29T16:08:25Z</time>
      </trkpt>
      <trkpt lat="49.98127" lon="5.26851">
        <ele>390</ele>
        <time>2017-08-29T16:08:36Z</time>
      </trkpt>
      <trkpt lat="49.98127" lon="5.26853">
        <ele>390</ele>
        <time>2017-08-29T16:08:46Z</time>
      </trkpt>
      <trkpt lat="49.98126" lon="5.26851">
        <ele>389</ele>
        <time>2017-08-29T16:08:56Z</time>
      </trkpt>
      <trkpt lat="49.98128" lon="5.26856">
        <ele>390</ele>
        <time>2017-08-29T16:09:07Z</time>
      </trkpt>
      <trkpt lat="49.98127" lon="5.26855">
        <ele>390</ele>
        <time>2017-08-29T16:09:18Z</time>
      </trkpt>
      <trkpt lat="49.98126" lon="5.26857">
        <ele>390</ele>
        <time>2017-08-29T16:09:28Z</time>
      </trkpt>
      <trkpt lat="49.98129" lon="5.26855">
        <ele>390</ele>
        <time>2017-08-29T16:09:39Z</time>
      </trkpt>
      <trkpt lat="49.98129" lon="5.26857">
        <ele>391</ele>
        <time>2017-08-29T16:09:50Z</time>
      </trkpt>
      <trkpt lat="49.9813" lon="5.26858">
        <ele>391</ele>
        <time>2017-08-29T16:10:00Z</time>
      </trkpt>
      <trkpt lat="49.9813" lon="5.26857">
        <ele>390</ele>
        <time>2017-08-29T16:10:10Z</time>
      </trkpt>
      <trkpt lat="49.98133" lon="5.26854">
        <ele>390</ele>
        <time>2017-08-29T16:10:21Z</time>
      </trkpt>
      <trkpt lat="49.98133" lon="5.26852">
        <ele>390</ele>
        <time>2017-08-29T16:10:33Z</time>
      </trkpt>
      <trkpt lat="49.98134" lon="5.26851">
        <ele>390</ele>
        <time>2017-08-29T16:10:43Z</time>
      </trkpt>
      <trkpt lat="49.98135" lon="5.26849">
        <ele>390</ele>
        <time>2017-08-29T16:10:53Z</time>
      </trkpt>
      <trkpt lat="49.98133" lon="5.26848">
        <ele>390</ele>
        <time>2017-08-29T16:11:05Z</time>
      </trkpt>
      <trkpt lat="49.98133" lon="5.26849">
        <ele>390</ele>
        <time>2017-08-29T16:11:16Z</time>
      </trkpt>
      <trkpt lat="49.98132" lon="5.2685">
        <ele>391</ele>
        <time>2017-08-29T16:11:26Z</time>
      </trkpt>
      <trkpt lat="49.98132" lon="5.2685">
        <ele>390</ele>
        <time>2017-08-29T16:11:36Z</time>
      </trkpt>
      <trkpt lat="49.98131" lon="5.26851">
        <ele>390</ele>
        <time>2017-08-29T16:11:47Z</time>
      </trkpt>
      <trkpt lat="49.9813" lon="5.26852">
        <ele>390</ele>
        <time>2017-08-29T16:11:58Z</time>
      </trkpt>
      <trkpt lat="49.98131" lon="5.26853">
        <ele>390</ele>
        <time>2017-08-29T16:12:08Z</time>
      </trkpt>
      <trkpt lat="49.98131" lon="5.26853">
        <ele>390</ele>
        <time>2017-08-29T16:12:19Z</time>
      </trkpt>
      <trkpt lat="49.98132" lon="5.26851">
        <ele>391</ele>
        <time>2017-08-29T16:12:30Z</time>
      </trkpt>
      <trkpt lat="49.98132" lon="5.26852">
        <ele>390</ele>
        <time>2017-08-29T16:12:40Z</time>
      </trkpt>
      <trkpt lat="49.98132" lon="5.26853">
        <ele>390</ele>
        <time>2017-08-29T16:12:51Z</time>
      </trkpt>
      <trkpt lat="49.98132" lon="5.26851">
        <ele>391</ele>
        <time>2017-08-29T16:13:01Z</time>
      </trkpt>
      <trkpt lat="49.98132" lon="5.26849">
        <ele>391</ele>
        <time>2017-08-29T16:13:12Z</time>
      </trkpt>
      <trkpt lat="49.9813" lon="5.26847">
        <ele>390</ele>
        <time>2017-08-29T16:13:22Z</time>
      </trkpt>
      <trkpt lat="49.9813" lon="5.26844">
        <ele>390</ele>
        <time>2017-08-29T16:13:33Z</time>
      </trkpt>
      <trkpt lat="49.98131" lon="5.26845">
        <ele>391</ele>
        <time>2017-08-29T16:13:44Z</time>
      </trkpt>
      <trkpt lat="49.98131" lon="5.26847">
        <ele>390</ele>
        <time>2017-08-29T16:13:55Z</time>
      </trkpt>
      <trkpt lat="49.98133" lon="5.26847">
        <ele>390</ele>
        <time>2017-08-29T16:14:05Z</time>
      </trkpt>
      <trkpt lat="49.98133" lon="5.26851">
        <ele>391</ele>
        <time>2017-08-29T16:14:16Z</time>
      </trkpt>
      <trkpt lat="49.98133" lon="5.26853">
        <ele>390</ele>
        <time>2017-08-29T16:14:27Z</time>
      </trkpt>
      <trkpt lat="49.98132" lon="5.26853">
        <ele>390</ele>
        <time>2017-08-29T16:14:37Z</time>
      </trkpt>
      <trkpt lat="49.98134" lon="5.26849">
        <ele>390</ele>
        <time>2017-08-29T16:14:48Z</time>
      </trkpt>
      <trkpt lat="49.98134" lon="5.26849">
        <ele>390</ele>
        <time>2017-08-29T16:14:58Z</time>
      </trkpt>
      <trkpt lat="49.98133" lon="5.26851">
        <ele>391</ele>
        <time>2017-08-29T16:15:09Z</time>
      </trkpt>
      <trkpt lat="49.98133" lon="5.26853">
        <ele>391</ele>
        <time>2017-08-29T16:15:19Z</time>
      </trkpt>
      <trkpt lat="49.98134" lon="5.26853">
        <ele>390</ele>
        <time>2017-08-29T16:15:29Z</time>
      </trkpt>
      <trkpt lat="49.98134" lon="5.26855">
        <ele>390</ele>
        <time>2017-08-29T16:15:40Z</time>
      </trkpt>
      <trkpt lat="49.98135" lon="5.26857">
        <ele>390</ele>
        <time>2017-08-29T16:15:51Z</time>
      </trkpt>
      <trkpt lat="49.98136" lon="5.26857">
        <ele>391</ele>
        <time>2017-08-29T16:16:01Z</time>
      </trkpt>
      <trkpt lat="49.98135" lon="5.26858">
        <ele>390</ele>
        <time>2017-08-29T16:16:12Z</time>
      </trkpt>
      <trkpt lat="49.98133" lon="5.26856">
        <ele>390</ele>
        <time>2017-08-29T16:16:22Z</time>
      </trkpt>
      <trkpt lat="49.98133" lon="5.26855">
        <ele>391</ele>
        <time>2017-08-29T16:16:32Z</time>
      </trkpt>
      <trkpt lat="49.98134" lon="5.26854">
        <ele>391</ele>
        <time>2017-08-29T16:16:43Z</time>
      </trkpt>
      <trkpt lat="49.98135" lon="5.26855">
        <ele>391</ele>
        <time>2017-08-29T16:16:53Z</time>
      </trkpt>
      <trkpt lat="49.98136" lon="5.26856">
        <ele>390</ele>
        <time>2017-08-29T16:17:04Z</time>
      </trkpt>
      <trkpt lat="49.98136" lon="5.26856">
        <ele>390</ele>
        <time>2017-08-29T16:17:16Z</time>
      </trkpt>
      <trkpt lat="49.98136" lon="5.26856">
        <ele>390</ele>
        <time>2017-08-29T16:17:27Z</time>
      </trkpt>
      <trkpt lat="49.98135" lon="5.26857">
        <ele>390</ele>
        <time>2017-08-29T16:17:38Z</time>
      </trkpt>
      <trkpt lat="49.98136" lon="5.26855">
        <ele>391</ele>
        <time>2017-08-29T16:17:48Z</time>
      </trkpt>
      <trkpt lat="49.98135" lon="5.26856">
        <ele>390</ele>
        <time>2017-08-29T16:17:59Z</time>
      </trkpt>
      <trkpt lat="49.98132" lon="5.26853">
        <ele>390</ele>
        <time>2017-08-29T16:18:09Z</time>
      </trkpt>
      <trkpt lat="49.9813" lon="5.26852">
        <ele>391</ele>
        <time>2017-08-29T16:18:20Z</time>
      </trkpt>
      <trkpt lat="49.9813" lon="5.26853">
        <ele>391</ele>
        <time>2017-08-29T16:18:31Z</time>
      </trkpt>
      <trkpt lat="49.98129" lon="5.26854">
        <ele>390</ele>
        <time>2017-08-29T16:18:42Z</time>
      </trkpt>
      <trkpt lat="49.9813" lon="5.26854">
        <ele>390</ele>
        <time>2017-08-29T16:18:53Z</time>
      </trkpt>
      <trkpt lat="49.98132" lon="5.26857">
        <ele>390</ele>
        <time>2017-08-29T16:19:03Z</time>
      </trkpt>
      <trkpt lat="49.98131" lon="5.26856">
        <ele>391</ele>
        <time>2017-08-29T16:19:14Z</time>
      </trkpt>
      <trkpt lat="49.98133" lon="5.26859">
        <ele>390</ele>
        <time>2017-08-29T16:19:25Z</time>
      </trkpt>
      <trkpt lat="49.98133" lon="5.26858">
        <ele>390</ele>
        <time>2017-08-29T16:19:35Z</time>
      </trkpt>
      <trkpt lat="49.98132" lon="5.26856">
        <ele>391</ele>
        <time>2017-08-29T16:19:45Z</time>
      </trkpt>
      <trkpt lat="49.98128" lon="5.26862">
        <ele>390</ele>
        <time>2017-08-29T16:19:56Z</time>
      </trkpt>
      <trkpt lat="49.98127" lon="5.26866">
        <ele>390</ele>
        <time>2017-08-29T16:20:06Z</time>
      </trkpt>
      <trkpt lat="49.98127" lon="5.26866">
        <ele>390</ele>
        <time>2017-08-29T16:20:17Z</time>
      </trkpt>
      <trkpt lat="49.98122" lon="5.26867">
        <ele>390</ele>
        <time>2017-08-29T16:20:28Z</time>
      </trkpt>
      <trkpt lat="49.9812" lon="5.26867">
        <ele>390</ele>
        <time>2017-08-29T16:20:38Z</time>
      </trkpt>
      <trkpt lat="49.98124" lon="5.26866">
        <ele>391</ele>
        <time>2017-08-29T16:20:49Z</time>
      </trkpt>
      <trkpt lat="49.98124" lon="5.26863">
        <ele>391</ele>
        <time>2017-08-29T16:20:59Z</time>
      </trkpt>
      <trkpt lat="49.98124" lon="5.26864">
        <ele>391</ele>
        <time>2017-08-29T16:21:10Z</time>
      </trkpt>
      <trkpt lat="49.98125" lon="5.26864">
        <ele>391</ele>
        <time>2017-08-29T16:21:20Z</time>
      </trkpt>
      <trkpt lat="49.98127" lon="5.26862">
        <ele>390</ele>
        <time>2017-08-29T16:21:31Z</time>
      </trkpt>
      <trkpt lat="49.98129" lon="5.26857">
        <ele>391</ele>
        <time>2017-08-29T16:21:41Z</time>
      </trkpt>
      <trkpt lat="49.9813" lon="5.26855">
        <ele>391</ele>
        <time>2017-08-29T16:21:51Z</time>
      </trkpt>
      <trkpt lat="49.98132" lon="5.26856">
        <ele>391</ele>
        <time>2017-08-29T16:22:01Z</time>
      </trkpt>
      <trkpt lat="49.98132" lon="5.26857">
        <ele>391</ele>
        <time>2017-08-29T16:22:12Z</time>
      </trkpt>
      <trkpt lat="49.98132" lon="5.26858">
        <ele>391</ele>
        <time>2017-08-29T16:22:23Z</time>
      </trkpt>
      <trkpt lat="49.98134" lon="5.26857">
        <ele>390</ele>
        <time>2017-08-29T16:22:33Z</time>
      </trkpt>
      <trkpt lat="49.98133" lon="5.26856">
        <ele>390</ele>
        <time>2017-08-29T16:22:43Z</time>
      </trkpt>
      <trkpt lat="49.98136" lon="5.26857">
        <ele>391</ele>
        <time>2017-08-29T16:22:53Z</time>
      </trkpt>
      <trkpt lat="49.98135" lon="5.2686">
        <ele>391</ele>
        <time>2017-08-29T16:23:04Z</time>
      </trkpt>
      <trkpt lat="49.98136" lon="5.26858">
        <ele>391</ele>
        <time>2017-08-29T16:23:15Z</time>
      </trkpt>
      <trkpt lat="49.98138" lon="5.2686">
        <ele>391</ele>
        <time>2017-08-29T16:23:26Z</time>
      </trkpt>
      <trkpt lat="49.98139" lon="5.26861">
        <ele>391</ele>
        <time>2017-08-29T16:23:36Z</time>
      </trkpt>
      <trkpt lat="49.98141" lon="5.26863">
        <ele>391</ele>
        <time>2017-08-29T16:23:47Z</time>
      </trkpt>
      <trkpt lat="49.98141" lon="5.26861">
        <ele>392</ele>
        <time>2017-08-29T16:23:57Z</time>
      </trkpt>
      <trkpt lat="49.9814" lon="5.26858">
        <ele>391</ele>
        <time>2017-08-29T16:24:08Z</time>
      </trkpt>
      <trkpt lat="49.9814" lon="5.2686">
        <ele>391</ele>
        <time>2017-08-29T16:24:18Z</time>
      </trkpt>
      <trkpt lat="49.98138" lon="5.26857">
        <ele>391</ele>
        <time>2017-08-29T16:24:29Z</time>
      </trkpt>
      <trkpt lat="49.98138" lon="5.26856">
        <ele>391</ele>
        <time>2017-08-29T16:24:39Z</time>
      </trkpt>
      <trkpt lat="49.98137" lon="5.26856">
        <ele>391</ele>
        <time>2017-08-29T16:24:49Z</time>
      </trkpt>
      <trkpt lat="49.98137" lon="5.26855">
        <ele>390</ele>
        <time>2017-08-29T16:24:59Z</time>
      </trkpt>
      <trkpt lat="49.98137" lon="5.26853">
        <ele>391</ele>
        <time>2017-08-29T16:25:09Z</time>
      </trkpt>
      <trkpt lat="49.98135" lon="5.26853">
        <ele>391</ele>
        <time>2017-08-29T16:25:20Z</time>
      </trkpt>
      <trkpt lat="49.98134" lon="5.26854">
        <ele>391</ele>
        <time>2017-08-29T16:25:30Z</time>
      </trkpt>
      <trkpt lat="49.98134" lon="5.26855">
        <ele>391</ele>
        <time>2017-08-29T16:25:41Z</time>
      </trkpt>
      <trkpt lat="49.98133" lon="5.26856">
        <ele>391</ele>
        <time>2017-08-29T16:25:52Z</time>
      </trkpt>
      <trkpt lat="49.98135" lon="5.26855">
        <ele>391</ele>
        <time>2017-08-29T16:26:02Z</time>
      </trkpt>
      <trkpt lat="49.98135" lon="5.2685">
        <ele>391</ele>
        <time>2017-08-29T16:26:13Z</time>
      </trkpt>
      <trkpt lat="49.98133" lon="5.2685">
        <ele>390</ele>
        <time>2017-08-29T16:26:24Z</time>
      </trkpt>
      <trkpt lat="49.98133" lon="5.26855">
        <ele>391</ele>
        <time>2017-08-29T16:26:34Z</time>
      </trkpt>
      <trkpt lat="49.98132" lon="5.26859">
        <ele>391</ele>
        <time>2017-08-29T16:26:44Z</time>
      </trkpt>
      <trkpt lat="49.98131" lon="5.26859">
        <ele>390</ele>
        <time>2017-08-29T16:26:55Z</time>
      </trkpt>
      <trkpt lat="49.98133" lon="5.26859">
        <ele>391</ele>
        <time>2017-08-29T16:27:05Z</time>
      </trkpt>
      <trkpt lat="49.98132" lon="5.2686">
        <ele>391</ele>
        <time>2017-08-29T16:27:16Z</time>
      </trkpt>
      <trkpt lat="49.9813" lon="5.26861">
        <ele>390</ele>
        <time>2017-08-29T16:27:26Z</time>
      </trkpt>
      <trkpt lat="49.98127" lon="5.26864">
        <ele>390</ele>
        <time>2017-08-29T16:27:36Z</time>
      </trkpt>
      <trkpt lat="49.98129" lon="5.2686">
        <ele>390</ele>
        <time>2017-08-29T16:27:46Z</time>
      </trkpt>
      <trkpt lat="49.9813" lon="5.26865">
        <ele>391</ele>
        <time>2017-08-29T16:27:57Z</time>
      </trkpt>
      <trkpt lat="49.98127" lon="5.26875">
        <ele>391</ele>
        <time>2017-08-29T16:28:08Z</time>
      </trkpt>
      <trkpt lat="49.98127" lon="5.26868">
        <ele>391</ele>
        <time>2017-08-29T16:28:19Z</time>
      </trkpt>
      <trkpt lat="49.98128" lon="5.26866">
        <ele>390</ele>
        <time>2017-08-29T16:28:29Z</time>
      </trkpt>
      <trkpt lat="49.98129" lon="5.26864">
        <ele>391</ele>
        <time>2017-08-29T16:28:39Z</time>
      </trkpt>
      <trkpt lat="49.98126" lon="5.26859">
        <ele>392</ele>
        <time>2017-08-29T16:28:50Z</time>
      </trkpt>
      <trkpt lat="49.98125" lon="5.2686">
        <ele>391</ele>
        <time>2017-08-29T16:29:01Z</time>
      </trkpt>
      <trkpt lat="49.98126" lon="5.26861">
        <ele>391</ele>
        <time>2017-08-29T16:29:11Z</time>
      </trkpt>
      <trkpt lat="49.98128" lon="5.2686">
        <ele>391</ele>
        <time>2017-08-29T16:29:21Z</time>
      </trkpt>
      <trkpt lat="49.9813" lon="5.26859">
        <ele>391</ele>
        <time>2017-08-29T16:29:31Z</time>
      </trkpt>
      <trkpt lat="49.98132" lon="5.2686">
        <ele>391</ele>
        <time>2017-08-29T16:29:42Z</time>
      </trkpt>
      <trkpt lat="49.98132" lon="5.26858">
        <ele>390</ele>
        <time>2017-08-29T16:29:52Z</time>
      </trkpt>
      <trkpt lat="49.98134" lon="5.26856">
        <ele>391</ele>
        <time>2017-08-29T16:30:03Z</time>
      </trkpt>
      <trkpt lat="49.98133" lon="5.26856">
        <ele>391</ele>
        <time>2017-08-29T16:30:13Z</time>
      </trkpt>
      <trkpt lat="49.98133" lon="5.26855">
        <ele>391</ele>
        <time>2017-08-29T16:30:23Z</time>
      </trkpt>
      <trkpt lat="49.98133" lon="5.26859">
        <ele>391</ele>
        <time>2017-08-29T16:30:34Z</time>
      </trkpt>
      <trkpt lat="49.98133" lon="5.2686">
        <ele>391</ele>
        <time>2017-08-29T16:30:44Z</time>
      </trkpt>
      <trkpt lat="49.98133" lon="5.26858">
        <ele>391</ele>
        <time>2017-08-29T16:30:55Z</time>
      </trkpt>
      <trkpt lat="49.98133" lon="5.26856">
        <ele>391</ele>
        <time>2017-08-29T16:31:06Z</time>
      </trkpt>
      <trkpt lat="49.98135" lon="5.26853">
        <ele>391</ele>
        <time>2017-08-29T16:31:16Z</time>
      </trkpt>
      <trkpt lat="49.98136" lon="5.26849">
        <ele>391</ele>
        <time>2017-08-29T16:31:26Z</time>
      </trkpt>
      <trkpt lat="49.98136" lon="5.26848">
        <ele>391</ele>
        <time>2017-08-29T16:31:37Z</time>
      </trkpt>
      <trkpt lat="49.98135" lon="5.26852">
        <ele>390</ele>
        <time>2017-08-29T16:31:47Z</time>
      </trkpt>
      <trkpt lat="49.98132" lon="5.26853">
        <ele>391</ele>
        <time>2017-08-29T16:31:57Z</time>
      </trkpt>
      <trkpt lat="49.98128" lon="5.26851">
        <ele>391</ele>
        <time>2017-08-29T16:32:08Z</time>
      </trkpt>
      <trkpt lat="49.98128" lon="5.26854">
        <ele>391</ele>
        <time>2017-08-29T16:32:19Z</time>
      </trkpt>
      <trkpt lat="49.98128" lon="5.26856">
        <ele>391</ele>
        <time>2017-08-29T16:32:29Z</time>
      </trkpt>
      <trkpt lat="49.98129" lon="5.26857">
        <ele>390</ele>
        <time>2017-08-29T16:32:39Z</time>
      </trkpt>
      <trkpt lat="49.9813" lon="5.26857">
        <ele>391</ele>
        <time>2017-08-29T16:32:50Z</time>
      </trkpt>
      <trkpt lat="49.9813" lon="5.26856">
        <ele>390</ele>
        <time>2017-08-29T16:33:01Z</time>
      </trkpt>
      <trkpt lat="49.9813" lon="5.26855">
        <ele>391</ele>
        <time>2017-08-29T16:33:12Z</time>
      </trkpt>
      <trkpt lat="49.9813" lon="5.26858">
        <ele>391</ele>
        <time>2017-08-29T16:33:23Z</time>
      </trkpt>
      <trkpt lat="49.98131" lon="5.26857">
        <ele>391</ele>
        <time>2017-08-29T16:33:33Z</time>
      </trkpt>
      <trkpt lat="49.98132" lon="5.26857">
        <ele>390</ele>
        <time>2017-08-29T16:33:43Z</time>
      </trkpt>
      <trkpt lat="49.98132" lon="5.26858">
        <ele>391</ele>
        <time>2017-08-29T16:33:54Z</time>
      </trkpt>
      <trkpt lat="49.98132" lon="5.26858">
        <ele>391</ele>
        <time>2017-08-29T16:34:04Z</time>
      </trkpt>
      <trkpt lat="49.98132" lon="5.26855">
        <ele>390</ele>
        <time>2017-08-29T16:34:15Z</time>
      </trkpt>
      <trkpt lat="49.98132" lon="5.26855">
        <ele>391</ele>
        <time>2017-08-29T16:34:25Z</time>
      </trkpt>
      <trkpt lat="49.98133" lon="5.26856">
        <ele>391</ele>
        <time>2017-08-29T16:34:36Z</time>
      </trkpt>
      <trkpt lat="49.98131" lon="5.26857">
        <ele>390</ele>
        <time>2017-08-29T16:34:46Z</time>
      </trkpt>
      <trkpt lat="49.98131" lon="5.26861">
        <ele>390</ele>
        <time>2017-08-29T16:34:57Z</time>
      </trkpt>
      <trkpt lat="49.98129" lon="5.26862">
        <ele>390</ele>
        <time>2017-08-29T16:35:08Z</time>
      </trkpt>
      <trkpt lat="49.98129" lon="5.26866">
        <ele>391</ele>
        <time>2017-08-29T16:35:18Z</time>
      </trkpt>
      <trkpt lat="49.9813" lon="5.2687">
        <ele>391</ele>
        <time>2017-08-29T16:35:29Z</time>
      </trkpt>
      <trkpt lat="49.98131" lon="5.26868">
        <ele>390</ele>
        <time>2017-08-29T16:35:40Z</time>
      </trkpt>
      <trkpt lat="49.98129" lon="5.26868">
        <ele>390</ele>
        <time>2017-08-29T16:35:50Z</time>
      </trkpt>
      <trkpt lat="49.98128" lon="5.2687">
        <ele>390</ele>
        <time>2017-08-29T16:36:00Z</time>
      </trkpt>
      <trkpt lat="49.98128" lon="5.26868">
        <ele>390</ele>
        <time>2017-08-29T16:36:10Z</time>
      </trkpt>
      <trkpt lat="49.98127" lon="5.26865">
        <ele>390</ele>
        <time>2017-08-29T16:36:21Z</time>
      </trkpt>
      <trkpt lat="49.98125" lon="5.26862">
        <ele>390</ele>
        <time>2017-08-29T16:36:31Z</time>
      </trkpt>
      <trkpt lat="49.98125" lon="5.26859">
        <ele>390</ele>
        <time>2017-08-29T16:36:41Z</time>
      </trkpt>
      <trkpt lat="49.98125" lon="5.26858">
        <ele>390</ele>
        <time>2017-08-29T16:36:52Z</time>
      </trkpt>
      <trkpt lat="49.98124" lon="5.26858">
        <ele>390</ele>
        <time>2017-08-29T16:37:03Z</time>
      </trkpt>
      <trkpt lat="49.98124" lon="5.26859">
        <ele>391</ele>
        <time>2017-08-29T16:37:13Z</time>
      </trkpt>
      <trkpt lat="49.98122" lon="5.26857">
        <ele>390</ele>
        <time>2017-08-29T16:37:24Z</time>
      </trkpt>
      <trkpt lat="49.98123" lon="5.26855">
        <ele>390</ele>
        <time>2017-08-29T16:37:34Z</time>
      </trkpt>
      <trkpt lat="49.98123" lon="5.26854">
        <ele>390</ele>
        <time>2017-08-29T16:37:45Z</time>
      </trkpt>
      <trkpt lat="49.98123" lon="5.26854">
        <ele>390</ele>
        <time>2017-08-29T16:37:56Z</time>
      </trkpt>
      <trkpt lat="49.98119" lon="5.26856">
        <ele>391</ele>
        <time>2017-08-29T16:38:07Z</time>
      </trkpt>
      <trkpt lat="49.98119" lon="5.26859">
        <ele>390</ele>
        <time>2017-08-29T16:38:18Z</time>
      </trkpt>
      <trkpt lat="49.98123" lon="5.26855">
        <ele>390</ele>
        <time>2017-08-29T16:38:28Z</time>
      </trkpt>
      <trkpt lat="49.98126" lon="5.26851">
        <ele>390</ele>
        <time>2017-08-29T16:38:39Z</time>
      </trkpt>
      <trkpt lat="49.98127" lon="5.26848">
        <ele>390</ele>
        <time>2017-08-29T16:38:50Z</time>
      </trkpt>
      <trkpt lat="49.98127" lon="5.2685">
        <ele>391</ele>
        <time>2017-08-29T16:39:00Z</time>
      </trkpt>
      <trkpt lat="49.98129" lon="5.26851">
        <ele>391</ele>
        <time>2017-08-29T16:39:11Z</time>
      </trkpt>
      <trkpt lat="49.98132" lon="5.2685">
        <ele>390</ele>
        <time>2017-08-29T16:39:21Z</time>
      </trkpt>
      <trkpt lat="49.98132" lon="5.26851">
        <ele>390</ele>
        <time>2017-08-29T16:39:32Z</time>
      </trkpt>
      <trkpt lat="49.9813" lon="5.26853">
        <ele>391</ele>
        <time>2017-08-29T16:39:43Z</time>
      </trkpt>
      <trkpt lat="49.98129" lon="5.26855">
        <ele>390</ele>
        <time>2017-08-29T16:39:54Z</time>
      </trkpt>
      <trkpt lat="49.98131" lon="5.26855">
        <ele>390</ele>
        <time>2017-08-29T16:40:04Z</time>
      </trkpt>
      <trkpt lat="49.98131" lon="5.26854">
        <ele>390</ele>
        <time>2017-08-29T16:40:15Z</time>
      </trkpt>
      <trkpt lat="49.98126" lon="5.26857">
        <ele>390</ele>
        <time>2017-08-29T16:40:25Z</time>
      </trkpt>
      <trkpt lat="49.98126" lon="5.26856">
        <ele>390</ele>
        <time>2017-08-29T16:40:35Z</time>
      </trkpt>
      <trkpt lat="49.98125" lon="5.26855">
        <ele>391</ele>
        <time>2017-08-29T16:40:46Z</time>
      </trkpt>
      <trkpt lat="49.98127" lon="5.26852">
        <ele>391</ele>
        <time>2017-08-29T16:40:56Z</time>
      </trkpt>
      <trkpt lat="49.98127" lon="5.26852">
        <ele>390</ele>
        <time>2017-08-29T16:41:07Z</time>
      </trkpt>
      <trkpt lat="49.98127" lon="5.2685">
        <ele>390</ele>
        <time>2017-08-29T16:41:17Z</time>
      </trkpt>
      <trkpt lat="49.98127" lon="5.2685">
        <ele>390</ele>
        <time>2017-08-29T16:41:27Z</time>
      </trkpt>
      <trkpt lat="49.98125" lon="5.26853">
        <ele>390</ele>
        <time>2017-08-29T16:41:38Z</time>
      </trkpt>
      <trkpt lat="49.98123" lon="5.26855">
        <ele>390</ele>
        <time>2017-08-29T16:41:49Z</time>
      </trkpt>
      <trkpt lat="49.98125" lon="5.26856">
        <ele>391</ele>
        <time>2017-08-29T16:41:59Z</time>
      </trkpt>
      <trkpt lat="49.98125" lon="5.26852">
        <ele>391</ele>
        <time>2017-08-29T16:42:09Z</time>
      </trkpt>
      <trkpt lat="49.98123" lon="5.26852">
        <ele>390</ele>
        <time>2017-08-29T16:42:20Z</time>
      </trkpt>
      <trkpt lat="49.98125" lon="5.2685">
        <ele>390</ele>
        <time>2017-08-29T16:42:31Z</time>
      </trkpt>
      <trkpt lat="49.98126" lon="5.26848">
        <ele>390</ele>
        <time>2017-08-29T16:42:41Z</time>
      </trkpt>
      <trkpt lat="49.98123" lon="5.26847">
        <ele>390</ele>
        <time>2017-08-29T16:42:52Z</time>
      </trkpt>
      <trkpt lat="49.98124" lon="5.26848">
        <ele>391</ele>
        <time>2017-08-29T16:43:03Z</time>
      </trkpt>
      <trkpt lat="49.98129" lon="5.2685">
        <ele>390</ele>
        <time>2017-08-29T16:43:14Z</time>
      </trkpt>
      <trkpt lat="49.98126" lon="5.26853">
        <ele>390</ele>
        <time>2017-08-29T16:43:24Z</time>
      </trkpt>
      <trkpt lat="49.98121" lon="5.26856">
        <ele>390</ele>
        <time>2017-08-29T16:43:35Z</time>
      </trkpt>
      <trkpt lat="49.98121" lon="5.26854">
        <ele>391</ele>
        <time>2017-08-29T16:43:45Z</time>
      </trkpt>
      <trkpt lat="49.98128" lon="5.26845">
        <ele>391</ele>
        <time>2017-08-29T16:43:55Z</time>
      </trkpt>
      <trkpt lat="49.9813" lon="5.26839">
        <ele>390</ele>
        <time>2017-08-29T16:44:06Z</time>
      </trkpt>
      <trkpt lat="49.98131" lon="5.26838">
        <ele>390</ele>
        <time>2017-08-29T16:44:16Z</time>
      </trkpt>
      <trkpt lat="49.9813" lon="5.26843">
        <ele>390</ele>
        <time>2017-08-29T16:44:27Z</time>
      </trkpt>
      <trkpt lat="49.9813" lon="5.26844">
        <ele>391</ele>
        <time>2017-08-29T16:44:37Z</time>
      </trkpt>
      <trkpt lat="49.98125" lon="5.26849">
        <ele>390</ele>
        <time>2017-08-29T16:44:48Z</time>
      </trkpt>
      <trkpt lat="49.98127" lon="5.26851">
        <ele>390</ele>
        <time>2017-08-29T16:44:58Z</time>
      </trkpt>
      <trkpt lat="49.9813" lon="5.26851">
        <ele>391</ele>
        <time>2017-08-29T16:45:09Z</time>
      </trkpt>
      <trkpt lat="49.98131" lon="5.26854">
        <ele>391</ele>
        <time>2017-08-29T16:45:20Z</time>
      </trkpt>
      <trkpt lat="49.9813" lon="5.26858">
        <ele>390</ele>
        <time>2017-08-29T16:45:31Z</time>
      </trkpt>
      <trkpt lat="49.98129" lon="5.26859">
        <ele>390</ele>
        <time>2017-08-29T16:45:41Z</time>
      </trkpt>
      <trkpt lat="49.9813" lon="5.26857">
        <ele>390</ele>
        <time>2017-08-29T16:45:53Z</time>
      </trkpt>
      <trkpt lat="49.9813" lon="5.26857">
        <ele>390</ele>
        <time>2017-08-29T16:46:04Z</time>
      </trkpt>
      <trkpt lat="49.9813" lon="5.26857">
        <ele>391</ele>
        <time>2017-08-29T16:46:14Z</time>
      </trkpt>
      <trkpt lat="49.9813" lon="5.26858">
        <ele>390</ele>
        <time>2017-08-29T16:46:25Z</time>
      </trkpt>
      <trkpt lat="49.9813" lon="5.26857">
        <ele>390</ele>
        <time>2017-08-29T16:46:36Z</time>
      </trkpt>
      <trkpt lat="49.98132" lon="5.2686">
        <ele>390</ele>
        <time>2017-08-29T16:46:47Z</time>
      </trkpt>
      <trkpt lat="49.98138" lon="5.26857">
        <ele>390</ele>
        <time>2017-08-29T16:46:57Z</time>
      </trkpt>
      <trkpt lat="49.98141" lon="5.26852">
        <ele>390</ele>
        <time>2017-08-29T16:47:07Z</time>
      </trkpt>
      <trkpt lat="49.98138" lon="5.26851">
        <ele>390</ele>
        <time>2017-08-29T16:47:18Z</time>
      </trkpt>
      <trkpt lat="49.98134" lon="5.2685">
        <ele>390</ele>
        <time>2017-08-29T16:47:29Z</time>
      </trkpt>
      <trkpt lat="49.98137" lon="5.2685">
        <ele>390</ele>
        <time>2017-08-29T16:47:39Z</time>
      </trkpt>
      <trkpt lat="49.98138" lon="5.26852">
        <ele>391</ele>
        <time>2017-08-29T16:47:50Z</time>
      </trkpt>
      <trkpt lat="49.98141" lon="5.2685">
        <ele>390</ele>
        <time>2017-08-29T16:48:01Z</time>
      </trkpt>
      <trkpt lat="49.9814" lon="5.26853">
        <ele>391</ele>
        <time>2017-08-29T16:48:12Z</time>
      </trkpt>
      <trkpt lat="49.98139" lon="5.26853">
        <ele>390</ele>
        <time>2017-08-29T16:48:22Z</time>
      </trkpt>
      <trkpt lat="49.98138" lon="5.26852">
        <ele>390</ele>
        <time>2017-08-29T16:48:33Z</time>
      </trkpt>
      <trkpt lat="49.98138" lon="5.26853">
        <ele>390</ele>
        <time>2017-08-29T16:48:45Z</time>
      </trkpt>
      <trkpt lat="49.98138" lon="5.26852">
        <ele>390</ele>
        <time>2017-08-29T16:48:56Z</time>
      </trkpt>
      <trkpt lat="49.98138" lon="5.26851">
        <ele>391</ele>
        <time>2017-08-29T16:49:06Z</time>
      </trkpt>
      <trkpt lat="49.98137" lon="5.26855">
        <ele>390</ele>
        <time>2017-08-29T16:49:16Z</time>
      </trkpt>
      <trkpt lat="49.9814" lon="5.26854">
        <ele>390</ele>
        <time>2017-08-29T16:49:27Z</time>
      </trkpt>
      <trkpt lat="49.9814" lon="5.26853">
        <ele>390</ele>
        <time>2017-08-29T16:49:38Z</time>
      </trkpt>
      <trkpt lat="49.98138" lon="5.26851">
        <ele>391</ele>
        <time>2017-08-29T16:49:48Z</time>
      </trkpt>
      <trkpt lat="49.9814" lon="5.2685">
        <ele>390</ele>
        <time>2017-08-29T16:49:58Z</time>
      </trkpt>
      <trkpt lat="49.98138" lon="5.26853">
        <ele>390</ele>
        <time>2017-08-29T16:50:08Z</time>
      </trkpt>
      <trkpt lat="49.98136" lon="5.26856">
        <ele>391</ele>
        <time>2017-08-29T16:50:19Z</time>
      </trkpt>
      <trkpt lat="49.98133" lon="5.26858">
        <ele>390</ele>
        <time>2017-08-29T16:50:30Z</time>
      </trkpt>
      <trkpt lat="49.9813" lon="5.26861">
        <ele>390</ele>
        <time>2017-08-29T16:50:40Z</time>
      </trkpt>
      <trkpt lat="49.98131" lon="5.26859">
        <ele>390</ele>
        <time>2017-08-29T16:50:51Z</time>
      </trkpt>
      <trkpt lat="49.98133" lon="5.26859">
        <ele>390</ele>
        <time>2017-08-29T16:51:02Z</time>
      </trkpt>
      <trkpt lat="49.98132" lon="5.26858">
        <ele>390</ele>
        <time>2017-08-29T16:51:12Z</time>
      </trkpt>
      <trkpt lat="49.98132" lon="5.26858">
        <ele>390</ele>
        <time>2017-08-29T16:51:23Z</time>
      </trkpt>
      <trkpt lat="49.98133" lon="5.26856">
        <ele>390</ele>
        <time>2017-08-29T16:51:34Z</time>
      </trkpt>
      <trkpt lat="49.98135" lon="5.26856">
        <ele>390</ele>
        <time>2017-08-29T16:51:44Z</time>
      </trkpt>
      <trkpt lat="49.98134" lon="5.26859">
        <ele>390</ele>
        <time>2017-08-29T16:51:55Z</time>
      </trkpt>
      <trkpt lat="49.98133" lon="5.26859">
        <ele>390</ele>
        <time>2017-08-29T16:52:05Z</time>
      </trkpt>
      <trkpt lat="49.98134" lon="5.26858">
        <ele>390</ele>
        <time>2017-08-29T16:52:16Z</time>
      </trkpt>
      <trkpt lat="49.98136" lon="5.2685">
        <ele>391</ele>
        <time>2017-08-29T16:52:26Z</time>
      </trkpt>
      <trkpt lat="49.98138" lon="5.26838">
        <ele>390</ele>
        <time>2017-08-29T16:52:37Z</time>
      </trkpt>
      <trkpt lat="49.98137" lon="5.26841">
        <ele>390</ele>
        <time>2017-08-29T16:52:47Z</time>
      </trkpt>
      <trkpt lat="49.98134" lon="5.26845">
        <ele>390</ele>
        <time>2017-08-29T16:52:58Z</time>
      </trkpt>
      <trkpt lat="49.9813" lon="5.26845">
        <ele>391</ele>
        <time>2017-08-29T16:53:08Z</time>
      </trkpt>
      <trkpt lat="49.98128" lon="5.26849">
        <ele>390</ele>
        <time>2017-08-29T16:53:19Z</time>
      </trkpt>
      <trkpt lat="49.98128" lon="5.26852">
        <ele>390</ele>
        <time>2017-08-29T16:53:29Z</time>
      </trkpt>
      <trkpt lat="49.98129" lon="5.26856">
        <ele>391</ele>
        <time>2017-08-29T16:53:39Z</time>
      </trkpt>
      <trkpt lat="49.9813" lon="5.26858">
        <ele>390</ele>
        <time>2017-08-29T16:53:49Z</time>
      </trkpt>
      <trkpt lat="49.98133" lon="5.26855">
        <ele>390</ele>
        <time>2017-08-29T16:54:00Z</time>
      </trkpt>
      <trkpt lat="49.98135" lon="5.26853">
        <ele>390</ele>
        <time>2017-08-29T16:54:10Z</time>
      </trkpt>
      <trkpt lat="49.98134" lon="5.26851">
        <ele>391</ele>
        <time>2017-08-29T16:54:20Z</time>
      </trkpt>
      <trkpt lat="49.98133" lon="5.26852">
        <ele>390</ele>
        <time>2017-08-29T16:54:30Z</time>
      </trkpt>
      <trkpt lat="49.98138" lon="5.26851">
        <ele>391</ele>
        <time>2017-08-29T16:54:41Z</time>
      </trkpt>
      <trkpt lat="49.98141" lon="5.2685">
        <ele>391</ele>
        <time>2017-08-29T16:54:51Z</time>
      </trkpt>
      <trkpt lat="49.98141" lon="5.26849">
        <ele>391</ele>
        <time>2017-08-29T16:55:02Z</time>
      </trkpt>
      <trkpt lat="49.98141" lon="5.26848">
        <ele>390</ele>
        <time>2017-08-29T16:55:13Z</time>
      </trkpt>
      <trkpt lat="49.98141" lon="5.2685">
        <ele>391</ele>
        <time>2017-08-29T16:55:23Z</time>
      </trkpt>
      <trkpt lat="49.9814" lon="5.26853">
        <ele>391</ele>
        <time>2017-08-29T16:55:34Z</time>
      </trkpt>
      <trkpt lat="49.98139" lon="5.26856">
        <ele>390</ele>
        <time>2017-08-29T16:55:44Z</time>
      </trkpt>
      <trkpt lat="49.98137" lon="5.26856">
        <ele>391</ele>
        <time>2017-08-29T16:55:54Z</time>
      </trkpt>
      <trkpt lat="49.98135" lon="5.26857">
        <ele>390</ele>
        <time>2017-08-29T16:56:04Z</time>
      </trkpt>
      <trkpt lat="49.98135" lon="5.26855">
        <ele>391</ele>
        <time>2017-08-29T16:56:14Z</time>
      </trkpt>
      <trkpt lat="49.98134" lon="5.26856">
        <ele>391</ele>
        <time>2017-08-29T16:56:25Z</time>
      </trkpt>
      <trkpt lat="49.98133" lon="5.26856">
        <ele>391</ele>
        <time>2017-08-29T16:56:36Z</time>
      </trkpt>
      <trkpt lat="49.98133" lon="5.26857">
        <ele>391</ele>
        <time>2017-08-29T16:56:47Z</time>
      </trkpt>
      <trkpt lat="49.98133" lon="5.26857">
        <ele>391</ele>
        <time>2017-08-29T16:56:57Z</time>
      </trkpt>
      <trkpt lat="49.98133" lon="5.26859">
        <ele>391</ele>
        <time>2017-08-29T16:57:07Z</time>
      </trkpt>
      <trkpt lat="49.98132" lon="5.26859">
        <ele>391</ele>
        <time>2017-08-29T16:57:18Z</time>
      </trkpt>
      <trkpt lat="49.98131" lon="5.26859">
        <ele>391</ele>
        <time>2017-08-29T16:57:28Z</time>
      </trkpt>
      <trkpt lat="49.9813" lon="5.26858">
        <ele>391</ele>
        <time>2017-08-29T16:57:38Z</time>
      </trkpt>
      <trkpt lat="49.9813" lon="5.2686">
        <ele>391</ele>
        <time>2017-08-29T16:57:48Z</time>
      </trkpt>
      <trkpt lat="49.9813" lon="5.2686">
        <ele>391</ele>
        <time>2017-08-29T16:57:58Z</time>
      </trkpt>
      <trkpt lat="49.98127" lon="5.26859">
        <ele>391</ele>
        <time>2017-08-29T16:58:10Z</time>
      </trkpt>
      <trkpt lat="49.98129" lon="5.26858">
        <ele>391</ele>
        <time>2017-08-29T16:58:20Z</time>
      </trkpt>
      <trkpt lat="49.98132" lon="5.26862">
        <ele>391</ele>
        <time>2017-08-29T16:58:31Z</time>
      </trkpt>
      <trkpt lat="49.98131" lon="5.2686">
        <ele>391</ele>
        <time>2017-08-29T16:58:41Z</time>
      </trkpt>
      <trkpt lat="49.98133" lon="5.26856">
        <ele>391</ele>
        <time>2017-08-29T16:58:51Z</time>
      </trkpt>
      <trkpt lat="49.98132" lon="5.26855">
        <ele>391</ele>
        <time>2017-08-29T16:59:02Z</time>
      </trkpt>
      <trkpt lat="49.9813" lon="5.26852">
        <ele>391</ele>
        <time>2017-08-29T16:59:13Z</time>
      </trkpt>
      <trkpt lat="49.98128" lon="5.26851">
        <ele>391</ele>
        <time>2017-08-29T16:59:23Z</time>
      </trkpt>
      <trkpt lat="49.98126" lon="5.2685">
        <ele>391</ele>
        <time>2017-08-29T16:59:33Z</time>
      </trkpt>
      <trkpt lat="49.98124" lon="5.26854">
        <ele>391</ele>
        <time>2017-08-29T16:59:44Z</time>
      </trkpt>
      <trkpt lat="49.98125" lon="5.26854">
        <ele>390</ele>
        <time>2017-08-29T16:59:55Z</time>
      </trkpt>
      <trkpt lat="49.98124" lon="5.26849">
        <ele>391</ele>
        <time>2017-08-29T17:00:06Z</time>
      </trkpt>
      <trkpt lat="49.98126" lon="5.26849">
        <ele>391</ele>
        <time>2017-08-29T17:00:16Z</time>
      </trkpt>
      <trkpt lat="49.98127" lon="5.2685">
        <ele>391</ele>
        <time>2017-08-29T17:00:27Z</time>
      </trkpt>
      <trkpt lat="49.98126" lon="5.2685">
        <ele>391</ele>
        <time>2017-08-29T17:00:37Z</time>
      </trkpt>
      <trkpt lat="49.98127" lon="5.2685">
        <ele>391</ele>
        <time>2017-08-29T17:00:47Z</time>
      </trkpt>
      <trkpt lat="49.9813" lon="5.26852">
        <ele>392</ele>
        <time>2017-08-29T17:00:57Z</time>
      </trkpt>
      <trkpt lat="49.98131" lon="5.26853">
        <ele>391</ele>
        <time>2017-08-29T17:01:07Z</time>
      </trkpt>
      <trkpt lat="49.9813" lon="5.26854">
        <ele>391</ele>
        <time>2017-08-29T17:01:18Z</time>
      </trkpt>
      <trkpt lat="49.98129" lon="5.26853">
        <ele>391</ele>
        <time>2017-08-29T17:01:28Z</time>
      </trkpt>
      <trkpt lat="49.98129" lon="5.26853">
        <ele>391</ele>
        <time>2017-08-29T17:01:39Z</time>
      </trkpt>
      <trkpt lat="49.98129" lon="5.26854">
        <ele>390</ele>
        <time>2017-08-29T17:01:49Z</time>
      </trkpt>
      <trkpt lat="49.9813" lon="5.26854">
        <ele>391</ele>
        <time>2017-08-29T17:02:00Z</time>
      </trkpt>
      <trkpt lat="49.98131" lon="5.26854">
        <ele>391</ele>
        <time>2017-08-29T17:02:10Z</time>
      </trkpt>
      <trkpt lat="49.98132" lon="5.26854">
        <ele>391</ele>
        <time>2017-08-29T17:02:21Z</time>
      </trkpt>
      <trkpt lat="49.9813" lon="5.26854">
        <ele>391</ele>
        <time>2017-08-29T17:02:32Z</time>
      </trkpt>
      <trkpt lat="49.98128" lon="5.2685">
        <ele>391</ele>
        <time>2017-08-29T17:02:42Z</time>
      </trkpt>
      <trkpt lat="49.98124" lon="5.26848">
        <ele>391</ele>
        <time>2017-08-29T17:02:52Z</time>
      </trkpt>
      <trkpt lat="49.98124" lon="5.26849">
        <ele>391</ele>
        <time>2017-08-29T17:03:03Z</time>
      </trkpt>
      <trkpt lat="49.98126" lon="5.2685">
        <ele>390</ele>
        <time>2017-08-29T17:03:13Z</time>
      </trkpt>
      <trkpt lat="49.98129" lon="5.26847">
        <ele>390</ele>
        <time>2017-08-29T17:03:24Z</time>
      </trkpt>
      <trkpt lat="49.9813" lon="5.26847">
        <ele>391</ele>
        <time>2017-08-29T17:03:35Z</time>
      </trkpt>
      <trkpt lat="49.9813" lon="5.26849">
        <ele>391</ele>
        <time>2017-08-29T17:03:45Z</time>
      </trkpt>
      <trkpt lat="49.9813" lon="5.26854">
        <ele>391</ele>
        <time>2017-08-29T17:03:55Z</time>
      </trkpt>
      <trkpt lat="49.98127" lon="5.26854">
        <ele>391</ele>
        <time>2017-08-29T17:04:06Z</time>
      </trkpt>
      <trkpt lat="49.98128" lon="5.26857">
        <ele>391</ele>
        <time>2017-08-29T17:04:16Z</time>
      </trkpt>
      <trkpt lat="49.9813" lon="5.26856">
        <ele>391</ele>
        <time>2017-08-29T17:04:27Z</time>
      </trkpt>
      <trkpt lat="49.98132" lon="5.26854">
        <ele>391</ele>
        <time>2017-08-29T17:04:37Z</time>
      </trkpt>
      <trkpt lat="49.98134" lon="5.26855">
        <ele>391</ele>
        <time>2017-08-29T17:04:47Z</time>
      </trkpt>
      <trkpt lat="49.98136" lon="5.26857">
        <ele>390</ele>
        <time>2017-08-29T17:04:58Z</time>
      </trkpt>
      <trkpt lat="49.98135" lon="5.26856">
        <ele>390</ele>
        <time>2017-08-29T17:05:08Z</time>
      </trkpt>
      <trkpt lat="49.98134" lon="5.26855">
        <ele>391</ele>
        <time>2017-08-29T17:05:19Z</time>
      </trkpt>
      <trkpt lat="49.98132" lon="5.26853">
        <ele>391</ele>
        <time>2017-08-29T17:05:29Z</time>
      </trkpt>
      <trkpt lat="49.98132" lon="5.26853">
        <ele>391</ele>
        <time>2017-08-29T17:05:40Z</time>
      </trkpt>
      <trkpt lat="49.98132" lon="5.26852">
        <ele>390</ele>
        <time>2017-08-29T17:05:51Z</time>
      </trkpt>
      <trkpt lat="49.9813" lon="5.26853">
        <ele>390</ele>
        <time>2017-08-29T17:06:01Z</time>
      </trkpt>
      <trkpt lat="49.98128" lon="5.26853">
        <ele>390</ele>
        <time>2017-08-29T17:06:11Z</time>
      </trkpt>
      <trkpt lat="49.98126" lon="5.26851">
        <ele>391</ele>
        <time>2017-08-29T17:06:22Z</time>
      </trkpt>
      <trkpt lat="49.98129" lon="5.26851">
        <ele>391</ele>
        <time>2017-08-29T17:06:32Z</time>
      </trkpt>
      <trkpt lat="49.98132" lon="5.26853">
        <ele>390</ele>
        <time>2017-08-29T17:06:43Z</time>
      </trkpt>
      <trkpt lat="49.98137" lon="5.26858">
        <ele>390</ele>
        <time>2017-08-29T17:06:53Z</time>
      </trkpt>
      <trkpt lat="49.98134" lon="5.26858">
        <ele>391</ele>
        <time>2017-08-29T17:07:04Z</time>
      </trkpt>
      <trkpt lat="49.98132" lon="5.26856">
        <ele>390</ele>
        <time>2017-08-29T17:07:14Z</time>
      </trkpt>
      <trkpt lat="49.98132" lon="5.26856">
        <ele>391</ele>
        <time>2017-08-29T17:07:25Z</time>
      </trkpt>
      <trkpt lat="49.98133" lon="5.26857">
        <ele>390</ele>
        <time>2017-08-29T17:07:36Z</time>
      </trkpt>
      <trkpt lat="49.98133" lon="5.26856">
        <ele>390</ele>
        <time>2017-08-29T17:07:46Z</time>
      </trkpt>
      <trkpt lat="49.98131" lon="5.26857">
        <ele>390</ele>
        <time>2017-08-29T17:07:56Z</time>
      </trkpt>
      <trkpt lat="49.98132" lon="5.26861">
        <ele>391</ele>
        <time>2017-08-29T17:08:07Z</time>
      </trkpt>
      <trkpt lat="49.98131" lon="5.26858">
        <ele>391</ele>
        <time>2017-08-29T17:08:18Z</time>
      </trkpt>
      <trkpt lat="49.98125" lon="5.26859">
        <ele>391</ele>
        <time>2017-08-29T17:08:28Z</time>
      </trkpt>
      <trkpt lat="49.98124" lon="5.26857">
        <ele>390</ele>
        <time>2017-08-29T17:08:38Z</time>
      </trkpt>
      <trkpt lat="49.98126" lon="5.26858">
        <ele>391</ele>
        <time>2017-08-29T17:08:49Z</time>
      </trkpt>
      <trkpt lat="49.98127" lon="5.26856">
        <ele>390</ele>
        <time>2017-08-29T17:08:59Z</time>
      </trkpt>
      <trkpt lat="49.9813" lon="5.26856">
        <ele>391</ele>
        <time>2017-08-29T17:09:10Z</time>
      </trkpt>
      <trkpt lat="49.98131" lon="5.26857">
        <ele>390</ele>
        <time>2017-08-29T17:09:20Z</time>
      </trkpt>
      <trkpt lat="49.98132" lon="5.26857">
        <ele>390</ele>
        <time>2017-08-29T17:09:31Z</time>
      </trkpt>
      <trkpt lat="49.98133" lon="5.26857">
        <ele>390</ele>
        <time>2017-08-29T17:09:41Z</time>
      </trkpt>
      <trkpt lat="49.98133" lon="5.26853">
        <ele>390</ele>
        <time>2017-08-29T17:09:51Z</time>
      </trkpt>
      <trkpt lat="49.98131" lon="5.26853">
        <ele>390</ele>
        <time>2017-08-29T17:10:02Z</time>
      </trkpt>
      <trkpt lat="49.98126" lon="5.26855">
        <ele>390</ele>
        <time>2017-08-29T17:10:12Z</time>
      </trkpt>
      <trkpt lat="49.98126" lon="5.26855">
        <ele>390</ele>
        <time>2017-08-29T17:10:23Z</time>
      </trkpt>
      <trkpt lat="49.98127" lon="5.26853">
        <ele>390</ele>
        <time>2017-08-29T17:10:34Z</time>
      </trkpt>
      <trkpt lat="49.98129" lon="5.26854">
        <ele>390</ele>
        <time>2017-08-29T17:10:45Z</time>
      </trkpt>
      <trkpt lat="49.98125" lon="5.26853">
        <ele>391</ele>
        <time>2017-08-29T17:10:55Z</time>
      </trkpt>
      <trkpt lat="49.98123" lon="5.26853">
        <ele>390</ele>
        <time>2017-08-29T17:11:05Z</time>
      </trkpt>
      <trkpt lat="49.98124" lon="5.26851">
        <ele>390</ele>
        <time>2017-08-29T17:11:16Z</time>
      </trkpt>
      <trkpt lat="49.98128" lon="5.26851">
        <ele>390</ele>
        <time>2017-08-29T17:11:27Z</time>
      </trkpt>
      <trkpt lat="49.98127" lon="5.26852">
        <ele>391</ele>
        <time>2017-08-29T17:11:37Z</time>
      </trkpt>
      <trkpt lat="49.98126" lon="5.2685">
        <ele>390</ele>
        <time>2017-08-29T17:11:47Z</time>
      </trkpt>
      <trkpt lat="49.98125" lon="5.26851">
        <ele>391</ele>
        <time>2017-08-29T17:11:58Z</time>
      </trkpt>
      <trkpt lat="49.98127" lon="5.26853">
        <ele>390</ele>
        <time>2017-08-29T17:12:08Z</time>
      </trkpt>
      <trkpt lat="49.98128" lon="5.26854">
        <ele>391</ele>
        <time>2017-08-29T17:12:20Z</time>
      </trkpt>
      <trkpt lat="49.98129" lon="5.26853">
        <ele>391</ele>
        <time>2017-08-29T17:12:30Z</time>
      </trkpt>
      <trkpt lat="49.9813" lon="5.26855">
        <ele>390</ele>
        <time>2017-08-29T17:12:41Z</time>
      </trkpt>
      <trkpt lat="49.98131" lon="5.26858">
        <ele>390</ele>
        <time>2017-08-29T17:12:51Z</time>
      </trkpt>
      <trkpt lat="49.98133" lon="5.26859">
        <ele>391</ele>
        <time>2017-08-29T17:13:01Z</time>
      </trkpt>
      <trkpt lat="49.98133" lon="5.26856">
        <ele>390</ele>
        <time>2017-08-29T17:13:12Z</time>
      </trkpt>
      <trkpt lat="49.98132" lon="5.26856">
        <ele>390</ele>
        <time>2017-08-29T17:13:22Z</time>
      </trkpt>
      <trkpt lat="49.98133" lon="5.26856">
        <ele>391</ele>
        <time>2017-08-29T17:13:32Z</time>
      </trkpt>
      <trkpt lat="49.98135" lon="5.26856">
        <ele>391</ele>
        <time>2017-08-29T17:13:43Z</time>
      </trkpt>
      <trkpt lat="49.98132" lon="5.26854">
        <ele>391</ele>
        <time>2017-08-29T17:13:54Z</time>
      </trkpt>
      <trkpt lat="49.98131" lon="5.26849">
        <ele>391</ele>
        <time>2017-08-29T17:14:05Z</time>
      </trkpt>
      <trkpt lat="49.98132" lon="5.26851">
        <ele>391</ele>
        <time>2017-08-29T17:14:15Z</time>
      </trkpt>
      <trkpt lat="49.98131" lon="5.26853">
        <ele>391</ele>
        <time>2017-08-29T17:14:25Z</time>
      </trkpt>
      <trkpt lat="49.98133" lon="5.26856">
        <ele>391</ele>
        <time>2017-08-29T17:14:35Z</time>
      </trkpt>
      <trkpt lat="49.98133" lon="5.26858">
        <ele>391</ele>
        <time>2017-08-29T17:14:46Z</time>
      </trkpt>
      <trkpt lat="49.98138" lon="5.26853">
        <ele>391</ele>
        <time>2017-08-29T17:14:56Z</time>
      </trkpt>
      <trkpt lat="49.98138" lon="5.26856">
        <ele>391</ele>
        <time>2017-08-29T17:15:06Z</time>
      </trkpt>
      <trkpt lat="49.98135" lon="5.26853">
        <ele>391</ele>
        <time>2017-08-29T17:15:16Z</time>
      </trkpt>
      <trkpt lat="49.98129" lon="5.26864">
        <ele>391</ele>
        <time>2017-08-29T17:15:26Z</time>
      </trkpt>
      <trkpt lat="49.98131" lon="5.26853">
        <ele>391</ele>
        <time>2017-08-29T17:15:37Z</time>
      </trkpt>
      <trkpt lat="49.98138" lon="5.26851">
        <ele>390</ele>
        <time>2017-08-29T17:15:48Z</time>
      </trkpt>
      <trkpt lat="49.9814" lon="5.26852">
        <ele>390</ele>
        <time>2017-08-29T17:15:59Z</time>
      </trkpt>
      <trkpt lat="49.98141" lon="5.26852">
        <ele>391</ele>
        <time>2017-08-29T17:16:10Z</time>
      </trkpt>
      <trkpt lat="49.9814" lon="5.26853">
        <ele>390</ele>
        <time>2017-08-29T17:16:20Z</time>
      </trkpt>
      <trkpt lat="49.98139" lon="5.26856">
        <ele>390</ele>
        <time>2017-08-29T17:16:30Z</time>
      </trkpt>
      <trkpt lat="49.9814" lon="5.2686">
        <ele>391</ele>
        <time>2017-08-29T17:16:41Z</time>
      </trkpt>
      <trkpt lat="49.98139" lon="5.26863">
        <ele>390</ele>
        <time>2017-08-29T17:16:51Z</time>
      </trkpt>
      <trkpt lat="49.98138" lon="5.26862">
        <ele>391</ele>
        <time>2017-08-29T17:17:01Z</time>
      </trkpt>
      <trkpt lat="49.98137" lon="5.26857">
        <ele>390</ele>
        <time>2017-08-29T17:17:12Z</time>
      </trkpt>
      <trkpt lat="49.98138" lon="5.26857">
        <ele>391</ele>
        <time>2017-08-29T17:17:22Z</time>
      </trkpt>
      <trkpt lat="49.98135" lon="5.26855">
        <ele>390</ele>
        <time>2017-08-29T17:17:32Z</time>
      </trkpt>
      <trkpt lat="49.98134" lon="5.26859">
        <ele>390</ele>
        <time>2017-08-29T17:17:43Z</time>
      </trkpt>
      <trkpt lat="49.98135" lon="5.26862">
        <ele>391</ele>
        <time>2017-08-29T17:17:54Z</time>
      </trkpt>
      <trkpt lat="49.98135" lon="5.26866">
        <ele>390</ele>
        <time>2017-08-29T17:18:04Z</time>
      </trkpt>
      <trkpt lat="49.98135" lon="5.26863">
        <ele>391</ele>
        <time>2017-08-29T17:18:14Z</time>
      </trkpt>
      <trkpt lat="49.98135" lon="5.2686">
        <ele>391</ele>
        <time>2017-08-29T17:18:25Z</time>
      </trkpt>
      <trkpt lat="49.98136" lon="5.26856">
        <ele>391</ele>
        <time>2017-08-29T17:18:35Z</time>
      </trkpt>
      <trkpt lat="49.98133" lon="5.26854">
        <ele>391</ele>
        <time>2017-08-29T17:18:46Z</time>
      </trkpt>
      <trkpt lat="49.98133" lon="5.26857">
        <ele>391</ele>
        <time>2017-08-29T17:18:57Z</time>
      </trkpt>
      <trkpt lat="49.98132" lon="5.26857">
        <ele>390</ele>
        <time>2017-08-29T17:19:08Z</time>
      </trkpt>
      <trkpt lat="49.98133" lon="5.26857">
        <ele>391</ele>
        <time>2017-08-29T17:19:18Z</time>
      </trkpt>
      <trkpt lat="49.98131" lon="5.26852">
        <ele>391</ele>
        <time>2017-08-29T17:19:29Z</time>
      </trkpt>
      <trkpt lat="49.98132" lon="5.2685">
        <ele>391</ele>
        <time>2017-08-29T17:19:39Z</time>
      </trkpt>
      <trkpt lat="49.98134" lon="5.26848">
        <ele>391</ele>
        <time>2017-08-29T17:19:50Z</time>
      </trkpt>
      <trkpt lat="49.98136" lon="5.26848">
        <ele>391</ele>
        <time>2017-08-29T17:20:00Z</time>
      </trkpt>
      <trkpt lat="49.98135" lon="5.26846">
        <ele>391</ele>
        <time>2017-08-29T17:20:10Z</time>
      </trkpt>
      <trkpt lat="49.98127" lon="5.26847">
        <ele>391</ele>
        <time>2017-08-29T17:20:21Z</time>
      </trkpt>
      <trkpt lat="49.98127" lon="5.26852">
        <ele>391</ele>
        <time>2017-08-29T17:20:32Z</time>
      </trkpt>
      <trkpt lat="49.98129" lon="5.26852">
        <ele>391</ele>
        <time>2017-08-29T17:20:42Z</time>
      </trkpt>
      <trkpt lat="49.98131" lon="5.26852">
        <ele>390</ele>
        <time>2017-08-29T17:20:53Z</time>
      </trkpt>
      <trkpt lat="49.98133" lon="5.26848">
        <ele>391</ele>
        <time>2017-08-29T17:21:03Z</time>
      </trkpt>
      <trkpt lat="49.9813" lon="5.26849">
        <ele>391</ele>
        <time>2017-08-29T17:21:14Z</time>
      </trkpt>
      <trkpt lat="49.9813" lon="5.26856">
        <ele>391</ele>
        <time>2017-08-29T17:21:24Z</time>
      </trkpt>
      <trkpt lat="49.98132" lon="5.26858">
        <ele>391</ele>
        <time>2017-08-29T17:21:35Z</time>
      </trkpt>
      <trkpt lat="49.98133" lon="5.26856">
        <ele>391</ele>
        <time>2017-08-29T17:21:46Z</time>
      </trkpt>
      <trkpt lat="49.98133" lon="5.2685">
        <ele>391</ele>
        <time>2017-08-29T17:21:58Z</time>
      </trkpt>
      <trkpt lat="49.98133" lon="5.26849">
        <ele>391</ele>
        <time>2017-08-29T17:22:08Z</time>
      </trkpt>
      <trkpt lat="49.98132" lon="5.26848">
        <ele>391</ele>
        <time>2017-08-29T17:22:19Z</time>
      </trkpt>
      <trkpt lat="49.98132" lon="5.26846">
        <ele>391</ele>
        <time>2017-08-29T17:22:30Z</time>
      </trkpt>
      <trkpt lat="49.98132" lon="5.26845">
        <ele>391</ele>
        <time>2017-08-29T17:22:40Z</time>
      </trkpt>
      <trkpt lat="49.98131" lon="5.2685">
        <ele>390</ele>
        <time>2017-08-29T17:22:50Z</time>
      </trkpt>
      <trkpt lat="49.98129" lon="5.26848">
        <ele>391</ele>
        <time>2017-08-29T17:23:01Z</time>
      </trkpt>
      <trkpt lat="49.98128" lon="5.26848">
        <ele>391</ele>
        <time>2017-08-29T17:23:11Z</time>
      </trkpt>
      <trkpt lat="49.98127" lon="5.26851">
        <ele>391</ele>
        <time>2017-08-29T17:23:21Z</time>
      </trkpt>
      <trkpt lat="49.98128" lon="5.26854">
        <ele>391</ele>
        <time>2017-08-29T17:23:32Z</time>
      </trkpt>
      <trkpt lat="49.98129" lon="5.26855">
        <ele>391</ele>
        <time>2017-08-29T17:23:42Z</time>
      </trkpt>
      <trkpt lat="49.98129" lon="5.26856">
        <ele>391</ele>
        <time>2017-08-29T17:23:53Z</time>
      </trkpt>
      <trkpt lat="49.98129" lon="5.26857">
        <ele>391</ele>
        <time>2017-08-29T17:24:03Z</time>
      </trkpt>
      <trkpt lat="49.98128" lon="5.26858">
        <ele>391</ele>
        <time>2017-08-29T17:24:13Z</time>
      </trkpt>
      <trkpt lat="49.98128" lon="5.26857">
        <ele>391</ele>
        <time>2017-08-29T17:24:23Z</time>
      </trkpt>
      <trkpt lat="49.98129" lon="5.26854">
        <ele>391</ele>
        <time>2017-08-29T17:24:33Z</time>
      </trkpt>
      <trkpt lat="49.98132" lon="5.2685">
        <ele>391</ele>
        <time>2017-08-29T17:24:44Z</time>
      </trkpt>
      <trkpt lat="49.98132" lon="5.26848">
        <ele>391</ele>
        <time>2017-08-29T17:24:55Z</time>
      </trkpt>
      <trkpt lat="49.98134" lon="5.26848">
        <ele>391</ele>
        <time>2017-08-29T17:25:06Z</time>
      </trkpt>
      <trkpt lat="49.98136" lon="5.26849">
        <ele>391</ele>
        <time>2017-08-29T17:25:16Z</time>
      </trkpt>
      <trkpt lat="49.98137" lon="5.26851">
        <ele>391</ele>
        <time>2017-08-29T17:25:27Z</time>
      </trkpt>
      <trkpt lat="49.98135" lon="5.26857">
        <ele>391</ele>
        <time>2017-08-29T17:25:37Z</time>
      </trkpt>
      <trkpt lat="49.98135" lon="5.26858">
        <ele>391</ele>
        <time>2017-08-29T17:25:47Z</time>
      </trkpt>
      <trkpt lat="49.98137" lon="5.26858">
        <ele>392</ele>
        <time>2017-08-29T17:25:57Z</time>
      </trkpt>
      <trkpt lat="49.98137" lon="5.26862">
        <ele>391</ele>
        <time>2017-08-29T17:26:08Z</time>
      </trkpt>
      <trkpt lat="49.98136" lon="5.26862">
        <ele>391</ele>
        <time>2017-08-29T17:26:19Z</time>
      </trkpt>
      <trkpt lat="49.98137" lon="5.2686">
        <ele>391</ele>
        <time>2017-08-29T17:26:29Z</time>
      </trkpt>
      <trkpt lat="49.98137" lon="5.26857">
        <ele>391</ele>
        <time>2017-08-29T17:26:39Z</time>
      </trkpt>
      <trkpt lat="49.98135" lon="5.26859">
        <ele>391</ele>
        <time>2017-08-29T17:26:49Z</time>
      </trkpt>
      <trkpt lat="49.98133" lon="5.26864">
        <ele>391</ele>
        <time>2017-08-29T17:27:00Z</time>
      </trkpt>
      <trkpt lat="49.98132" lon="5.26869">
        <ele>391</ele>
        <time>2017-08-29T17:27:10Z</time>
      </trkpt>
      <trkpt lat="49.98133" lon="5.26865">
        <ele>391</ele>
        <time>2017-08-29T17:27:20Z</time>
      </trkpt>
      <trkpt lat="49.98133" lon="5.2686">
        <ele>391</ele>
        <time>2017-08-29T17:27:31Z</time>
      </trkpt>
      <trkpt lat="49.98137" lon="5.26859">
        <ele>391</ele>
        <time>2017-08-29T17:27:41Z</time>
      </trkpt>
      <trkpt lat="49.98141" lon="5.26858">
        <ele>391</ele>
        <time>2017-08-29T17:27:52Z</time>
      </trkpt>
      <trkpt lat="49.98144" lon="5.26856">
        <ele>391</ele>
        <time>2017-08-29T17:28:03Z</time>
      </trkpt>
      <trkpt lat="49.98139" lon="5.26856">
        <ele>392</ele>
        <time>2017-08-29T17:28:14Z</time>
      </trkpt>
      <trkpt lat="49.98138" lon="5.26853">
        <ele>391</ele>
        <time>2017-08-29T17:28:24Z</time>
      </trkpt>
      <trkpt lat="49.98137" lon="5.26853">
        <ele>391</ele>
        <time>2017-08-29T17:28:35Z</time>
      </trkpt>
      <trkpt lat="49.98137" lon="5.26853">
        <ele>392</ele>
        <time>2017-08-29T17:28:45Z</time>
      </trkpt>
      <trkpt lat="49.98135" lon="5.26853">
        <ele>391</ele>
        <time>2017-08-29T17:28:56Z</time>
      </trkpt>
      <trkpt lat="49.98135" lon="5.26852">
        <ele>392</ele>
        <time>2017-08-29T17:29:06Z</time>
      </trkpt>
      <trkpt lat="49.98134" lon="5.26844">
        <ele>391</ele>
        <time>2017-08-29T17:29:17Z</time>
      </trkpt>
      <trkpt lat="49.98134" lon="5.26842">
        <ele>391</ele>
        <time>2017-08-29T17:29:27Z</time>
      </trkpt>
      <trkpt lat="49.98132" lon="5.26844">
        <ele>392</ele>
        <time>2017-08-29T17:29:37Z</time>
      </trkpt>
      <trkpt lat="49.98132" lon="5.26851">
        <ele>391</ele>
        <time>2017-08-29T17:29:48Z</time>
      </trkpt>
      <trkpt lat="49.98132" lon="5.26856">
        <ele>392</ele>
        <time>2017-08-29T17:29:58Z</time>
      </trkpt>
      <trkpt lat="49.98133" lon="5.26862">
        <ele>391</ele>
        <time>2017-08-29T17:30:08Z</time>
      </trkpt>
      <trkpt lat="49.98134" lon="5.26863">
        <ele>392</ele>
        <time>2017-08-29T17:30:19Z</time>
      </trkpt>
      <trkpt lat="49.98135" lon="5.26864">
        <ele>391</ele>
        <time>2017-08-29T17:30:29Z</time>
      </trkpt>
      <trkpt lat="49.98131" lon="5.26868">
        <ele>392</ele>
        <time>2017-08-29T17:30:39Z</time>
      </trkpt>
      <trkpt lat="49.98132" lon="5.26867">
        <ele>391</ele>
        <time>2017-08-29T17:30:50Z</time>
      </trkpt>
      <trkpt lat="49.98132" lon="5.26867">
        <ele>392</ele>
        <time>2017-08-29T17:31:01Z</time>
      </trkpt>
      <trkpt lat="49.98127" lon="5.2687">
        <ele>392</ele>
        <time>2017-08-29T17:31:11Z</time>
      </trkpt>
      <trkpt lat="49.98117" lon="5.26874">
        <ele>392</ele>
        <time>2017-08-29T17:31:22Z</time>
      </trkpt>
      <trkpt lat="49.98114" lon="5.26872">
        <ele>392</ele>
        <time>2017-08-29T17:31:32Z</time>
      </trkpt>
      <trkpt lat="49.98115" lon="5.26867">
        <ele>392</ele>
        <time>2017-08-29T17:31:43Z</time>
      </trkpt>
      <trkpt lat="49.98117" lon="5.26864">
        <ele>392</ele>
        <time>2017-08-29T17:31:53Z</time>
      </trkpt>
      <trkpt lat="49.98119" lon="5.26863">
        <ele>391</ele>
        <time>2017-08-29T17:32:04Z</time>
      </trkpt>
      <trkpt lat="49.98122" lon="5.26861">
        <ele>392</ele>
        <time>2017-08-29T17:32:15Z</time>
      </trkpt>
      <trkpt lat="49.98119" lon="5.26857">
        <ele>392</ele>
        <time>2017-08-29T17:32:25Z</time>
      </trkpt>
      <trkpt lat="49.98118" lon="5.26855">
        <ele>392</ele>
        <time>2017-08-29T17:32:36Z</time>
      </trkpt>
      <trkpt lat="49.98121" lon="5.26856">
        <ele>392</ele>
        <time>2017-08-29T17:32:46Z</time>
      </trkpt>
      <trkpt lat="49.9812" lon="5.26856">
        <ele>392</ele>
        <time>2017-08-29T17:32:57Z</time>
      </trkpt>
      <trkpt lat="49.98122" lon="5.26856">
        <ele>392</ele>
        <time>2017-08-29T17:33:08Z</time>
      </trkpt>
      <trkpt lat="49.98125" lon="5.26856">
        <ele>392</ele>
        <time>2017-08-29T17:33:19Z</time>
      </trkpt>
      <trkpt lat="49.98125" lon="5.26857">
        <ele>392</ele>
        <time>2017-08-29T17:33:30Z</time>
      </trkpt>
      <trkpt lat="49.98122" lon="5.2686">
        <ele>392</ele>
        <time>2017-08-29T17:33:41Z</time>
      </trkpt>
      <trkpt lat="49.98118" lon="5.26865">
        <ele>392</ele>
        <time>2017-08-29T17:33:51Z</time>
      </trkpt>
      <trkpt lat="49.98117" lon="5.26863">
        <ele>392</ele>
        <time>2017-08-29T17:34:01Z</time>
      </trkpt>
      <trkpt lat="49.98111" lon="5.2686">
        <ele>392</ele>
        <time>2017-08-29T17:34:12Z</time>
      </trkpt>
      <trkpt lat="49.9811" lon="5.26862">
        <ele>392</ele>
        <time>2017-08-29T17:34:23Z</time>
      </trkpt>
      <trkpt lat="49.9811" lon="5.26863">
        <ele>392</ele>
        <time>2017-08-29T17:34:34Z</time>
      </trkpt>
      <trkpt lat="49.98119" lon="5.26866">
        <ele>392</ele>
        <time>2017-08-29T17:34:45Z</time>
      </trkpt>
      <trkpt lat="49.98128" lon="5.26866">
        <ele>392</ele>
        <time>2017-08-29T17:34:55Z</time>
      </trkpt>
      <trkpt lat="49.98129" lon="5.26865">
        <ele>392</ele>
        <time>2017-08-29T17:35:06Z</time>
      </trkpt>
      <trkpt lat="49.98133" lon="5.26864">
        <ele>392</ele>
        <time>2017-08-29T17:35:16Z</time>
      </trkpt>
      <trkpt lat="49.98138" lon="5.26864">
        <ele>392</ele>
        <time>2017-08-29T17:35:27Z</time>
      </trkpt>
      <trkpt lat="49.98138" lon="5.26863">
        <ele>392</ele>
        <time>2017-08-29T17:35:37Z</time>
      </trkpt>
      <trkpt lat="49.98135" lon="5.26866">
        <ele>392</ele>
        <time>2017-08-29T17:35:48Z</time>
      </trkpt>
      <trkpt lat="49.98134" lon="5.26863">
        <ele>392</ele>
        <time>2017-08-29T17:35:58Z</time>
      </trkpt>
      <trkpt lat="49.98135" lon="5.26861">
        <ele>392</ele>
        <time>2017-08-29T17:36:08Z</time>
      </trkpt>
      <trkpt lat="49.98135" lon="5.26862">
        <ele>392</ele>
        <time>2017-08-29T17:36:19Z</time>
      </trkpt>
      <trkpt lat="49.98134" lon="5.26864">
        <ele>392</ele>
        <time>2017-08-29T17:36:29Z</time>
      </trkpt>
      <trkpt lat="49.98134" lon="5.2686">
        <ele>392</ele>
        <time>2017-08-29T17:36:40Z</time>
      </trkpt>
      <trkpt lat="49.98135" lon="5.26858">
        <ele>391</ele>
        <time>2017-08-29T17:36:50Z</time>
      </trkpt>
      <trkpt lat="49.98135" lon="5.26857">
        <ele>391</ele>
        <time>2017-08-29T17:37:01Z</time>
      </trkpt>
      <trkpt lat="49.98137" lon="5.26857">
        <ele>392</ele>
        <time>2017-08-29T17:37:11Z</time>
      </trkpt>
      <trkpt lat="49.98139" lon="5.26857">
        <ele>392</ele>
        <time>2017-08-29T17:37:21Z</time>
      </trkpt>
      <trkpt lat="49.98143" lon="5.26857">
        <ele>392</ele>
        <time>2017-08-29T17:37:32Z</time>
      </trkpt>
      <trkpt lat="49.98148" lon="5.26859">
        <ele>392</ele>
        <time>2017-08-29T17:37:43Z</time>
      </trkpt>
      <trkpt lat="49.98145" lon="5.2686">
        <ele>391</ele>
        <time>2017-08-29T17:37:53Z</time>
      </trkpt>
      <trkpt lat="49.98145" lon="5.2686">
        <ele>392</ele>
        <time>2017-08-29T17:38:03Z</time>
      </trkpt>
      <trkpt lat="49.9815" lon="5.26854">
        <ele>392</ele>
        <time>2017-08-29T17:38:14Z</time>
      </trkpt>
      <trkpt lat="49.98143" lon="5.26853">
        <ele>392</ele>
        <time>2017-08-29T17:38:25Z</time>
      </trkpt>
      <trkpt lat="49.98131" lon="5.26851">
        <ele>392</ele>
        <time>2017-08-29T17:38:35Z</time>
      </trkpt>
      <trkpt lat="49.98122" lon="5.26851">
        <ele>392</ele>
        <time>2017-08-29T17:38:45Z</time>
      </trkpt>
      <trkpt lat="49.98119" lon="5.26851">
        <ele>392</ele>
        <time>2017-08-29T17:38:55Z</time>
      </trkpt>
      <trkpt lat="49.98126" lon="5.26852">
        <ele>392</ele>
        <time>2017-08-29T17:39:06Z</time>
      </trkpt>
      <trkpt lat="49.9813" lon="5.26851">
        <ele>392</ele>
        <time>2017-08-29T17:39:17Z</time>
      </trkpt>
      <trkpt lat="49.9813" lon="5.26854">
        <ele>392</ele>
        <time>2017-08-29T17:39:28Z</time>
      </trkpt>
      <trkpt lat="49.98128" lon="5.26857">
        <ele>392</ele>
        <time>2017-08-29T17:39:38Z</time>
      </trkpt>
      <trkpt lat="49.98127" lon="5.26863">
        <ele>392</ele>
        <time>2017-08-29T17:39:49Z</time>
      </trkpt>
      <trkpt lat="49.98129" lon="5.26864">
        <ele>392</ele>
        <time>2017-08-29T17:39:59Z</time>
      </trkpt>
      <trkpt lat="49.98131" lon="5.26866">
        <ele>392</ele>
        <time>2017-08-29T17:40:09Z</time>
      </trkpt>
      <trkpt lat="49.98127" lon="5.26868">
        <ele>392</ele>
        <time>2017-08-29T17:40:20Z</time>
      </trkpt>
      <trkpt lat="49.98125" lon="5.26867">
        <ele>392</ele>
        <time>2017-08-29T17:40:31Z</time>
      </trkpt>
      <trkpt lat="49.98127" lon="5.26862">
        <ele>393</ele>
        <time>2017-08-29T17:40:42Z</time>
      </trkpt>
      <trkpt lat="49.98129" lon="5.2686">
        <ele>392</ele>
        <time>2017-08-29T17:40:52Z</time>
      </trkpt>
      <trkpt lat="49.98131" lon="5.26856">
        <ele>392</ele>
        <time>2017-08-29T17:41:03Z</time>
      </trkpt>
      <trkpt lat="49.98133" lon="5.26859">
        <ele>392</ele>
        <time>2017-08-29T17:41:13Z</time>
      </trkpt>
      <trkpt lat="49.98134" lon="5.2686">
        <ele>392</ele>
        <time>2017-08-29T17:41:24Z</time>
      </trkpt>
      <trkpt lat="49.98134" lon="5.26864">
        <ele>392</ele>
        <time>2017-08-29T17:41:34Z</time>
      </trkpt>
      <trkpt lat="49.98135" lon="5.26864">
        <ele>392</ele>
        <time>2017-08-29T17:41:44Z</time>
      </trkpt>
      <trkpt lat="49.98136" lon="5.26863">
        <ele>392</ele>
        <time>2017-08-29T17:41:55Z</time>
      </trkpt>
      <trkpt lat="49.98138" lon="5.26859">
        <ele>392</ele>
        <time>2017-08-29T17:42:05Z</time>
      </trkpt>
      <trkpt lat="49.98138" lon="5.26861">
        <ele>392</ele>
        <time>2017-08-29T17:42:16Z</time>
      </trkpt>
      <trkpt lat="49.9814" lon="5.26862">
        <ele>392</ele>
        <time>2017-08-29T17:42:26Z</time>
      </trkpt>
      <trkpt lat="49.98141" lon="5.26862">
        <ele>393</ele>
        <time>2017-08-29T17:42:37Z</time>
      </trkpt>
      <trkpt lat="49.98144" lon="5.26861">
        <ele>392</ele>
        <time>2017-08-29T17:42:47Z</time>
      </trkpt>
      <trkpt lat="49.98141" lon="5.26856">
        <ele>392</ele>
        <time>2017-08-29T17:42:57Z</time>
      </trkpt>
      <trkpt lat="49.9814" lon="5.26856">
        <ele>392</ele>
        <time>2017-08-29T17:43:08Z</time>
      </trkpt>
      <trkpt lat="49.98139" lon="5.26857">
        <ele>392</ele>
        <time>2017-08-29T17:43:19Z</time>
      </trkpt>
      <trkpt lat="49.98136" lon="5.26857">
        <ele>392</ele>
        <time>2017-08-29T17:43:29Z</time>
      </trkpt>
      <trkpt lat="49.98136" lon="5.26854">
        <ele>393</ele>
        <time>2017-08-29T17:43:39Z</time>
      </trkpt>
      <trkpt lat="49.98135" lon="5.26853">
        <ele>392</ele>
        <time>2017-08-29T17:43:50Z</time>
      </trkpt>
      <trkpt lat="49.98132" lon="5.26853">
        <ele>393</ele>
        <time>2017-08-29T17:44:00Z</time>
      </trkpt>
      <trkpt lat="49.98128" lon="5.26852">
        <ele>392</ele>
        <time>2017-08-29T17:44:10Z</time>
      </trkpt>
      <trkpt lat="49.9813" lon="5.26851">
        <ele>392</ele>
        <time>2017-08-29T17:44:20Z</time>
      </trkpt>
      <trkpt lat="49.98129" lon="5.2685">
        <ele>392</ele>
        <time>2017-08-29T17:44:31Z</time>
      </trkpt>
      <trkpt lat="49.98125" lon="5.26847">
        <ele>392</ele>
        <time>2017-08-29T17:44:42Z</time>
      </trkpt>
      <trkpt lat="49.98121" lon="5.26849">
        <ele>392</ele>
        <time>2017-08-29T17:44:52Z</time>
      </trkpt>
      <trkpt lat="49.98125" lon="5.2685">
        <ele>392</ele>
        <time>2017-08-29T17:45:03Z</time>
      </trkpt>
      <trkpt lat="49.98126" lon="5.2685">
        <ele>392</ele>
        <time>2017-08-29T17:45:14Z</time>
      </trkpt>
    </trkseg>
  </trk>
</gpx>